Time,TemperatureF,DewpointF,PressureIn,WindDirection,WindDirectionDegrees,WindSpeedMPH,WindSpeedGustMPH,Humidity,HourlyPrecipIn,Conditions,Clouds,dailyrainin,SoftwareType,DateUTC
2013-01-19 00:00:00,23.8,13.4,30.36,WSW,252,4.0,5.0,64,0.00,,,0.00,VWS V14.01,2013-01-19 05:00:00,
2013-01-19 00:01:00,23.9,13.5,30.36,SW,229,1.0,9.0,64,0.00,,,0.00,VWS V14.01,2013-01-19 05:01:00,
2013-01-19 00:02:00,23.9,13.5,30.36,SW,229,1.0,9.0,64,0.00,,,0.00,VWS V14.01,2013-01-19 05:02:00,
2013-01-19 00:03:00,23.9,13.5,30.36,SW,229,1.0,9.0,64,0.00,,,0.00,VWS V14.01,2013-01-19 05:03:00,
2013-01-19 00:04:00,24.0,13.2,30.36,WSW,246,5.0,9.0,63,0.00,,,0.00,VWS V14.01,2013-01-19 05:04:00,
2013-01-19 00:05:00,24.0,13.2,30.36,WSW,250,6.0,9.0,63,0.00,,,0.00,VWS V14.01,2013-01-19 05:05:00,
2013-01-19 00:06:00,24.0,13.2,30.36,SW,215,6.0,9.0,63,0.00,,,0.00,VWS V14.01,2013-01-19 05:06:00,
2013-01-19 00:07:00,24.0,13.2,30.36,WSW,250,6.0,9.0,63,0.00,,,0.00,VWS V14.01,2013-01-19 05:07:00,
2013-01-19 00:08:00,24.0,13.2,30.36,WSW,250,6.0,9.0,63,0.00,,,0.00,VWS V14.01,2013-01-19 05:08:00,
2013-01-19 00:09:00,24.2,13.4,30.36,SSW,202,0.0,9.0,63,0.00,,,0.00,VWS V14.01,2013-01-19 05:09:00,
2013-01-19 00:10:00,24.2,13.4,30.36,SSW,209,2.0,9.0,63,0.00,,,0.00,VWS V14.01,2013-01-19 05:10:00,
2013-01-19 00:11:00,24.3,13.5,30.36,West,261,1.0,4.0,63,0.00,,,0.00,VWS V14.01,2013-01-19 05:11:00,
2013-01-19 00:12:00,24.3,13.5,30.36,WSW,247,2.0,4.0,63,0.00,,,0.00,VWS V14.01,2013-01-19 05:12:00,
2013-01-19 00:13:00,24.3,13.5,30.36,WSW,247,2.0,4.0,63,0.00,,,0.00,VWS V14.01,2013-01-19 05:13:00,
2013-01-19 00:14:00,24.4,13.6,30.36,West,272,1.0,4.0,63,0.00,,,0.00,VWS V14.01,2013-01-19 05:14:00,
2013-01-19 00:15:00,24.4,13.6,30.36,West,269,2.0,4.0,63,0.00,,,0.00,VWS V14.01,2013-01-19 05:15:00,
2013-01-19 00:16:00,24.5,13.7,30.36,WNW,288,3.0,6.0,63,0.00,,,0.00,VWS V14.01,2013-01-19 05:16:00,
2013-01-19 00:17:00,24.5,13.7,30.36,WNW,287,3.0,6.0,63,0.00,,,0.00,VWS V14.01,2013-01-19 05:17:00,
2013-01-19 00:18:00,24.5,13.7,30.36,WNW,287,3.0,6.0,63,0.00,,,0.00,VWS V14.01,2013-01-19 05:18:00,
2013-01-19 00:19:00,24.6,13.8,30.36,SW,221,1.0,6.0,63,0.00,,,0.00,VWS V14.01,2013-01-19 05:19:00,
2013-01-19 00:20:00,24.6,13.8,30.36,WSW,257,4.0,6.0,63,0.00,,,0.00,VWS V14.01,2013-01-19 05:20:00,
2013-01-19 00:21:00,24.6,13.4,30.36,WSW,254,0.0,3.0,62,0.00,,,0.00,VWS V14.01,2013-01-19 05:21:00,
2013-01-19 00:22:00,24.6,13.4,30.36,WSW,254,0.0,3.0,62,0.00,,,0.00,VWS V14.01,2013-01-19 05:22:00,
2013-01-19 00:23:00,24.6,13.4,30.36,WSW,254,0.0,3.0,62,0.00,,,0.00,VWS V14.01,2013-01-19 05:23:00,
2013-01-19 00:24:00,24.7,13.9,30.36,WSW,257,1.0,3.0,63,0.00,,,0.00,VWS V14.01,2013-01-19 05:24:00,
2013-01-19 00:25:00,24.7,13.9,30.36,WSW,257,0.0,3.0,63,0.00,,,0.00,VWS V14.01,2013-01-19 05:25:00,
2013-01-19 00:26:00,24.7,13.9,30.36,SSW,194,1.0,3.0,63,0.00,,,0.00,VWS V14.01,2013-01-19 05:26:00,
2013-01-19 00:27:00,24.7,13.9,30.36,SSW,194,1.0,3.0,63,0.00,,,0.00,VWS V14.01,2013-01-19 05:27:00,
2013-01-19 00:28:00,24.7,13.9,30.36,SSW,194,1.0,3.0,63,0.00,,,0.00,VWS V14.01,2013-01-19 05:28:00,
2013-01-19 00:29:00,24.7,13.9,30.36,SW,215,4.0,4.0,63,0.00,,,0.00,VWS V14.01,2013-01-19 05:29:00,
2013-01-19 00:30:00,24.8,14.0,30.36,SW,218,0.0,4.0,63,0.00,,,0.00,VWS V14.01,2013-01-19 05:30:00,
2013-01-19 00:31:00,24.8,14.0,30.36,SSW,209,1.0,3.0,63,0.00,,,0.00,VWS V14.01,2013-01-19 05:31:00,
2013-01-19 00:32:00,24.8,14.0,30.36,SSW,209,1.0,3.0,63,0.00,,,0.00,VWS V14.01,2013-01-19 05:32:00,
2013-01-19 00:33:00,24.8,14.0,30.36,SSW,209,1.0,3.0,63,0.00,,,0.00,VWS V14.01,2013-01-19 05:33:00,
2013-01-19 00:34:00,24.8,14.4,30.36,SW,217,2.0,5.0,64,0.00,,,0.00,VWS V14.01,2013-01-19 05:34:00,
2013-01-19 00:35:00,24.8,14.4,30.36,West,281,2.0,5.0,64,0.00,,,0.00,VWS V14.01,2013-01-19 05:35:00,
2013-01-19 00:36:00,24.8,14.4,30.36,West,266,5.0,5.0,64,0.00,,,0.00,VWS V14.01,2013-01-19 05:36:00,
2013-01-19 00:37:00,24.8,14.4,30.36,West,266,5.0,5.0,64,0.00,,,0.00,VWS V14.01,2013-01-19 05:37:00,
2013-01-19 00:38:00,24.8,14.4,30.36,West,266,5.0,5.0,64,0.00,,,0.00,VWS V14.01,2013-01-19 05:38:00,
2013-01-19 00:39:00,24.8,14.0,30.36,SW,232,1.0,5.0,63,0.00,,,0.00,VWS V14.01,2013-01-19 05:39:00,
2013-01-19 00:40:00,24.9,14.1,30.36,WSW,242,1.0,5.0,63,0.00,,,0.00,VWS V14.01,2013-01-19 05:40:00,
2013-01-19 00:41:00,24.9,14.1,30.36,South,171,1.0,3.0,63,0.00,,,0.00,VWS V14.01,2013-01-19 05:41:00,
2013-01-19 00:42:00,24.9,14.1,30.36,South,182,3.0,3.0,63,0.00,,,0.00,VWS V14.01,2013-01-19 05:42:00,
2013-01-19 00:43:00,24.9,14.1,30.36,South,182,3.0,3.0,63,0.00,,,0.00,VWS V14.01,2013-01-19 05:43:00,
2013-01-19 00:44:00,24.9,14.1,30.36,South,190,0.0,3.0,63,0.00,,,0.00,VWS V14.01,2013-01-19 05:44:00,
2013-01-19 00:45:00,24.9,14.1,30.35,WNW,282,5.0,5.0,63,0.00,,,0.00,VWS V14.01,2013-01-19 05:45:00,
2013-01-19 00:46:00,24.9,14.1,30.35,West,277,1.0,5.0,63,0.00,,,0.00,VWS V14.01,2013-01-19 05:46:00,
2013-01-19 00:47:00,24.9,14.1,30.35,West,277,1.0,5.0,63,0.00,,,0.00,VWS V14.01,2013-01-19 05:47:00,
2013-01-19 00:48:00,24.9,14.1,30.35,West,277,1.0,5.0,63,0.00,,,0.00,VWS V14.01,2013-01-19 05:48:00,
2013-01-19 00:49:00,24.9,14.1,30.35,WSW,238,1.0,5.0,63,0.00,,,0.00,VWS V14.01,2013-01-19 05:49:00,
2013-01-19 00:50:00,24.9,14.1,30.35,WSW,238,0.0,5.0,63,0.00,,,0.00,VWS V14.01,2013-01-19 05:50:00,
2013-01-19 00:51:00,24.9,14.1,30.35,SW,227,3.0,4.0,63,0.00,,,0.00,VWS V14.01,2013-01-19 05:51:00,
2013-01-19 00:52:00,24.9,14.1,30.35,SW,227,1.0,4.0,63,0.00,,,0.00,VWS V14.01,2013-01-19 05:52:00,
2013-01-19 00:53:00,24.9,14.1,30.35,SW,227,1.0,4.0,63,0.00,,,0.00,VWS V14.01,2013-01-19 05:53:00,
2013-01-19 00:54:00,25.0,14.6,30.35,WSW,250,6.0,8.0,64,0.00,,,0.00,VWS V14.01,2013-01-19 05:54:00,
2013-01-19 00:55:00,25.0,14.2,30.35,SSW,192,1.0,10.0,63,0.00,,,0.00,VWS V14.01,2013-01-19 05:55:00,
2013-01-19 00:56:00,25.0,14.2,30.35,WSW,243,6.0,10.0,63,0.00,,,0.00,VWS V14.01,2013-01-19 05:56:00,
2013-01-19 00:57:00,25.0,14.2,30.35,WSW,243,6.0,10.0,63,0.00,,,0.00,VWS V14.01,2013-01-19 05:57:00,
2013-01-19 00:58:00,25.0,14.2,30.35,WSW,243,6.0,10.0,63,0.00,,,0.00,VWS V14.01,2013-01-19 05:58:00,
2013-01-19 00:59:00,25.1,14.3,30.35,WSW,246,3.0,10.0,63,0.00,,,0.00,VWS V14.01,2013-01-19 05:59:00,
2013-01-19 01:00:00,25.1,14.6,30.35,WSW,253,0.0,10.0,64,0.00,,,0.00,VWS V14.01,2013-01-19 06:00:00,
2013-01-19 01:01:00,25.1,14.6,30.35,SSW,200,4.0,5.0,64,0.00,,,0.00,VWS V14.01,2013-01-19 06:01:00,
2013-01-19 01:02:00,25.1,14.6,30.35,SSW,200,4.0,5.0,64,0.00,,,0.00,VWS V14.01,2013-01-19 06:02:00,
2013-01-19 01:03:00,25.1,14.6,30.35,SSW,200,4.0,5.0,64,0.00,,,0.00,VWS V14.01,2013-01-19 06:03:00,
2013-01-19 01:04:00,25.2,14.4,30.35,SW,224,0.0,5.0,63,0.00,,,0.00,VWS V14.01,2013-01-19 06:04:00,
2013-01-19 01:05:00,25.2,14.4,30.35,WSW,244,6.0,7.0,63,0.00,,,0.00,VWS V14.01,2013-01-19 06:05:00,
2013-01-19 01:06:00,25.3,14.5,30.35,SSW,205,2.0,7.0,63,0.00,,,0.00,VWS V14.01,2013-01-19 06:06:00,
2013-01-19 01:07:00,25.3,14.5,30.35,SSW,206,3.0,7.0,63,0.00,,,0.00,VWS V14.01,2013-01-19 06:07:00,
2013-01-19 01:08:00,25.3,14.5,30.35,SSW,206,3.0,7.0,63,0.00,,,0.00,VWS V14.01,2013-01-19 06:08:00,
2013-01-19 01:09:00,25.4,14.6,30.35,SW,216,0.0,7.0,63,0.00,,,0.00,VWS V14.01,2013-01-19 06:09:00,
2013-01-19 01:10:00,25.4,14.6,30.35,NNW,338,7.0,7.0,63,0.00,,,0.00,VWS V14.01,2013-01-19 06:10:00,
2013-01-19 01:11:00,25.4,14.6,30.35,SSW,199,5.0,8.0,63,0.00,,,0.00,VWS V14.01,2013-01-19 06:11:00,
2013-01-19 01:12:00,25.4,14.6,30.35,SSW,199,5.0,8.0,63,0.00,,,0.00,VWS V14.01,2013-01-19 06:12:00,
2013-01-19 01:13:00,25.4,14.6,30.35,SSW,199,5.0,8.0,63,0.00,,,0.00,VWS V14.01,2013-01-19 06:13:00,
2013-01-19 01:14:00,25.6,14.8,30.35,SW,221,5.0,8.0,63,0.00,,,0.00,VWS V14.01,2013-01-19 06:14:00,
2013-01-19 01:15:00,25.6,14.8,30.35,West,266,4.0,8.0,63,0.00,,,0.00,VWS V14.01,2013-01-19 06:15:00,
2013-01-19 01:16:00,25.6,14.8,30.35,SSW,211,2.0,8.0,63,0.00,,,0.00,VWS V14.01,2013-01-19 06:16:00,
2013-01-19 01:17:00,25.6,14.8,30.35,SSW,211,2.0,8.0,63,0.00,,,0.00,VWS V14.01,2013-01-19 06:17:00,
2013-01-19 01:18:00,25.6,14.8,30.35,SSW,211,2.0,8.0,63,0.00,,,0.00,VWS V14.01,2013-01-19 06:18:00,
2013-01-19 01:19:00,25.6,14.8,30.35,SW,227,1.0,8.0,63,0.00,,,0.00,VWS V14.01,2013-01-19 06:19:00,
2013-01-19 01:20:00,25.6,14.8,30.35,SSW,212,3.0,13.0,63,0.00,,,0.00,VWS V14.01,2013-01-19 06:20:00,
2013-01-19 01:21:00,25.6,14.8,30.35,WSW,237,4.0,6.0,63,0.00,,,0.00,VWS V14.01,2013-01-19 06:21:00,
2013-01-19 01:22:00,25.6,14.8,30.35,WSW,237,4.0,6.0,63,0.00,,,0.00,VWS V14.01,2013-01-19 06:22:00,
2013-01-19 01:23:00,25.6,14.8,30.35,WSW,237,4.0,6.0,63,0.00,,,0.00,VWS V14.01,2013-01-19 06:23:00,
2013-01-19 01:24:00,25.7,14.9,30.35,WSW,255,0.0,6.0,63,0.00,,,0.00,VWS V14.01,2013-01-19 06:24:00,
2013-01-19 01:25:00,25.7,14.9,30.35,WSW,255,2.0,6.0,63,0.00,,,0.00,VWS V14.01,2013-01-19 06:25:00,
2013-01-19 01:26:00,25.7,14.9,30.35,West,265,2.0,6.0,63,0.00,,,0.00,VWS V14.01,2013-01-19 06:26:00,
2013-01-19 01:27:00,25.7,14.9,30.35,West,265,2.0,6.0,63,0.00,,,0.00,VWS V14.01,2013-01-19 06:27:00,
2013-01-19 01:28:00,25.7,14.9,30.35,West,265,2.0,6.0,63,0.00,,,0.00,VWS V14.01,2013-01-19 06:28:00,
2013-01-19 01:29:00,25.7,14.9,30.35,WNW,284,1.0,6.0,63,0.00,,,0.00,VWS V14.01,2013-01-19 06:29:00,
2013-01-19 01:30:00,25.7,14.9,30.34,WNW,284,0.0,6.0,63,0.00,,,0.00,VWS V14.01,2013-01-19 06:30:00,
2013-01-19 01:31:00,25.7,14.9,30.34,WNW,284,1.0,3.0,63,0.00,,,0.00,VWS V14.01,2013-01-19 06:31:00,
2013-01-19 01:32:00,25.7,14.9,30.34,WNW,284,1.0,3.0,63,0.00,,,0.00,VWS V14.01,2013-01-19 06:32:00,
2013-01-19 01:33:00,25.7,14.9,30.34,WNW,284,1.0,3.0,63,0.00,,,0.00,VWS V14.01,2013-01-19 06:33:00,
2013-01-19 01:34:00,25.7,14.9,30.34,SW,223,1.0,3.0,63,0.00,,,0.00,VWS V14.01,2013-01-19 06:34:00,
2013-01-19 01:35:00,25.7,15.2,30.34,SW,236,4.0,6.0,64,0.00,,,0.00,VWS V14.01,2013-01-19 06:35:00,
2013-01-19 01:36:00,25.7,14.9,30.34,SW,219,7.0,7.0,63,0.00,,,0.00,VWS V14.01,2013-01-19 06:36:00,
2013-01-19 01:37:00,25.7,14.9,30.34,West,279,6.0,7.0,63,0.00,,,0.00,VWS V14.01,2013-01-19 06:37:00,
2013-01-19 01:38:00,25.7,14.9,30.34,West,279,6.0,7.0,63,0.00,,,0.00,VWS V14.01,2013-01-19 06:38:00,
2013-01-19 01:39:00,25.7,14.9,30.34,West,262,0.0,7.0,63,0.00,,,0.00,VWS V14.01,2013-01-19 06:39:00,
2013-01-19 01:40:00,25.7,14.9,30.34,West,262,1.0,7.0,63,0.00,,,0.00,VWS V14.01,2013-01-19 06:40:00,
2013-01-19 01:41:00,25.7,14.9,30.34,SSW,208,5.0,5.0,63,0.00,,,0.00,VWS V14.01,2013-01-19 06:41:00,
2013-01-19 01:42:00,25.7,14.9,30.34,SSW,208,5.0,5.0,63,0.00,,,0.00,VWS V14.01,2013-01-19 06:42:00,
2013-01-19 01:43:00,25.7,14.9,30.34,SSW,208,5.0,5.0,63,0.00,,,0.00,VWS V14.01,2013-01-19 06:43:00,
2013-01-19 01:44:00,25.7,14.9,30.34,WSW,257,2.0,5.0,63,0.00,,,0.00,VWS V14.01,2013-01-19 06:44:00,
2013-01-19 01:45:00,25.7,14.9,30.34,WNW,286,7.0,7.0,63,0.00,,,0.00,VWS V14.01,2013-01-19 06:45:00,
2013-01-19 01:46:00,25.7,14.9,30.34,SW,221,5.0,9.0,63,0.00,,,0.00,VWS V14.01,2013-01-19 06:46:00,
2013-01-19 01:47:00,25.7,14.9,30.34,SW,221,5.0,9.0,63,0.00,,,0.00,VWS V14.01,2013-01-19 06:47:00,
2013-01-19 01:48:00,25.7,14.9,30.34,SW,221,5.0,9.0,63,0.00,,,0.00,VWS V14.01,2013-01-19 06:48:00,
2013-01-19 01:49:00,25.8,15.0,30.34,SSW,213,1.0,9.0,63,0.00,,,0.00,VWS V14.01,2013-01-19 06:49:00,
2013-01-19 01:50:00,25.8,15.0,30.34,West,268,4.0,9.0,63,0.00,,,0.00,VWS V14.01,2013-01-19 06:50:00,
2013-01-19 01:51:00,25.8,15.0,30.34,SSW,211,3.0,6.0,63,0.00,,,0.00,VWS V14.01,2013-01-19 06:51:00,
2013-01-19 01:52:00,25.8,15.0,30.34,SSW,212,2.0,6.0,63,0.00,,,0.00,VWS V14.01,2013-01-19 06:52:00,
2013-01-19 01:53:00,25.8,15.0,30.34,SSW,212,2.0,6.0,63,0.00,,,0.00,VWS V14.01,2013-01-19 06:53:00,
2013-01-19 01:54:00,25.8,15.3,30.34,WSW,258,5.0,6.0,64,0.00,,,0.00,VWS V14.01,2013-01-19 06:54:00,
2013-01-19 01:55:00,25.8,15.3,30.34,SSW,210,3.0,7.0,64,0.00,,,0.00,VWS V14.01,2013-01-19 06:55:00,
2013-01-19 01:56:00,25.8,15.0,30.34,SW,233,4.0,8.0,63,0.00,,,0.00,VWS V14.01,2013-01-19 06:56:00,
2013-01-19 01:57:00,25.8,15.0,30.34,SW,233,4.0,8.0,63,0.00,,,0.00,VWS V14.01,2013-01-19 06:57:00,
2013-01-19 01:58:00,25.8,15.0,30.34,SW,233,4.0,8.0,63,0.00,,,0.00,VWS V14.01,2013-01-19 06:58:00,
2013-01-19 01:59:00,25.9,15.1,30.34,SW,225,3.0,8.0,63,0.00,,,0.00,VWS V14.01,2013-01-19 06:59:00,
2013-01-19 02:00:00,26.0,15.1,30.33,West,259,3.0,8.0,63,0.00,,,0.00,VWS V14.01,2013-01-19 07:00:00,
2013-01-19 02:01:00,26.0,15.1,30.33,WSW,250,4.0,4.0,63,0.00,,,0.00,VWS V14.01,2013-01-19 07:01:00,
2013-01-19 02:02:00,26.0,15.1,30.33,WSW,257,4.0,4.0,63,0.00,,,0.00,VWS V14.01,2013-01-19 07:02:00,
2013-01-19 02:03:00,26.0,15.1,30.33,WSW,257,4.0,4.0,63,0.00,,,0.00,VWS V14.01,2013-01-19 07:03:00,
2013-01-19 02:04:00,26.1,15.2,30.33,SW,215,0.0,4.0,63,0.00,,,0.00,VWS V14.01,2013-01-19 07:04:00,
2013-01-19 02:05:00,26.1,15.2,30.33,South,184,5.0,6.0,63,0.00,,,0.00,VWS V14.01,2013-01-19 07:05:00,
2013-01-19 02:06:00,26.1,15.2,30.33,SW,223,1.0,6.0,63,0.00,,,0.00,VWS V14.01,2013-01-19 07:06:00,
2013-01-19 02:07:00,26.1,15.2,30.33,SW,223,1.0,6.0,63,0.00,,,0.00,VWS V14.01,2013-01-19 07:07:00,
2013-01-19 02:08:00,26.1,15.2,30.33,SW,223,1.0,6.0,63,0.00,,,0.00,VWS V14.01,2013-01-19 07:08:00,
2013-01-19 02:09:00,26.1,15.2,30.33,SSW,200,4.0,7.0,63,0.00,,,0.00,VWS V14.01,2013-01-19 07:09:00,
2013-01-19 02:10:00,26.1,15.2,30.33,SSW,202,0.0,7.0,63,0.00,,,0.00,VWS V14.01,2013-01-19 07:10:00,
2013-01-19 02:11:00,26.1,15.2,30.33,NW,312,0.0,4.0,63,0.00,,,0.00,VWS V14.01,2013-01-19 07:11:00,
2013-01-19 02:12:00,26.1,15.2,30.33,NW,312,0.0,4.0,63,0.00,,,0.00,VWS V14.01,2013-01-19 07:12:00,
2013-01-19 02:13:00,26.1,15.2,30.33,NW,312,0.0,4.0,63,0.00,,,0.00,VWS V14.01,2013-01-19 07:13:00,
2013-01-19 02:14:00,26.1,15.2,30.33,WNW,298,0.0,4.0,63,0.00,,,0.00,VWS V14.01,2013-01-19 07:14:00,
2013-01-19 02:15:00,26.1,15.2,30.33,SW,218,2.0,4.0,63,0.00,,,0.00,VWS V14.01,2013-01-19 07:15:00,
2013-01-19 02:16:00,26.1,15.2,30.33,SW,217,2.0,6.0,63,0.00,,,0.00,VWS V14.01,2013-01-19 07:16:00,
2013-01-19 02:17:00,26.1,15.2,30.33,SW,217,2.0,6.0,63,0.00,,,0.00,VWS V14.01,2013-01-19 07:17:00,
2013-01-19 02:18:00,26.1,15.2,30.33,SW,217,2.0,6.0,63,0.00,,,0.00,VWS V14.01,2013-01-19 07:18:00,
2013-01-19 02:19:00,26.1,15.6,30.33,WSW,257,3.0,6.0,64,0.00,,,0.00,VWS V14.01,2013-01-19 07:19:00,
2013-01-19 02:20:00,26.1,15.6,30.33,SSW,210,0.0,6.0,64,0.00,,,0.00,VWS V14.01,2013-01-19 07:20:00,
2013-01-19 02:21:00,26.1,15.6,30.33,WSW,254,8.0,8.0,64,0.00,,,0.00,VWS V14.01,2013-01-19 07:21:00,
2013-01-19 02:22:00,26.1,15.6,30.33,WSW,247,6.0,8.0,64,0.00,,,0.00,VWS V14.01,2013-01-19 07:22:00,
2013-01-19 02:23:00,26.1,15.6,30.33,WSW,247,6.0,8.0,64,0.00,,,0.00,VWS V14.01,2013-01-19 07:23:00,
2013-01-19 02:24:00,26.1,15.6,30.33,SW,231,8.0,8.0,64,0.00,,,0.00,VWS V14.01,2013-01-19 07:24:00,
2013-01-19 02:25:00,26.1,15.6,30.33,West,260,5.0,11.0,64,0.00,,,0.00,VWS V14.01,2013-01-19 07:25:00,
2013-01-19 02:26:00,26.1,15.6,30.33,SSW,199,5.0,11.0,64,0.00,,,0.00,VWS V14.01,2013-01-19 07:26:00,
2013-01-19 02:27:00,26.2,15.7,30.33,SSW,200,6.0,11.0,64,0.00,,,0.00,VWS V14.01,2013-01-19 07:27:00,
2013-01-19 02:28:00,26.2,15.7,30.33,SSW,200,6.0,11.0,64,0.00,,,0.00,VWS V14.01,2013-01-19 07:28:00,
2013-01-19 02:29:00,26.2,15.7,30.33,SSW,198,5.0,11.0,64,0.00,,,0.00,VWS V14.01,2013-01-19 07:29:00,
2013-01-19 02:30:00,26.2,16.1,30.33,West,275,0.0,11.0,65,0.00,,,0.00,VWS V14.01,2013-01-19 07:30:00,
2013-01-19 02:31:00,26.2,16.1,30.33,SW,219,4.0,5.0,65,0.00,,,0.00,VWS V14.01,2013-01-19 07:31:00,
2013-01-19 02:32:00,26.2,16.1,30.33,WSW,240,2.0,5.0,65,0.00,,,0.00,VWS V14.01,2013-01-19 07:32:00,
2013-01-19 02:33:00,26.2,16.1,30.33,WSW,240,2.0,5.0,65,0.00,,,0.00,VWS V14.01,2013-01-19 07:33:00,
2013-01-19 02:34:00,26.2,15.7,30.33,WSW,246,2.0,5.0,64,0.00,,,0.00,VWS V14.01,2013-01-19 07:34:00,
2013-01-19 02:35:00,26.2,16.1,30.33,WSW,246,0.0,5.0,65,0.00,,,0.00,VWS V14.01,2013-01-19 07:35:00,
2013-01-19 02:36:00,26.2,15.7,30.33,West,263,0.0,5.0,64,0.00,,,0.00,VWS V14.01,2013-01-19 07:36:00,
2013-01-19 02:37:00,26.2,15.7,30.33,West,263,0.0,5.0,64,0.00,,,0.00,VWS V14.01,2013-01-19 07:37:00,
2013-01-19 02:38:00,26.2,15.7,30.33,West,263,0.0,5.0,64,0.00,,,0.00,VWS V14.01,2013-01-19 07:38:00,
2013-01-19 02:39:00,26.2,16.1,30.33,West,259,7.0,7.0,65,0.00,,,0.00,VWS V14.01,2013-01-19 07:39:00,
2013-01-19 02:40:00,26.2,16.1,30.33,SW,236,4.0,8.0,65,0.00,,,0.00,VWS V14.01,2013-01-19 07:40:00,
2013-01-19 02:41:00,26.2,16.1,30.33,SSW,202,5.0,6.0,65,0.00,,,0.00,VWS V14.01,2013-01-19 07:41:00,
2013-01-19 02:42:00,26.2,16.1,30.33,SSW,202,5.0,6.0,65,0.00,,,0.00,VWS V14.01,2013-01-19 07:42:00,
2013-01-19 02:43:00,26.2,16.1,30.33,SSW,202,5.0,6.0,65,0.00,,,0.00,VWS V14.01,2013-01-19 07:43:00,
2013-01-19 02:44:00,26.2,16.1,30.33,West,281,10.0,10.0,65,0.00,,,0.00,VWS V14.01,2013-01-19 07:44:00,
2013-01-19 02:45:00,26.2,16.1,30.31,SW,230,4.0,10.0,65,0.00,,,0.00,VWS V14.01,2013-01-19 07:45:00,
2013-01-19 02:46:00,26.2,16.1,30.31,West,279,2.0,10.0,65,0.00,,,0.00,VWS V14.01,2013-01-19 07:46:00,
2013-01-19 02:47:00,26.2,16.1,30.31,West,279,0.0,10.0,65,0.00,,,0.00,VWS V14.01,2013-01-19 07:47:00,
2013-01-19 02:48:00,26.2,16.1,30.31,West,279,0.0,10.0,65,0.00,,,0.00,VWS V14.01,2013-01-19 07:48:00,
2013-01-19 02:49:00,26.2,16.1,30.31,SW,223,2.0,10.0,65,0.00,,,0.00,VWS V14.01,2013-01-19 07:49:00,
2013-01-19 02:50:00,26.2,16.1,30.31,SW,232,2.0,10.0,65,0.00,,,0.00,VWS V14.01,2013-01-19 07:50:00,
2013-01-19 02:51:00,26.2,16.1,30.31,SW,215,3.0,6.0,65,0.00,,,0.00,VWS V14.01,2013-01-19 07:51:00,
2013-01-19 02:52:00,26.2,16.1,30.31,SW,215,3.0,6.0,65,0.00,,,0.00,VWS V14.01,2013-01-19 07:52:00,
2013-01-19 02:53:00,26.2,16.1,30.31,SW,215,3.0,6.0,65,0.00,,,0.00,VWS V14.01,2013-01-19 07:53:00,
2013-01-19 02:54:00,26.2,16.4,30.31,WSW,240,5.0,10.0,66,0.00,,,0.00,VWS V14.01,2013-01-19 07:54:00,
2013-01-19 02:55:00,26.2,16.4,30.31,West,265,5.0,10.0,66,0.00,,,0.00,VWS V14.01,2013-01-19 07:55:00,
2013-01-19 02:56:00,26.2,16.4,30.31,SSW,196,6.0,10.0,66,0.00,,,0.00,VWS V14.01,2013-01-19 07:56:00,
2013-01-19 02:57:00,26.2,16.4,30.31,SSW,196,6.0,10.0,66,0.00,,,0.00,VWS V14.01,2013-01-19 07:57:00,
2013-01-19 02:58:00,26.2,16.4,30.31,SSW,196,6.0,10.0,66,0.00,,,0.00,VWS V14.01,2013-01-19 07:58:00,
2013-01-19 02:59:00,26.2,16.4,30.31,SW,227,0.0,10.0,66,0.00,,,0.00,VWS V14.01,2013-01-19 07:59:00,
2013-01-19 03:00:00,26.2,16.4,30.31,WSW,243,2.0,10.0,66,0.00,,,0.00,VWS V14.01,2013-01-19 08:00:00,
2013-01-19 03:01:00,26.2,16.4,30.31,WSW,243,1.0,1.0,66,0.00,,,0.00,VWS V14.01,2013-01-19 08:01:00,
2013-01-19 03:02:00,26.2,16.4,30.31,WSW,243,1.0,1.0,66,0.00,,,0.00,VWS V14.01,2013-01-19 08:02:00,
2013-01-19 03:03:00,26.2,16.4,30.31,WSW,243,1.0,1.0,66,0.00,,,0.00,VWS V14.01,2013-01-19 08:03:00,
2013-01-19 03:04:00,26.2,16.4,30.31,WSW,249,3.0,3.0,66,0.00,,,0.00,VWS V14.01,2013-01-19 08:04:00,
2013-01-19 03:05:00,26.2,16.4,30.31,WSW,255,3.0,4.0,66,0.00,,,0.00,VWS V14.01,2013-01-19 08:05:00,
2013-01-19 03:06:00,26.2,16.4,30.31,West,269,2.0,6.0,66,0.00,,,0.00,VWS V14.01,2013-01-19 08:06:00,
2013-01-19 03:07:00,26.2,16.4,30.31,West,269,2.0,6.0,66,0.00,,,0.00,VWS V14.01,2013-01-19 08:07:00,
2013-01-19 03:08:00,26.2,16.4,30.31,West,269,2.0,6.0,66,0.00,,,0.00,VWS V14.01,2013-01-19 08:08:00,
2013-01-19 03:09:00,26.2,16.4,30.31,SSW,200,3.0,6.0,66,0.00,,,0.00,VWS V14.01,2013-01-19 08:09:00,
2013-01-19 03:10:00,26.2,16.4,30.31,West,269,5.0,6.0,66,0.00,,,0.00,VWS V14.01,2013-01-19 08:10:00,
2013-01-19 03:11:00,26.2,16.4,30.31,SSW,205,5.0,8.0,66,0.00,,,0.00,VWS V14.01,2013-01-19 08:11:00,
2013-01-19 03:12:00,26.1,16.3,30.31,South,188,6.0,8.0,66,0.00,,,0.00,VWS V14.01,2013-01-19 08:12:00,
2013-01-19 03:13:00,26.1,16.3,30.31,South,188,6.0,8.0,66,0.00,,,0.00,VWS V14.01,2013-01-19 08:13:00,
2013-01-19 03:14:00,26.1,16.3,30.31,WSW,252,4.0,8.0,66,0.00,,,0.00,VWS V14.01,2013-01-19 08:14:00,
2013-01-19 03:15:00,26.1,16.3,30.31,WSW,250,1.0,8.0,66,0.00,,,0.00,VWS V14.01,2013-01-19 08:15:00,
2013-01-19 03:16:00,26.1,16.3,30.31,SW,218,2.0,8.0,66,0.00,,,0.00,VWS V14.01,2013-01-19 08:16:00,
2013-01-19 03:17:00,26.1,16.3,30.31,SW,218,2.0,8.0,66,0.00,,,0.00,VWS V14.01,2013-01-19 08:17:00,
2013-01-19 03:18:00,26.1,16.3,30.31,SW,218,2.0,8.0,66,0.00,,,0.00,VWS V14.01,2013-01-19 08:18:00,
2013-01-19 03:19:00,26.1,16.3,30.31,West,269,2.0,8.0,66,0.00,,,0.00,VWS V14.01,2013-01-19 08:19:00,
2013-01-19 03:20:00,26.1,16.3,30.31,WNW,288,3.0,8.0,66,0.00,,,0.00,VWS V14.01,2013-01-19 08:20:00,
2013-01-19 03:21:00,26.1,16.3,30.31,SW,235,2.0,2.0,66,0.00,,,0.00,VWS V14.01,2013-01-19 08:21:00,
2013-01-19 03:22:00,26.1,16.3,30.31,SW,235,2.0,2.0,66,0.00,,,0.00,VWS V14.01,2013-01-19 08:22:00,
2013-01-19 03:23:00,26.1,16.3,30.31,SW,235,2.0,2.0,66,0.00,,,0.00,VWS V14.01,2013-01-19 08:23:00,
2013-01-19 03:24:00,26.1,16.7,30.31,SW,229,3.0,3.0,67,0.00,,,0.00,VWS V14.01,2013-01-19 08:24:00,
2013-01-19 03:25:00,26.1,16.7,30.31,SW,234,0.0,3.0,67,0.00,,,0.00,VWS V14.01,2013-01-19 08:25:00,
2013-01-19 03:26:00,26.1,16.7,30.31,SW,234,0.0,3.0,67,0.00,,,0.00,VWS V14.01,2013-01-19 08:26:00,
2013-01-19 03:27:00,26.1,16.7,30.31,SW,234,0.0,3.0,67,0.00,,,0.00,VWS V14.01,2013-01-19 08:27:00,
2013-01-19 03:28:00,26.1,16.7,30.31,SW,234,0.0,3.0,67,0.00,,,0.00,VWS V14.01,2013-01-19 08:28:00,
2013-01-19 03:29:00,26.1,17.0,30.31,SSW,203,1.0,3.0,68,0.00,,,0.00,VWS V14.01,2013-01-19 08:29:00,
2013-01-19 03:30:00,26.1,17.0,30.31,WSW,248,5.0,5.0,68,0.00,,,0.00,VWS V14.01,2013-01-19 08:30:00,
2013-01-19 03:31:00,26.1,17.0,30.31,SW,236,3.0,4.0,68,0.00,,,0.00,VWS V14.01,2013-01-19 08:31:00,
2013-01-19 03:32:00,26.1,17.0,30.31,SW,236,2.0,4.0,68,0.00,,,0.00,VWS V14.01,2013-01-19 08:32:00,
2013-01-19 03:33:00,26.1,17.0,30.31,SW,236,2.0,4.0,68,0.00,,,0.00,VWS V14.01,2013-01-19 08:33:00,
2013-01-19 03:34:00,26.1,17.0,30.31,SW,235,0.0,4.0,68,0.00,,,0.00,VWS V14.01,2013-01-19 08:34:00,
2013-01-19 03:35:00,26.0,16.9,30.31,SSW,200,6.0,6.0,68,0.00,,,0.00,VWS V14.01,2013-01-19 08:35:00,
2013-01-19 03:36:00,26.0,16.9,30.31,SSW,198,4.0,6.0,68,0.00,,,0.00,VWS V14.01,2013-01-19 08:36:00,
2013-01-19 03:37:00,26.0,16.9,30.31,SSW,198,4.0,6.0,68,0.00,,,0.00,VWS V14.01,2013-01-19 08:37:00,
2013-01-19 03:38:00,26.0,16.9,30.31,SSW,198,4.0,6.0,68,0.00,,,0.00,VWS V14.01,2013-01-19 08:38:00,
2013-01-19 03:39:00,26.1,17.0,30.31,SW,236,0.0,6.0,68,0.00,,,0.00,VWS V14.01,2013-01-19 08:39:00,
2013-01-19 03:40:00,26.1,17.0,30.31,SW,236,0.0,6.0,68,0.00,,,0.00,VWS V14.01,2013-01-19 08:40:00,
2013-01-19 03:41:00,26.1,17.0,30.31,SW,236,1.0,1.0,68,0.00,,,0.00,VWS V14.01,2013-01-19 08:41:00,
2013-01-19 03:42:00,26.1,17.0,30.31,SW,236,1.0,1.0,68,0.00,,,0.00,VWS V14.01,2013-01-19 08:42:00,
2013-01-19 03:43:00,26.1,17.0,30.31,SW,236,1.0,1.0,68,0.00,,,0.00,VWS V14.01,2013-01-19 08:43:00,
2013-01-19 03:44:00,26.1,17.0,30.31,SW,215,5.0,5.0,68,0.00,,,0.00,VWS V14.01,2013-01-19 08:44:00,
2013-01-19 03:45:00,26.1,17.0,30.31,SW,227,3.0,5.0,68,0.00,,,0.00,VWS V14.01,2013-01-19 08:45:00,
2013-01-19 03:46:00,26.1,17.0,30.31,SSW,208,3.0,5.0,68,0.00,,,0.00,VWS V14.01,2013-01-19 08:46:00,
2013-01-19 03:47:00,26.1,17.0,30.31,West,279,5.0,5.0,68,0.00,,,0.00,VWS V14.01,2013-01-19 08:47:00,
2013-01-19 03:48:00,26.1,17.0,30.31,West,279,5.0,5.0,68,0.00,,,0.00,VWS V14.01,2013-01-19 08:48:00,
2013-01-19 03:49:00,26.1,17.0,30.31,West,271,4.0,5.0,68,0.00,,,0.00,VWS V14.01,2013-01-19 08:49:00,
2013-01-19 03:50:00,26.1,17.0,30.31,West,264,3.0,5.0,68,0.00,,,0.00,VWS V14.01,2013-01-19 08:50:00,
2013-01-19 03:51:00,26.1,17.0,30.31,WSW,257,2.0,3.0,68,0.00,,,0.00,VWS V14.01,2013-01-19 08:51:00,
2013-01-19 03:52:00,26.1,17.0,30.31,WSW,257,3.0,3.0,68,0.00,,,0.00,VWS V14.01,2013-01-19 08:52:00,
2013-01-19 03:53:00,26.1,17.0,30.31,WSW,257,3.0,3.0,68,0.00,,,0.00,VWS V14.01,2013-01-19 08:53:00,
2013-01-19 03:54:00,26.0,16.9,30.31,WSW,238,2.0,3.0,68,0.00,,,0.00,VWS V14.01,2013-01-19 08:54:00,
2013-01-19 03:55:00,26.0,17.2,30.31,SSW,197,2.0,4.0,69,0.00,,,0.00,VWS V14.01,2013-01-19 08:55:00,
2013-01-19 03:56:00,26.0,17.2,30.31,WSW,252,2.0,4.0,69,0.00,,,0.00,VWS V14.01,2013-01-19 08:56:00,
2013-01-19 03:57:00,26.0,17.2,30.31,WSW,252,2.0,4.0,69,0.00,,,0.00,VWS V14.01,2013-01-19 08:57:00,
2013-01-19 03:58:00,26.0,17.2,30.31,WSW,252,2.0,4.0,69,0.00,,,0.00,VWS V14.01,2013-01-19 08:58:00,
2013-01-19 03:59:00,26.0,17.2,30.31,WSW,242,3.0,4.0,69,0.00,,,0.00,VWS V14.01,2013-01-19 08:59:00,
2013-01-19 04:00:00,26.0,17.2,30.30,WSW,252,3.0,4.0,69,0.00,,,0.00,VWS V14.01,2013-01-19 09:00:00,
2013-01-19 04:01:00,26.0,17.2,30.30,WSW,252,1.0,2.0,69,0.00,,,0.00,VWS V14.01,2013-01-19 09:01:00,
2013-01-19 04:02:00,26.0,17.2,30.30,WSW,252,1.0,2.0,69,0.00,,,0.00,VWS V14.01,2013-01-19 09:02:00,
2013-01-19 04:03:00,26.0,17.2,30.30,WSW,252,1.0,2.0,69,0.00,,,0.00,VWS V14.01,2013-01-19 09:03:00,
2013-01-19 04:04:00,26.0,17.2,30.30,WSW,243,1.0,5.0,69,0.00,,,0.00,VWS V14.01,2013-01-19 09:04:00,
2013-01-19 04:05:00,25.9,17.1,30.30,WSW,258,0.0,5.0,69,0.00,,,0.00,VWS V14.01,2013-01-19 09:05:00,
2013-01-19 04:06:00,25.9,17.1,30.30,West,259,0.0,5.0,69,0.00,,,0.00,VWS V14.01,2013-01-19 09:06:00,
2013-01-19 04:07:00,26.0,17.2,30.30,West,259,0.0,5.0,69,0.00,,,0.00,VWS V14.01,2013-01-19 09:07:00,
2013-01-19 04:08:00,26.0,17.2,30.30,West,259,0.0,5.0,69,0.00,,,0.00,VWS V14.01,2013-01-19 09:08:00,
2013-01-19 04:09:00,25.9,17.1,30.30,SW,221,2.0,5.0,69,0.00,,,0.00,VWS V14.01,2013-01-19 09:09:00,
2013-01-19 04:10:00,25.9,17.1,30.30,West,259,0.0,6.0,69,0.00,,,0.00,VWS V14.01,2013-01-19 09:10:00,
2013-01-19 04:11:00,25.9,17.1,30.30,West,259,2.0,3.0,69,0.00,,,0.00,VWS V14.01,2013-01-19 09:11:00,
2013-01-19 04:12:00,25.9,17.1,30.30,West,259,2.0,3.0,69,0.00,,,0.00,VWS V14.01,2013-01-19 09:12:00,
2013-01-19 04:13:00,25.9,17.1,30.30,West,259,2.0,3.0,69,0.00,,,0.00,VWS V14.01,2013-01-19 09:13:00,
2013-01-19 04:14:00,25.9,17.5,30.30,SW,232,4.0,4.0,70,0.00,,,0.00,VWS V14.01,2013-01-19 09:14:00,
2013-01-19 04:15:00,25.8,17.4,30.30,WSW,246,3.0,5.0,70,0.00,,,0.00,VWS V14.01,2013-01-19 09:15:00,
2013-01-19 04:16:00,25.8,17.4,30.30,West,265,0.0,5.0,70,0.00,,,0.00,VWS V14.01,2013-01-19 09:16:00,
2013-01-19 04:17:00,25.8,17.4,30.30,West,265,0.0,5.0,70,0.00,,,0.00,VWS V14.01,2013-01-19 09:17:00,
2013-01-19 04:18:00,25.8,17.4,30.30,West,265,0.0,5.0,70,0.00,,,0.00,VWS V14.01,2013-01-19 09:18:00,
2013-01-19 04:19:00,25.8,17.4,30.30,SSW,202,0.0,5.0,70,0.00,,,0.00,VWS V14.01,2013-01-19 09:19:00,
2013-01-19 04:20:00,25.8,17.4,30.30,SW,234,3.0,7.0,70,0.00,,,0.00,VWS V14.01,2013-01-19 09:20:00,
2013-01-19 04:21:00,25.8,17.4,30.30,WSW,240,3.0,6.0,70,0.00,,,0.00,VWS V14.01,2013-01-19 09:21:00,
2013-01-19 04:22:00,25.8,17.4,30.30,WSW,240,3.0,6.0,70,0.00,,,0.00,VWS V14.01,2013-01-19 09:22:00,
2013-01-19 04:23:00,25.8,17.4,30.30,WSW,240,3.0,6.0,70,0.00,,,0.00,VWS V14.01,2013-01-19 09:23:00,
2013-01-19 04:24:00,25.8,17.4,30.30,SW,215,1.0,6.0,70,0.00,,,0.00,VWS V14.01,2013-01-19 09:24:00,
2013-01-19 04:25:00,25.8,17.4,30.30,SW,215,0.0,6.0,70,0.00,,,0.00,VWS V14.01,2013-01-19 09:25:00,
2013-01-19 04:26:00,25.8,17.7,30.30,WSW,257,5.0,6.0,71,0.00,,,0.00,VWS V14.01,2013-01-19 09:26:00,
2013-01-19 04:27:00,25.8,17.7,30.30,WSW,258,3.0,6.0,71,0.00,,,0.00,VWS V14.01,2013-01-19 09:27:00,
2013-01-19 04:28:00,25.8,17.7,30.30,WSW,258,3.0,6.0,71,0.00,,,0.00,VWS V14.01,2013-01-19 09:28:00,
2013-01-19 04:29:00,25.8,17.7,30.30,SW,217,5.0,6.0,71,0.00,,,0.00,VWS V14.01,2013-01-19 09:29:00,
2013-01-19 04:30:00,25.8,17.7,30.30,SSW,209,2.0,6.0,71,0.00,,,0.00,VWS V14.01,2013-01-19 09:30:00,
2013-01-19 04:31:00,25.8,17.7,30.30,SSW,210,0.0,2.0,71,0.00,,,0.00,VWS V14.01,2013-01-19 09:31:00,
2013-01-19 04:32:00,25.8,17.7,30.30,SSW,210,0.0,2.0,71,0.00,,,0.00,VWS V14.01,2013-01-19 09:32:00,
2013-01-19 04:33:00,25.8,17.7,30.30,SSW,210,0.0,2.0,71,0.00,,,0.00,VWS V14.01,2013-01-19 09:33:00,
2013-01-19 04:34:00,25.8,17.7,30.30,SW,217,0.0,2.0,71,0.00,,,0.00,VWS V14.01,2013-01-19 09:34:00,
2013-01-19 04:35:00,25.9,17.8,30.30,SW,217,2.0,4.0,71,0.00,,,0.00,VWS V14.01,2013-01-19 09:35:00,
2013-01-19 04:36:00,25.9,17.8,30.30,SSW,212,5.0,5.0,71,0.00,,,0.00,VWS V14.01,2013-01-19 09:36:00,
2013-01-19 04:37:00,25.9,17.8,30.30,SSW,212,5.0,5.0,71,0.00,,,0.00,VWS V14.01,2013-01-19 09:37:00,
2013-01-19 04:38:00,25.9,17.8,30.30,SSW,212,5.0,5.0,71,0.00,,,0.00,VWS V14.01,2013-01-19 09:38:00,
2013-01-19 04:39:00,25.9,18.1,30.30,South,177,1.0,5.0,72,0.00,,,0.00,VWS V14.01,2013-01-19 09:39:00,
2013-01-19 04:40:00,25.9,18.1,30.30,WNW,292,3.0,5.0,72,0.00,,,0.00,VWS V14.01,2013-01-19 09:40:00,
2013-01-19 04:41:00,25.9,18.1,30.30,SW,224,1.0,4.0,72,0.00,,,0.00,VWS V14.01,2013-01-19 09:41:00,
2013-01-19 04:42:00,25.9,18.1,30.30,SW,224,1.0,4.0,72,0.00,,,0.00,VWS V14.01,2013-01-19 09:42:00,
2013-01-19 04:43:00,25.9,18.1,30.30,SW,224,1.0,4.0,72,0.00,,,0.00,VWS V14.01,2013-01-19 09:43:00,
2013-01-19 04:44:00,26.0,18.2,30.30,West,271,4.0,7.0,72,0.00,,,0.00,VWS V14.01,2013-01-19 09:44:00,
2013-01-19 04:45:00,26.0,18.2,30.29,West,270,0.0,7.0,72,0.00,,,0.00,VWS V14.01,2013-01-19 09:45:00,
2013-01-19 04:46:00,26.0,18.2,30.29,WSW,241,6.0,7.0,72,0.00,,,0.00,VWS V14.01,2013-01-19 09:46:00,
2013-01-19 04:47:00,26.0,18.2,30.29,WSW,241,6.0,7.0,72,0.00,,,0.00,VWS V14.01,2013-01-19 09:47:00,
2013-01-19 04:48:00,26.0,18.2,30.29,WSW,241,6.0,7.0,72,0.00,,,0.00,VWS V14.01,2013-01-19 09:48:00,
2013-01-19 04:49:00,26.0,18.2,30.29,West,271,0.0,7.0,72,0.00,,,0.00,VWS V14.01,2013-01-19 09:49:00,
2013-01-19 04:50:00,26.1,18.3,30.29,West,270,1.0,7.0,72,0.00,,,0.00,VWS V14.01,2013-01-19 09:50:00,
2013-01-19 04:51:00,26.1,18.3,30.29,West,273,0.0,5.0,72,0.00,,,0.00,VWS V14.01,2013-01-19 09:51:00,
2013-01-19 04:52:00,26.1,18.3,30.29,West,273,0.0,5.0,72,0.00,,,0.00,VWS V14.01,2013-01-19 09:52:00,
2013-01-19 04:53:00,26.1,18.3,30.29,West,273,0.0,5.0,72,0.00,,,0.00,VWS V14.01,2013-01-19 09:53:00,
2013-01-19 04:54:00,26.1,18.6,30.29,SW,225,1.0,5.0,73,0.00,,,0.00,VWS V14.01,2013-01-19 09:54:00,
2013-01-19 04:55:00,26.1,18.6,30.29,SW,225,0.0,5.0,73,0.00,,,0.00,VWS V14.01,2013-01-19 09:55:00,
2013-01-19 04:56:00,26.1,18.6,30.29,SW,225,0.0,5.0,73,0.00,,,0.00,VWS V14.01,2013-01-19 09:56:00,
2013-01-19 04:57:00,26.1,18.6,30.29,SW,225,0.0,5.0,73,0.00,,,0.00,VWS V14.01,2013-01-19 09:57:00,
2013-01-19 04:58:00,26.1,18.6,30.29,SW,225,0.0,5.0,73,0.00,,,0.00,VWS V14.01,2013-01-19 09:58:00,
2013-01-19 04:59:00,26.2,18.7,30.29,West,265,0.0,5.0,73,0.00,,,0.00,VWS V14.01,2013-01-19 09:59:00,
2013-01-19 05:00:00,26.2,18.7,30.29,SSW,202,6.0,6.0,73,0.00,,,0.00,VWS V14.01,2013-01-19 10:00:00,
2013-01-19 05:01:00,26.2,18.7,30.29,SSW,213,4.0,5.0,73,0.00,,,0.00,VWS V14.01,2013-01-19 10:01:00,
2013-01-19 05:02:00,26.2,18.7,30.29,SSW,213,4.0,5.0,73,0.00,,,0.00,VWS V14.01,2013-01-19 10:02:00,
2013-01-19 05:03:00,26.2,18.7,30.29,SSW,213,4.0,5.0,73,0.00,,,0.00,VWS V14.01,2013-01-19 10:03:00,
2013-01-19 05:04:00,26.3,18.8,30.29,WSW,251,3.0,5.0,73,0.00,,,0.00,VWS V14.01,2013-01-19 10:04:00,
2013-01-19 05:05:00,26.3,19.1,30.29,West,259,1.0,6.0,74,0.00,,,0.00,VWS V14.01,2013-01-19 10:05:00,
2013-01-19 05:06:00,26.3,19.1,30.29,WSW,249,1.0,6.0,74,0.00,,,0.00,VWS V14.01,2013-01-19 10:06:00,
2013-01-19 05:07:00,26.3,19.1,30.29,WSW,248,2.0,6.0,74,0.00,,,0.00,VWS V14.01,2013-01-19 10:07:00,
2013-01-19 05:08:00,26.3,19.1,30.29,WSW,248,2.0,6.0,74,0.00,,,0.00,VWS V14.01,2013-01-19 10:08:00,
2013-01-19 05:09:00,26.4,19.2,30.29,WSW,237,1.0,6.0,74,0.00,,,0.00,VWS V14.01,2013-01-19 10:09:00,
2013-01-19 05:10:00,26.4,19.2,30.29,WSW,240,1.0,6.0,74,0.00,,,0.00,VWS V14.01,2013-01-19 10:10:00,
2013-01-19 05:11:00,26.5,19.4,30.29,SSW,195,6.0,6.0,74,0.00,,,0.00,VWS V14.01,2013-01-19 10:11:00,
2013-01-19 05:12:00,26.5,19.4,30.29,SSW,195,6.0,6.0,74,0.00,,,0.00,VWS V14.01,2013-01-19 10:12:00,
2013-01-19 05:13:00,26.5,19.4,30.29,SSW,195,6.0,6.0,74,0.00,,,0.00,VWS V14.01,2013-01-19 10:13:00,
2013-01-19 05:14:00,26.5,19.4,30.29,West,271,0.0,6.0,74,0.00,,,0.00,VWS V14.01,2013-01-19 10:14:00,
2013-01-19 05:15:00,26.6,19.4,30.28,WSW,250,6.0,6.0,74,0.00,,,0.00,VWS V14.01,2013-01-19 10:15:00,
2013-01-19 05:16:00,26.6,19.4,30.28,West,277,0.0,6.0,74,0.00,,,0.00,VWS V14.01,2013-01-19 10:16:00,
2013-01-19 05:17:00,26.6,19.4,30.28,West,277,0.0,6.0,74,0.00,,,0.00,VWS V14.01,2013-01-19 10:17:00,
2013-01-19 05:18:00,26.6,19.4,30.28,West,277,0.0,6.0,74,0.00,,,0.00,VWS V14.01,2013-01-19 10:18:00,
2013-01-19 05:19:00,26.7,19.5,30.28,NW,304,4.0,6.0,74,0.00,,,0.00,VWS V14.01,2013-01-19 10:19:00,
2013-01-19 05:20:00,26.7,19.5,30.28,West,271,4.0,6.0,74,0.00,,,0.00,VWS V14.01,2013-01-19 10:20:00,
2013-01-19 05:21:00,26.7,19.9,30.28,SW,230,0.0,4.0,75,0.00,,,0.00,VWS V14.01,2013-01-19 10:21:00,
2013-01-19 05:22:00,26.7,19.9,30.28,SW,230,0.0,4.0,75,0.00,,,0.00,VWS V14.01,2013-01-19 10:22:00,
2013-01-19 05:23:00,26.7,19.9,30.28,SW,230,0.0,4.0,75,0.00,,,0.00,VWS V14.01,2013-01-19 10:23:00,
2013-01-19 05:24:00,26.8,20.0,30.28,SW,217,4.0,6.0,75,0.00,,,0.00,VWS V14.01,2013-01-19 10:24:00,
2013-01-19 05:25:00,26.9,20.0,30.28,West,261,7.0,7.0,75,0.00,,,0.00,VWS V14.01,2013-01-19 10:25:00,
2013-01-19 05:26:00,26.9,20.0,30.28,West,260,4.0,7.0,75,0.00,,,0.00,VWS V14.01,2013-01-19 10:26:00,
2013-01-19 05:27:00,26.9,20.0,30.28,West,260,4.0,7.0,75,0.00,,,0.00,VWS V14.01,2013-01-19 10:27:00,
2013-01-19 05:28:00,26.9,20.0,30.28,West,260,4.0,7.0,75,0.00,,,0.00,VWS V14.01,2013-01-19 10:28:00,
2013-01-19 05:29:00,27.0,20.1,30.28,WSW,246,0.0,7.0,75,0.00,,,0.00,VWS V14.01,2013-01-19 10:29:00,
2013-01-19 05:30:00,27.1,20.5,30.28,SW,225,3.0,7.0,76,0.00,,,0.00,VWS V14.01,2013-01-19 10:30:00,
2013-01-19 05:31:00,27.1,20.5,30.28,WSW,247,4.0,4.0,76,0.00,,,0.00,VWS V14.01,2013-01-19 10:31:00,
2013-01-19 05:32:00,27.1,20.5,30.28,WSW,247,2.0,4.0,76,0.00,,,0.00,VWS V14.01,2013-01-19 10:32:00,
2013-01-19 05:33:00,27.1,20.5,30.28,WSW,247,2.0,4.0,76,0.00,,,0.00,VWS V14.01,2013-01-19 10:33:00,
2013-01-19 05:34:00,27.2,20.6,30.28,West,263,0.0,4.0,76,0.00,,,0.00,VWS V14.01,2013-01-19 10:34:00,
2013-01-19 05:35:00,27.2,20.6,30.28,WSW,250,2.0,4.0,76,0.00,,,0.00,VWS V14.01,2013-01-19 10:35:00,
2013-01-19 05:36:00,27.3,20.8,30.28,WSW,247,3.0,4.0,76,0.00,,,0.00,VWS V14.01,2013-01-19 10:36:00,
2013-01-19 05:37:00,27.3,20.8,30.28,WSW,250,2.0,4.0,76,0.00,,,0.00,VWS V14.01,2013-01-19 10:37:00,
2013-01-19 05:38:00,27.3,20.8,30.28,WSW,250,2.0,4.0,76,0.00,,,0.00,VWS V14.01,2013-01-19 10:38:00,
2013-01-19 05:39:00,27.4,20.8,30.28,SW,224,4.0,7.0,76,0.00,,,0.00,VWS V14.01,2013-01-19 10:39:00,
2013-01-19 05:40:00,27.5,20.9,30.28,SSW,211,2.0,7.0,76,0.00,,,0.00,VWS V14.01,2013-01-19 10:40:00,
2013-01-19 05:41:00,27.5,20.9,30.28,West,264,7.0,7.0,76,0.00,,,0.00,VWS V14.01,2013-01-19 10:41:00,
2013-01-19 05:42:00,27.5,20.9,30.28,WSW,246,5.0,7.0,76,0.00,,,0.00,VWS V14.01,2013-01-19 10:42:00,
2013-01-19 05:43:00,27.5,20.9,30.28,WSW,246,5.0,7.0,76,0.00,,,0.00,VWS V14.01,2013-01-19 10:43:00,
2013-01-19 05:44:00,27.6,21.0,30.28,WSW,255,2.0,7.0,76,0.00,,,0.00,VWS V14.01,2013-01-19 10:44:00,
2013-01-19 05:45:00,27.7,21.1,30.27,WSW,256,3.0,7.0,76,0.00,,,0.00,VWS V14.01,2013-01-19 10:45:00,
2013-01-19 05:46:00,27.7,21.1,30.27,WNW,302,1.0,7.0,76,0.00,,,0.00,VWS V14.01,2013-01-19 10:46:00,
2013-01-19 05:47:00,27.7,21.1,30.27,WNW,302,1.0,7.0,76,0.00,,,0.00,VWS V14.01,2013-01-19 10:47:00,
2013-01-19 05:48:00,27.7,21.1,30.27,WNW,302,1.0,7.0,76,0.00,,,0.00,VWS V14.01,2013-01-19 10:48:00,
2013-01-19 05:49:00,27.8,21.2,30.27,SW,229,2.0,7.0,76,0.00,,,0.00,VWS V14.01,2013-01-19 10:49:00,
2013-01-19 05:50:00,27.8,21.2,30.27,West,262,1.0,7.0,76,0.00,,,0.00,VWS V14.01,2013-01-19 10:50:00,
2013-01-19 05:51:00,27.9,21.3,30.27,SW,232,3.0,8.0,76,0.00,,,0.00,VWS V14.01,2013-01-19 10:51:00,
2013-01-19 05:52:00,27.8,21.2,30.27,WSW,250,4.0,8.0,76,0.00,,,0.00,VWS V14.01,2013-01-19 10:52:00,
2013-01-19 05:53:00,27.8,21.2,30.27,WSW,250,4.0,8.0,76,0.00,,,0.00,VWS V14.01,2013-01-19 10:53:00,
2013-01-19 05:54:00,28.0,21.4,30.27,SW,236,4.0,9.0,76,0.00,,,0.00,VWS V14.01,2013-01-19 10:54:00,
2013-01-19 05:55:00,28.0,21.7,30.27,West,267,10.0,10.0,77,0.00,,,0.00,VWS V14.01,2013-01-19 10:55:00,
2013-01-19 05:56:00,28.0,21.7,30.27,WSW,250,3.0,10.0,77,0.00,,,0.00,VWS V14.01,2013-01-19 10:56:00,
2013-01-19 07:28:00,29.1,23.1,30.26,WSW,247,0.0,5.0,78,0.00,,,0.00,VWS V14.01,2013-01-19 12:28:00,
2013-01-19 07:29:00,29.2,23.2,30.26,SW,217,4.0,6.0,78,0.00,,,0.00,VWS V14.01,2013-01-19 12:29:00,
2013-01-19 07:30:00,29.2,23.2,30.26,WSW,250,5.0,6.0,78,0.00,,,0.00,VWS V14.01,2013-01-19 12:30:00,
2013-01-19 07:31:00,29.2,23.2,30.26,SW,225,4.0,5.0,78,0.00,,,0.00,VWS V14.01,2013-01-19 12:31:00,
2013-01-19 07:32:00,29.2,23.2,30.26,WSW,238,4.0,8.0,78,0.00,,,0.00,VWS V14.01,2013-01-19 12:32:00,
2013-01-19 07:33:00,29.2,23.2,30.26,WSW,238,4.0,8.0,78,0.00,,,0.00,VWS V14.01,2013-01-19 12:33:00,
2013-01-19 07:34:00,29.2,23.2,30.26,SW,222,4.0,8.0,78,0.00,,,0.00,VWS V14.01,2013-01-19 12:34:00,
2013-01-19 07:35:00,29.2,23.2,30.26,SW,229,3.0,8.0,78,0.00,,,0.00,VWS V14.01,2013-01-19 12:35:00,
2013-01-19 07:36:00,29.3,23.3,30.26,WNW,294,3.0,8.0,78,0.00,,,0.00,VWS V14.01,2013-01-19 12:36:00,
2013-01-19 07:37:00,29.3,23.3,30.26,WSW,246,6.0,8.0,78,0.00,,,0.00,VWS V14.01,2013-01-19 12:37:00,
2013-01-19 07:38:00,29.3,23.3,30.26,WSW,246,6.0,8.0,78,0.00,,,0.00,VWS V14.01,2013-01-19 12:38:00,
2013-01-19 07:39:00,29.3,23.3,30.26,SW,229,0.0,8.0,78,0.00,,,0.00,VWS V14.01,2013-01-19 12:39:00,
2013-01-19 07:40:00,29.4,23.4,30.26,SW,229,1.0,8.0,78,0.00,,,0.00,VWS V14.01,2013-01-19 12:40:00,
2013-01-19 07:41:00,29.4,23.4,30.26,WSW,247,2.0,2.0,78,0.00,,,0.00,VWS V14.01,2013-01-19 12:41:00,
2013-01-19 07:42:00,29.4,23.4,30.26,West,266,4.0,4.0,78,0.00,,,0.00,VWS V14.01,2013-01-19 12:42:00,
2013-01-19 07:43:00,29.4,23.4,30.26,West,266,4.0,4.0,78,0.00,,,0.00,VWS V14.01,2013-01-19 12:43:00,
2013-01-19 07:44:00,29.5,23.5,30.26,West,271,2.0,5.0,78,0.00,,,0.00,VWS V14.01,2013-01-19 12:44:00,
2013-01-19 07:45:00,29.5,23.5,30.26,West,261,2.0,5.0,78,0.00,,,0.00,VWS V14.01,2013-01-19 12:45:00,
2013-01-19 07:46:00,29.5,23.5,30.26,WSW,253,3.0,5.0,78,0.00,,,0.00,VWS V14.01,2013-01-19 12:46:00,
2013-01-19 07:47:00,29.5,23.5,30.26,WSW,253,1.0,5.0,78,0.00,,,0.00,VWS V14.01,2013-01-19 12:47:00,
2013-01-19 07:48:00,29.5,23.5,30.26,WSW,253,1.0,5.0,78,0.00,,,0.00,VWS V14.01,2013-01-19 12:48:00,
2013-01-19 07:49:00,29.6,23.6,30.26,WSW,254,9.0,9.0,78,0.00,,,0.00,VWS V14.01,2013-01-19 12:49:00,
2013-01-19 07:50:00,29.7,23.7,30.26,WSW,252,1.0,9.0,78,0.00,,,0.00,VWS V14.01,2013-01-19 12:50:00,
2013-01-19 07:51:00,29.7,23.7,30.26,SSW,192,6.0,10.0,78,0.00,,,0.00,VWS V14.01,2013-01-19 12:51:00,
2013-01-19 07:52:00,29.7,23.7,30.26,SSW,192,6.0,10.0,78,0.00,,,0.00,VWS V14.01,2013-01-19 12:52:00,
2013-01-19 07:53:00,29.7,23.7,30.26,SSW,192,6.0,10.0,78,0.00,,,0.00,VWS V14.01,2013-01-19 12:53:00,
2013-01-19 07:54:00,29.9,23.9,30.26,West,277,2.0,10.0,78,0.00,,,0.00,VWS V14.01,2013-01-19 12:54:00,
2013-01-19 07:55:00,29.9,23.9,30.26,SSW,206,0.0,10.0,78,0.00,,,0.00,VWS V14.01,2013-01-19 12:55:00,
2013-01-19 07:56:00,29.9,23.9,30.26,SSW,209,0.0,10.0,78,0.00,,,0.00,VWS V14.01,2013-01-19 12:56:00,
2013-01-19 07:57:00,29.9,23.9,30.26,SSW,209,0.0,10.0,78,0.00,,,0.00,VWS V14.01,2013-01-19 12:57:00,
2013-01-19 07:58:00,29.9,23.9,30.26,SSW,209,0.0,10.0,78,0.00,,,0.00,VWS V14.01,2013-01-19 12:58:00,
2013-01-19 07:59:00,30.1,24.1,30.26,WSW,246,0.0,10.0,78,0.00,,,0.00,VWS V14.01,2013-01-19 12:59:00,
2013-01-19 08:00:00,30.1,24.1,30.26,SW,219,3.0,10.0,78,0.00,,,0.00,VWS V14.01,2013-01-19 13:00:00,
2013-01-19 08:01:00,30.1,24.1,30.26,SW,219,0.0,2.0,78,0.00,,,0.00,VWS V14.01,2013-01-19 13:01:00,
2013-01-19 08:02:00,30.1,24.1,30.26,SW,219,1.0,2.0,78,0.00,,,0.00,VWS V14.01,2013-01-19 13:02:00,
2013-01-19 08:03:00,30.1,24.1,30.26,SW,219,1.0,2.0,78,0.00,,,0.00,VWS V14.01,2013-01-19 13:03:00,
2013-01-19 08:04:00,30.3,24.3,30.26,WSW,244,4.0,4.0,78,0.00,,,0.00,VWS V14.01,2013-01-19 13:04:00,
2013-01-19 08:05:00,30.3,24.3,30.26,WSW,242,3.0,5.0,78,0.00,,,0.00,VWS V14.01,2013-01-19 13:05:00,
2013-01-19 08:06:00,30.4,24.4,30.26,SSW,213,6.0,10.0,78,0.00,,,0.00,VWS V14.01,2013-01-19 13:06:00,
2013-01-19 08:07:00,30.4,24.4,30.26,SSW,213,6.0,10.0,78,0.00,,,0.00,VWS V14.01,2013-01-19 13:07:00,
2013-01-19 08:08:00,30.4,24.4,30.26,SSW,213,6.0,10.0,78,0.00,,,0.00,VWS V14.01,2013-01-19 13:08:00,
2013-01-19 08:09:00,30.5,24.5,30.26,SW,215,5.0,10.0,78,0.00,,,0.00,VWS V14.01,2013-01-19 13:09:00,
2013-01-19 08:10:00,30.6,24.6,30.26,SW,228,0.0,10.0,78,0.00,,,0.00,VWS V14.01,2013-01-19 13:10:00,
2013-01-19 08:11:00,30.6,24.6,30.26,SW,231,1.0,2.0,78,0.00,,,0.00,VWS V14.01,2013-01-19 13:11:00,
2013-01-19 08:12:00,30.7,24.7,30.26,SW,231,0.0,2.0,78,0.00,,,0.00,VWS V14.01,2013-01-19 13:12:00,
2013-01-19 08:13:00,30.7,24.7,30.26,SW,231,0.0,2.0,78,0.00,,,0.00,VWS V14.01,2013-01-19 13:13:00,
2013-01-19 08:14:00,30.8,24.8,30.26,WNW,284,3.0,3.0,78,0.00,,,0.00,VWS V14.01,2013-01-19 13:14:00,
2013-01-19 08:15:00,30.9,24.9,30.27,SSW,211,2.0,6.0,78,0.00,,,0.00,VWS V14.01,2013-01-19 13:15:00,
2013-01-19 08:16:00,31.0,24.6,30.27,SSW,211,2.0,6.0,77,0.00,,,0.00,VWS V14.01,2013-01-19 13:16:00,
2013-01-19 08:17:00,31.0,24.6,30.27,SSW,211,2.0,6.0,77,0.00,,,0.00,VWS V14.01,2013-01-19 13:17:00,
2013-01-19 08:18:00,31.0,24.6,30.27,SSW,211,2.0,6.0,77,0.00,,,0.00,VWS V14.01,2013-01-19 13:18:00,
2013-01-19 08:19:00,31.2,24.8,30.27,SSW,213,2.0,6.0,77,0.00,,,0.00,VWS V14.01,2013-01-19 13:19:00,
2013-01-19 08:20:00,31.2,24.8,30.27,West,272,6.0,6.0,77,0.00,,,0.00,VWS V14.01,2013-01-19 13:20:00,
2013-01-19 08:21:00,31.3,24.9,30.27,WSW,250,2.0,6.0,77,0.00,,,0.00,VWS V14.01,2013-01-19 13:21:00,
2013-01-19 08:22:00,31.3,24.9,30.27,WSW,250,2.0,6.0,77,0.00,,,0.00,VWS V14.01,2013-01-19 13:22:00,
2013-01-19 08:23:00,31.3,24.9,30.27,WSW,250,2.0,6.0,77,0.00,,,0.00,VWS V14.01,2013-01-19 13:23:00,
2013-01-19 08:24:00,31.5,25.1,30.27,South,190,1.0,6.0,77,0.00,,,0.00,VWS V14.01,2013-01-19 13:24:00,
2013-01-19 08:25:00,31.5,25.1,30.27,SW,229,3.0,6.0,77,0.00,,,0.00,VWS V14.01,2013-01-19 13:25:00,
2013-01-19 08:26:00,31.6,25.2,30.27,SW,236,0.0,6.0,77,0.00,,,0.00,VWS V14.01,2013-01-19 13:26:00,
2013-01-19 08:27:00,31.6,25.2,30.27,SW,236,0.0,6.0,77,0.00,,,0.00,VWS V14.01,2013-01-19 13:27:00,
2013-01-19 08:28:00,31.6,25.2,30.27,SW,236,0.0,6.0,77,0.00,,,0.00,VWS V14.01,2013-01-19 13:28:00,
2013-01-19 08:29:00,31.8,25.4,30.27,SW,219,4.0,7.0,77,0.00,,,0.00,VWS V14.01,2013-01-19 13:29:00,
2013-01-19 08:30:00,31.9,25.5,30.26,SSW,202,5.0,7.0,77,0.00,,,0.00,VWS V14.01,2013-01-19 13:30:00,
2013-01-19 08:31:00,32.0,25.3,30.26,WSW,250,3.0,6.0,76,0.00,,,0.00,VWS V14.01,2013-01-19 13:31:00,
2013-01-19 08:32:00,32.0,25.3,30.26,WSW,249,1.0,6.0,76,0.00,,,0.00,VWS V14.01,2013-01-19 13:32:00,
2013-01-19 08:33:00,32.0,25.3,30.26,WSW,249,1.0,6.0,76,0.00,,,0.00,VWS V14.01,2013-01-19 13:33:00,
2013-01-19 08:34:00,32.2,25.5,30.26,West,260,4.0,6.0,76,0.00,,,0.00,VWS V14.01,2013-01-19 13:34:00,
2013-01-19 08:35:00,32.3,25.6,30.26,WNW,284,2.0,7.0,76,0.00,,,0.00,VWS V14.01,2013-01-19 13:35:00,
2013-01-19 08:36:00,32.3,25.6,30.26,South,175,3.0,7.0,76,0.00,,,0.00,VWS V14.01,2013-01-19 13:36:00,
2013-01-19 08:37:00,32.3,25.6,30.26,South,180,4.0,7.0,76,0.00,,,0.00,VWS V14.01,2013-01-19 13:37:00,
2013-01-19 08:38:00,32.3,25.6,30.26,South,180,4.0,7.0,76,0.00,,,0.00,VWS V14.01,2013-01-19 13:38:00,
2013-01-19 08:39:00,32.6,25.9,30.26,SSW,213,0.0,7.0,76,0.00,,,0.00,VWS V14.01,2013-01-19 13:39:00,
2013-01-19 08:40:00,32.7,26.0,30.26,West,277,5.0,7.0,76,0.00,,,0.00,VWS V14.01,2013-01-19 13:40:00,
2013-01-19 08:41:00,32.8,25.8,30.26,SW,218,4.0,5.0,75,0.00,,,0.00,VWS V14.01,2013-01-19 13:41:00,
2013-01-19 08:42:00,32.8,25.8,30.26,SW,218,3.0,5.0,75,0.00,,,0.00,VWS V14.01,2013-01-19 13:42:00,
2013-01-19 08:43:00,32.8,25.8,30.26,SW,218,3.0,5.0,75,0.00,,,0.00,VWS V14.01,2013-01-19 13:43:00,
2013-01-19 08:44:00,33.2,26.1,30.26,SSW,198,2.0,5.0,75,0.00,,,0.00,VWS V14.01,2013-01-19 13:44:00,
2013-01-19 08:45:00,33.3,26.2,30.26,SW,222,2.0,5.0,75,0.00,,,0.00,VWS V14.01,2013-01-19 13:45:00,
2013-01-19 08:46:00,33.3,26.2,30.26,SW,222,4.0,5.0,75,0.00,,,0.00,VWS V14.01,2013-01-19 13:46:00,
2013-01-19 08:47:00,33.4,26.3,30.26,SW,219,3.0,5.0,75,0.00,,,0.00,VWS V14.01,2013-01-19 13:47:00,
2013-01-19 08:48:00,33.4,26.3,30.26,SW,219,3.0,5.0,75,0.00,,,0.00,VWS V14.01,2013-01-19 13:48:00,
2013-01-19 08:49:00,33.7,26.6,30.26,South,188,1.0,5.0,75,0.00,,,0.00,VWS V14.01,2013-01-19 13:49:00,
2013-01-19 08:50:00,33.8,26.4,30.26,WSW,237,3.0,6.0,74,0.00,,,0.00,VWS V14.01,2013-01-19 13:50:00,
2013-01-19 08:51:00,33.9,26.5,30.26,SSW,208,5.0,7.0,74,0.00,,,0.00,VWS V14.01,2013-01-19 13:51:00,
2013-01-19 08:52:00,33.9,26.5,30.26,WSW,248,4.0,7.0,74,0.00,,,0.00,VWS V14.01,2013-01-19 13:52:00,
2013-01-19 08:53:00,33.9,26.5,30.26,WSW,248,4.0,7.0,74,0.00,,,0.00,VWS V14.01,2013-01-19 13:53:00,
2013-01-19 08:54:00,34.2,26.8,30.26,SSW,198,4.0,7.0,74,0.00,,,0.00,VWS V14.01,2013-01-19 13:54:00,
2013-01-19 08:55:00,34.3,26.9,30.26,SSW,198,5.0,7.0,74,0.00,,,0.00,VWS V14.01,2013-01-19 13:55:00,
2013-01-19 08:56:00,34.4,27.0,30.26,West,276,2.0,10.0,74,0.00,,,0.00,VWS V14.01,2013-01-19 13:56:00,
2013-01-19 08:57:00,34.4,27.0,30.26,West,276,2.0,10.0,74,0.00,,,0.00,VWS V14.01,2013-01-19 13:57:00,
2013-01-19 08:58:00,34.4,27.0,30.26,West,276,2.0,10.0,74,0.00,,,0.00,VWS V14.01,2013-01-19 13:58:00,
2013-01-19 08:59:00,34.6,26.9,30.26,West,275,8.0,10.0,73,0.00,,,0.00,VWS V14.01,2013-01-19 13:59:00,
2013-01-19 09:00:00,34.6,26.9,30.26,NE,51,0.0,10.0,73,0.00,,,0.00,VWS V14.01,2013-01-19 14:00:00,
2013-01-19 09:01:00,34.6,26.5,30.26,West,276,8.0,8.0,72,0.00,,,0.00,VWS V14.01,2013-01-19 14:01:00,
2013-01-19 09:02:00,34.6,26.5,30.26,West,276,8.0,8.0,72,0.00,,,0.00,VWS V14.01,2013-01-19 14:02:00,
2013-01-19 09:03:00,34.6,26.5,30.26,West,276,8.0,8.0,72,0.00,,,0.00,VWS V14.01,2013-01-19 14:03:00,
2013-01-19 09:04:00,34.8,26.7,30.26,WSW,240,3.0,8.0,72,0.00,,,0.00,VWS V14.01,2013-01-19 14:04:00,
2013-01-19 09:05:00,34.8,26.7,30.26,West,261,8.0,9.0,72,0.00,,,0.00,VWS V14.01,2013-01-19 14:05:00,
2013-01-19 09:06:00,34.8,26.7,30.26,SW,215,5.0,11.0,72,0.00,,,0.00,VWS V14.01,2013-01-19 14:06:00,
2013-01-19 09:07:00,34.8,26.4,30.26,SSW,207,3.0,11.0,71,0.00,,,0.00,VWS V14.01,2013-01-19 14:07:00,
2013-01-19 09:08:00,34.8,26.4,30.26,SSW,207,3.0,11.0,71,0.00,,,0.00,VWS V14.01,2013-01-19 14:08:00,
2013-01-19 09:09:00,34.8,26.4,30.26,WSW,242,1.0,11.0,71,0.00,,,0.00,VWS V14.01,2013-01-19 14:09:00,
2013-01-19 09:10:00,34.8,26.4,30.26,SW,223,4.0,11.0,71,0.00,,,0.00,VWS V14.01,2013-01-19 14:10:00,
2013-01-19 09:11:00,34.9,26.5,30.26,SW,225,4.0,6.0,71,0.00,,,0.00,VWS V14.01,2013-01-19 14:11:00,
2013-01-19 09:12:00,34.9,26.5,30.26,SW,224,0.0,6.0,71,0.00,,,0.00,VWS V14.01,2013-01-19 14:12:00,
2013-01-19 09:13:00,34.9,26.5,30.26,SW,224,0.0,6.0,71,0.00,,,0.00,VWS V14.01,2013-01-19 14:13:00,
2013-01-19 09:14:00,35.0,26.6,30.26,WSW,254,5.0,6.0,71,0.00,,,0.00,VWS V14.01,2013-01-19 14:14:00,
2013-01-19 09:15:00,35.1,26.7,30.26,WSW,250,4.0,8.0,71,0.00,,,0.00,VWS V14.01,2013-01-19 14:15:00,
2013-01-19 09:16:00,35.2,26.8,30.26,WSW,247,1.0,8.0,71,0.00,,,0.00,VWS V14.01,2013-01-19 14:16:00,
2013-01-19 09:17:00,35.2,26.8,30.26,WSW,247,1.0,8.0,71,0.00,,,0.00,VWS V14.01,2013-01-19 14:17:00,
2013-01-19 09:18:00,35.2,26.8,30.26,WSW,247,1.0,8.0,71,0.00,,,0.00,VWS V14.01,2013-01-19 14:18:00,
2013-01-19 09:19:00,35.5,27.0,30.26,WSW,253,1.0,8.0,71,0.00,,,0.00,VWS V14.01,2013-01-19 14:19:00,
2013-01-19 09:20:00,35.5,27.0,30.26,NW,307,4.0,8.0,71,0.00,,,0.00,VWS V14.01,2013-01-19 14:20:00,
2013-01-19 09:21:00,35.6,27.1,30.26,West,259,3.0,6.0,71,0.00,,,0.00,VWS V14.01,2013-01-19 14:21:00,
2013-01-19 09:22:00,35.6,27.1,30.26,West,263,6.0,6.0,71,0.00,,,0.00,VWS V14.01,2013-01-19 14:22:00,
2013-01-19 09:23:00,35.6,27.1,30.26,West,263,6.0,6.0,71,0.00,,,0.00,VWS V14.01,2013-01-19 14:23:00,
2013-01-19 09:24:00,35.7,26.9,30.26,SW,236,2.0,6.0,70,0.00,,,0.00,VWS V14.01,2013-01-19 14:24:00,
2013-01-19 09:25:00,35.8,27.0,30.26,WSW,243,3.0,6.0,70,0.00,,,0.00,VWS V14.01,2013-01-19 14:25:00,
2013-01-19 09:26:00,35.8,27.0,30.26,WSW,254,7.0,8.0,70,0.00,,,0.00,VWS V14.01,2013-01-19 14:26:00,
2013-01-19 09:27:00,35.9,27.1,30.26,West,274,9.0,10.0,70,0.00,,,0.00,VWS V14.01,2013-01-19 14:27:00,
2013-01-19 09:28:00,35.9,27.1,30.26,West,274,9.0,10.0,70,0.00,,,0.00,VWS V14.01,2013-01-19 14:28:00,
2013-01-19 09:29:00,35.9,27.1,30.26,WSW,247,11.0,11.0,70,0.00,,,0.00,VWS V14.01,2013-01-19 14:29:00,
2013-01-19 09:30:00,36.0,26.8,30.25,WSW,248,2.0,11.0,69,0.00,,,0.00,VWS V14.01,2013-01-19 14:30:00,
2013-01-19 09:31:00,36.1,27.3,30.25,SSW,207,2.0,6.0,70,0.00,,,0.00,VWS V14.01,2013-01-19 14:31:00,
2013-01-19 09:32:00,36.1,27.3,30.25,SSW,207,2.0,6.0,70,0.00,,,0.00,VWS V14.01,2013-01-19 14:32:00,
2013-01-19 09:33:00,36.1,27.3,30.25,SSW,207,2.0,6.0,70,0.00,,,0.00,VWS V14.01,2013-01-19 14:33:00,
2013-01-19 09:34:00,36.3,27.5,30.25,SW,214,1.0,6.0,70,0.00,,,0.00,VWS V14.01,2013-01-19 14:34:00,
2013-01-19 09:35:00,36.4,27.2,30.25,West,269,6.0,6.0,69,0.00,,,0.00,VWS V14.01,2013-01-19 14:35:00,
2013-01-19 09:36:00,36.5,27.7,30.25,SW,214,3.0,6.0,70,0.00,,,0.00,VWS V14.01,2013-01-19 14:36:00,
2013-01-19 09:37:00,36.5,27.7,30.25,SW,214,3.0,6.0,70,0.00,,,0.00,VWS V14.01,2013-01-19 14:37:00,
2013-01-19 09:38:00,36.5,27.7,30.25,SW,214,3.0,6.0,70,0.00,,,0.00,VWS V14.01,2013-01-19 14:38:00,
2013-01-19 09:39:00,36.8,27.6,30.25,WSW,257,3.0,6.0,69,0.00,,,0.00,VWS V14.01,2013-01-19 14:39:00,
2013-01-19 09:40:00,36.8,27.6,30.25,SSW,197,3.0,6.0,69,0.00,,,0.00,VWS V14.01,2013-01-19 14:40:00,
2013-01-19 09:41:00,36.9,27.7,30.25,South,188,5.0,7.0,69,0.00,,,0.00,VWS V14.01,2013-01-19 14:41:00,
2013-01-19 09:42:00,36.9,27.7,30.25,South,188,5.0,7.0,69,0.00,,,0.00,VWS V14.01,2013-01-19 14:42:00,
2013-01-19 09:43:00,36.9,27.7,30.25,South,188,5.0,7.0,69,0.00,,,0.00,VWS V14.01,2013-01-19 14:43:00,
2013-01-19 09:44:00,37.1,27.2,30.25,West,264,6.0,8.0,67,0.00,,,0.00,VWS V14.01,2013-01-19 14:44:00,
2013-01-19 09:45:00,37.1,27.2,30.25,SW,214,1.0,8.0,67,0.00,,,0.00,VWS V14.01,2013-01-19 14:45:00,
2013-01-19 09:46:00,37.1,27.2,30.25,SW,214,2.0,8.0,67,0.00,,,0.00,VWS V14.01,2013-01-19 14:46:00,
2013-01-19 09:47:00,37.1,27.2,30.25,SW,214,0.0,8.0,67,0.00,,,0.00,VWS V14.01,2013-01-19 14:47:00,
2013-01-19 09:48:00,37.1,27.2,30.25,SW,214,0.0,8.0,67,0.00,,,0.00,VWS V14.01,2013-01-19 14:48:00,
2013-01-19 09:49:00,37.4,27.5,30.25,SSW,200,4.0,8.0,67,0.00,,,0.00,VWS V14.01,2013-01-19 14:49:00,
2013-01-19 09:50:00,37.4,27.5,30.25,SSW,205,3.0,8.0,67,0.00,,,0.00,VWS V14.01,2013-01-19 14:50:00,
2013-01-19 09:51:00,37.5,27.5,30.25,WSW,244,4.0,4.0,67,0.00,,,0.00,VWS V14.01,2013-01-19 14:51:00,
2013-01-19 09:52:00,37.5,27.5,30.25,WSW,240,2.0,4.0,67,0.00,,,0.00,VWS V14.01,2013-01-19 14:52:00,
2013-01-19 09:53:00,37.5,27.5,30.25,WSW,240,2.0,4.0,67,0.00,,,0.00,VWS V14.01,2013-01-19 14:53:00,
2013-01-19 09:54:00,37.8,27.8,30.25,SW,226,3.0,4.0,67,0.00,,,0.00,VWS V14.01,2013-01-19 14:54:00,
2013-01-19 09:55:00,37.9,27.9,30.25,WSW,247,3.0,6.0,67,0.00,,,0.00,VWS V14.01,2013-01-19 14:55:00,
2013-01-19 09:56:00,37.9,27.6,30.25,West,274,6.0,12.0,66,0.00,,,0.00,VWS V14.01,2013-01-19 14:56:00,
2013-01-19 09:57:00,37.9,27.6,30.25,SW,229,5.0,12.0,66,0.00,,,0.00,VWS V14.01,2013-01-19 14:57:00,
2013-01-19 09:58:00,37.9,27.6,30.25,SW,229,5.0,12.0,66,0.00,,,0.00,VWS V14.01,2013-01-19 14:58:00,
2013-01-19 09:59:00,38.1,27.8,30.25,SSW,207,1.0,12.0,66,0.00,,,0.00,VWS V14.01,2013-01-19 14:59:00,
2013-01-19 10:00:00,38.1,27.8,30.24,SSW,198,1.0,12.0,66,0.00,,,0.00,VWS V14.01,2013-01-19 15:00:00,
2013-01-19 10:01:00,38.2,27.9,30.24,SSW,205,5.0,6.0,66,0.00,,,0.00,VWS V14.01,2013-01-19 15:01:00,
2013-01-19 10:02:00,38.2,27.9,30.24,SSW,205,5.0,6.0,66,0.00,,,0.00,VWS V14.01,2013-01-19 15:02:00,
2013-01-19 10:03:00,38.2,27.9,30.24,SSW,205,5.0,6.0,66,0.00,,,0.00,VWS V14.01,2013-01-19 15:03:00,
2013-01-19 10:04:00,38.4,27.7,30.24,SSW,210,1.0,6.0,65,0.00,,,0.00,VWS V14.01,2013-01-19 15:04:00,
2013-01-19 10:05:00,38.4,27.7,30.24,SSW,209,4.0,6.0,65,0.00,,,0.00,VWS V14.01,2013-01-19 15:05:00,
2013-01-19 10:06:00,38.5,27.8,30.24,SSW,209,4.0,6.0,65,0.00,,,0.00,VWS V14.01,2013-01-19 15:06:00,
2013-01-19 10:07:00,38.5,27.8,30.24,SSW,209,4.0,6.0,65,0.00,,,0.00,VWS V14.01,2013-01-19 15:07:00,
2013-01-19 10:08:00,38.5,27.8,30.24,SSW,209,4.0,6.0,65,0.00,,,0.00,VWS V14.01,2013-01-19 15:08:00,
2013-01-19 10:09:00,38.6,27.9,30.24,SW,229,3.0,6.0,65,0.00,,,0.00,VWS V14.01,2013-01-19 15:09:00,
2013-01-19 10:10:00,38.7,28.0,30.24,SSW,209,7.0,7.0,65,0.00,,,0.00,VWS V14.01,2013-01-19 15:10:00,
2013-01-19 10:11:00,38.7,28.0,30.24,SSW,201,1.0,7.0,65,0.00,,,0.00,VWS V14.01,2013-01-19 15:11:00,
2013-01-19 10:12:00,38.7,27.6,30.24,SSW,201,2.0,7.0,64,0.00,,,0.00,VWS V14.01,2013-01-19 15:12:00,
2013-01-19 10:13:00,38.7,27.6,30.24,SSW,201,2.0,7.0,64,0.00,,,0.00,VWS V14.01,2013-01-19 15:13:00,
2013-01-19 10:14:00,38.8,28.1,30.24,SSW,213,5.0,7.0,65,0.00,,,0.00,VWS V14.01,2013-01-19 15:14:00,
2013-01-19 10:15:00,38.9,27.8,30.23,SSW,209,3.0,7.0,64,0.00,,,0.00,VWS V14.01,2013-01-19 15:15:00,
2013-01-19 10:16:00,38.9,27.8,30.23,SW,217,2.0,7.0,64,0.00,,,0.00,VWS V14.01,2013-01-19 15:16:00,
2013-01-19 10:17:00,38.9,27.8,30.23,SW,217,2.0,7.0,64,0.00,,,0.00,VWS V14.01,2013-01-19 15:17:00,
2013-01-19 10:18:00,38.9,27.8,30.23,SW,217,2.0,7.0,64,0.00,,,0.00,VWS V14.01,2013-01-19 15:18:00,
2013-01-19 10:19:00,39.0,27.9,30.23,SSW,206,5.0,7.0,64,0.00,,,0.00,VWS V14.01,2013-01-19 15:19:00,
2013-01-19 10:20:00,39.1,28.0,30.23,SSW,208,1.0,7.0,64,0.00,,,0.00,VWS V14.01,2013-01-19 15:20:00,
2013-01-19 10:21:00,39.1,28.0,30.23,South,181,1.0,5.0,64,0.00,,,0.00,VWS V14.01,2013-01-19 15:21:00,
2013-01-19 10:22:00,39.1,28.0,30.23,South,181,1.0,5.0,64,0.00,,,0.00,VWS V14.01,2013-01-19 15:22:00,
2013-01-19 10:23:00,39.1,28.0,30.23,South,181,1.0,5.0,64,0.00,,,0.00,VWS V14.01,2013-01-19 15:23:00,
2013-01-19 10:24:00,39.2,28.1,30.23,SW,219,1.0,5.0,64,0.00,,,0.00,VWS V14.01,2013-01-19 15:24:00,
2013-01-19 10:25:00,39.3,28.2,30.23,WSW,239,4.0,5.0,64,0.00,,,0.00,VWS V14.01,2013-01-19 15:25:00,
2013-01-19 10:26:00,39.3,28.2,30.23,SW,227,3.0,5.0,64,0.00,,,0.00,VWS V14.01,2013-01-19 15:26:00,
2013-01-19 10:27:00,39.3,28.2,30.23,SW,227,3.0,5.0,64,0.00,,,0.00,VWS V14.01,2013-01-19 15:27:00,
2013-01-19 10:28:00,39.3,28.2,30.23,SW,227,3.0,5.0,64,0.00,,,0.00,VWS V14.01,2013-01-19 15:28:00,
2013-01-19 10:29:00,39.5,28.4,30.23,SW,214,1.0,5.0,64,0.00,,,0.00,VWS V14.01,2013-01-19 15:29:00,
2013-01-19 10:30:00,39.5,28.4,30.22,SW,214,2.0,5.0,64,0.00,,,0.00,VWS V14.01,2013-01-19 15:30:00,
2013-01-19 10:31:00,39.6,28.4,30.22,SW,214,1.0,2.0,64,0.00,,,0.00,VWS V14.01,2013-01-19 15:31:00,
2013-01-19 10:32:00,39.6,28.4,30.22,SW,214,1.0,2.0,64,0.00,,,0.00,VWS V14.01,2013-01-19 15:32:00,
2013-01-19 10:33:00,39.6,28.4,30.22,SW,214,1.0,2.0,64,0.00,,,0.00,VWS V14.01,2013-01-19 15:33:00,
2013-01-19 10:34:00,39.9,28.3,30.22,SSW,199,3.0,4.0,63,0.00,,,0.00,VWS V14.01,2013-01-19 15:34:00,
2013-01-19 10:35:00,40.0,28.4,30.22,SSW,199,4.0,4.0,63,0.00,,,0.00,VWS V14.01,2013-01-19 15:35:00,
2013-01-19 10:36:00,40.0,28.4,30.22,SSW,202,4.0,7.0,63,0.00,,,0.00,VWS V14.01,2013-01-19 15:36:00,
2013-01-19 10:37:00,40.0,28.4,30.22,SSW,202,4.0,7.0,63,0.00,,,0.00,VWS V14.01,2013-01-19 15:37:00,
2013-01-19 10:38:00,40.0,28.4,30.22,SSW,202,4.0,7.0,63,0.00,,,0.00,VWS V14.01,2013-01-19 15:38:00,
2013-01-19 10:39:00,40.2,28.2,30.22,SW,215,4.0,7.0,62,0.00,,,0.00,VWS V14.01,2013-01-19 15:39:00,
2013-01-19 10:40:00,40.3,28.7,30.22,WSW,240,1.0,7.0,63,0.00,,,0.00,VWS V14.01,2013-01-19 15:40:00,
2013-01-19 10:41:00,40.3,28.7,30.22,South,184,1.0,3.0,63,0.00,,,0.00,VWS V14.01,2013-01-19 15:41:00,
2013-01-19 10:42:00,40.3,28.7,30.22,South,182,6.0,6.0,63,0.00,,,0.00,VWS V14.01,2013-01-19 15:42:00,
2013-01-19 10:43:00,40.3,28.7,30.22,South,182,6.0,6.0,63,0.00,,,0.00,VWS V14.01,2013-01-19 15:43:00,
2013-01-19 10:44:00,40.5,28.5,30.22,SW,221,1.0,6.0,62,0.00,,,0.00,VWS V14.01,2013-01-19 15:44:00,
2013-01-19 10:45:00,40.6,28.6,30.21,South,182,1.0,6.0,62,0.00,,,0.00,VWS V14.01,2013-01-19 15:45:00,
2013-01-19 10:46:00,40.6,28.6,30.21,SSW,199,2.0,6.0,62,0.00,,,0.00,VWS V14.01,2013-01-19 15:46:00,
2013-01-19 10:47:00,40.6,28.6,30.21,WSW,248,4.0,6.0,62,0.00,,,0.00,VWS V14.01,2013-01-19 15:47:00,
2013-01-19 10:48:00,40.6,28.6,30.21,WSW,248,4.0,6.0,62,0.00,,,0.00,VWS V14.01,2013-01-19 15:48:00,
2013-01-19 10:49:00,40.8,28.8,30.21,SW,232,0.0,6.0,62,0.00,,,0.00,VWS V14.01,2013-01-19 15:49:00,
2013-01-19 10:50:00,40.9,28.9,30.21,SSW,196,0.0,6.0,62,0.00,,,0.00,VWS V14.01,2013-01-19 15:50:00,
2013-01-19 10:51:00,41.0,29.0,30.21,WNW,283,4.0,4.0,62,0.00,,,0.00,VWS V14.01,2013-01-19 15:51:00,
2013-01-19 10:52:00,41.0,29.0,30.21,WNW,283,4.0,4.0,62,0.00,,,0.00,VWS V14.01,2013-01-19 15:52:00,
2013-01-19 10:53:00,41.0,29.0,30.21,WNW,283,4.0,4.0,62,0.00,,,0.00,VWS V14.01,2013-01-19 15:53:00,
2013-01-19 10:54:00,41.2,29.2,30.21,WSW,244,0.0,4.0,62,0.00,,,0.00,VWS V14.01,2013-01-19 15:54:00,
2013-01-19 10:55:00,41.3,28.9,30.21,WSW,244,0.0,4.0,61,0.00,,,0.00,VWS V14.01,2013-01-19 15:55:00,
2013-01-19 10:56:00,41.4,29.0,30.21,WSW,244,1.0,4.0,61,0.00,,,0.00,VWS V14.01,2013-01-19 15:56:00,
2013-01-19 10:57:00,41.4,29.0,30.21,SW,236,2.0,4.0,61,0.00,,,0.00,VWS V14.01,2013-01-19 15:57:00,
2013-01-19 10:58:00,41.4,29.0,30.21,SW,236,2.0,4.0,61,0.00,,,0.00,VWS V14.01,2013-01-19 15:58:00,
2013-01-19 10:59:00,41.5,28.3,30.21,West,270,3.0,4.0,59,0.00,,,0.00,VWS V14.01,2013-01-19 15:59:00,
2013-01-19 11:00:00,41.5,28.3,30.20,West,271,0.0,4.0,59,0.00,,,0.00,VWS V14.01,2013-01-19 16:00:00,
2013-01-19 11:01:00,41.5,28.7,30.20,WSW,246,6.0,6.0,60,0.00,,,0.00,VWS V14.01,2013-01-19 16:01:00,
2013-01-19 11:02:00,41.5,28.7,30.20,WSW,250,5.0,6.0,60,0.00,,,0.00,VWS V14.01,2013-01-19 16:02:00,
2013-01-19 11:03:00,41.5,28.7,30.20,WSW,250,5.0,6.0,60,0.00,,,0.00,VWS V14.01,2013-01-19 16:03:00,
2013-01-19 11:04:00,41.6,29.2,30.20,West,269,1.0,6.0,61,0.00,,,0.00,VWS V14.01,2013-01-19 16:04:00,
2013-01-19 11:05:00,41.7,28.9,30.20,SSE,165,2.0,6.0,60,0.00,,,0.00,VWS V14.01,2013-01-19 16:05:00,
2013-01-19 11:06:00,41.7,28.9,30.20,South,180,0.0,6.0,60,0.00,,,0.00,VWS V14.01,2013-01-19 16:06:00,
2013-01-19 11:07:00,41.7,28.9,30.20,South,180,0.0,6.0,60,0.00,,,0.00,VWS V14.01,2013-01-19 16:07:00,
2013-01-19 11:08:00,41.7,28.9,30.20,South,180,0.0,6.0,60,0.00,,,0.00,VWS V14.01,2013-01-19 16:08:00,
2013-01-19 11:09:00,41.9,28.6,30.20,WSW,252,3.0,6.0,59,0.00,,,0.00,VWS V14.01,2013-01-19 16:09:00,
2013-01-19 11:10:00,41.9,28.6,30.20,WNW,284,3.0,6.0,59,0.00,,,0.00,VWS V14.01,2013-01-19 16:10:00,
2013-01-19 11:11:00,41.9,28.6,30.20,WNW,284,2.0,3.0,59,0.00,,,0.00,VWS V14.01,2013-01-19 16:11:00,
2013-01-19 11:12:00,41.9,28.6,30.20,WNW,284,0.0,3.0,59,0.00,,,0.00,VWS V14.01,2013-01-19 16:12:00,
2013-01-19 11:13:00,41.9,28.6,30.20,WNW,284,0.0,3.0,59,0.00,,,0.00,VWS V14.01,2013-01-19 16:13:00,
2013-01-19 11:14:00,42.0,28.3,30.20,West,260,2.0,6.0,58,0.00,,,0.00,VWS V14.01,2013-01-19 16:14:00,
2013-01-19 11:15:00,41.9,28.2,30.19,West,259,1.0,7.0,58,0.00,,,0.00,VWS V14.01,2013-01-19 16:15:00,
2013-01-19 11:16:00,41.9,28.2,30.19,WSW,248,4.0,7.0,58,0.00,,,0.00,VWS V14.01,2013-01-19 16:16:00,
2013-01-19 11:17:00,41.9,28.2,30.19,WSW,248,3.0,7.0,58,0.00,,,0.00,VWS V14.01,2013-01-19 16:17:00,
2013-01-19 11:18:00,41.9,28.2,30.19,WSW,248,3.0,7.0,58,0.00,,,0.00,VWS V14.01,2013-01-19 16:18:00,
2013-01-19 11:19:00,41.8,28.1,30.19,SW,217,3.0,7.0,58,0.00,,,0.00,VWS V14.01,2013-01-19 16:19:00,
2013-01-19 11:20:00,41.8,28.1,30.19,West,267,2.0,7.0,58,0.00,,,0.00,VWS V14.01,2013-01-19 16:20:00,
2013-01-19 11:21:00,41.8,28.1,30.19,SSW,198,2.0,3.0,58,0.00,,,0.00,VWS V14.01,2013-01-19 16:21:00,
2013-01-19 11:22:00,41.8,28.1,30.19,SSW,198,2.0,3.0,58,0.00,,,0.00,VWS V14.01,2013-01-19 16:22:00,
2013-01-19 11:23:00,41.8,28.1,30.19,SSW,198,2.0,3.0,58,0.00,,,0.00,VWS V14.01,2013-01-19 16:23:00,
2013-01-19 11:24:00,41.8,28.5,30.19,WNW,282,9.0,9.0,59,0.00,,,0.00,VWS V14.01,2013-01-19 16:24:00,
2013-01-19 11:25:00,41.9,28.6,30.19,WSW,248,1.0,9.0,59,0.00,,,0.00,VWS V14.01,2013-01-19 16:25:00,
2013-01-19 11:26:00,41.9,28.2,30.19,WSW,245,1.0,9.0,58,0.00,,,0.00,VWS V14.01,2013-01-19 16:26:00,
2013-01-19 11:27:00,41.9,28.2,30.19,WSW,245,1.0,9.0,58,0.00,,,0.00,VWS V14.01,2013-01-19 16:27:00,
2013-01-19 11:28:00,41.9,28.2,30.19,WSW,245,1.0,9.0,58,0.00,,,0.00,VWS V14.01,2013-01-19 16:28:00,
2013-01-19 11:29:00,42.0,28.7,30.17,WSW,238,2.0,9.0,59,0.00,,,0.00,VWS V14.01,2013-01-19 16:29:00,
2013-01-19 11:30:00,42.0,28.7,30.17,SW,227,3.0,9.0,59,0.00,,,0.00,VWS V14.01,2013-01-19 16:30:00,
2013-01-19 11:31:00,42.1,28.8,30.17,West,265,1.0,6.0,59,0.00,,,0.00,VWS V14.01,2013-01-19 16:31:00,
2013-01-19 11:32:00,42.1,28.8,30.17,West,265,1.0,6.0,59,0.00,,,0.00,VWS V14.01,2013-01-19 16:32:00,
2013-01-19 11:33:00,42.1,28.8,30.17,West,265,1.0,6.0,59,0.00,,,0.00,VWS V14.01,2013-01-19 16:33:00,
2013-01-19 11:34:00,42.2,28.5,30.17,West,261,1.0,6.0,58,0.00,,,0.00,VWS V14.01,2013-01-19 16:34:00,
2013-01-19 11:35:00,42.2,28.5,30.17,WSW,238,4.0,10.0,58,0.00,,,0.00,VWS V14.01,2013-01-19 16:35:00,
2013-01-19 11:36:00,42.2,28.1,30.17,SW,236,6.0,10.0,57,0.00,,,0.00,VWS V14.01,2013-01-19 16:36:00,
2013-01-19 11:37:00,42.2,28.1,30.17,SW,234,3.0,10.0,57,0.00,,,0.00,VWS V14.01,2013-01-19 16:37:00,
2013-01-19 11:38:00,42.2,28.1,30.17,SW,234,3.0,10.0,57,0.00,,,0.00,VWS V14.01,2013-01-19 16:38:00,
2013-01-19 11:39:00,42.2,28.1,30.17,WNW,295,8.0,10.0,57,0.00,,,0.00,VWS V14.01,2013-01-19 16:39:00,
2013-01-19 11:40:00,42.2,28.1,30.17,West,277,4.0,10.0,57,0.00,,,0.00,VWS V14.01,2013-01-19 16:40:00,
2013-01-19 11:41:00,42.1,28.0,30.17,WNW,290,4.0,8.0,57,0.00,,,0.00,VWS V14.01,2013-01-19 16:41:00,
2013-01-19 11:42:00,42.1,28.0,30.17,WSW,246,8.0,8.0,57,0.00,,,0.00,VWS V14.01,2013-01-19 16:42:00,
2013-01-19 11:43:00,42.1,28.0,30.17,WSW,246,8.0,8.0,57,0.00,,,0.00,VWS V14.01,2013-01-19 16:43:00,
2013-01-19 11:44:00,42.2,28.1,30.17,WSW,240,4.0,8.0,57,0.00,,,0.00,VWS V14.01,2013-01-19 16:44:00,
2013-01-19 11:45:00,42.2,28.5,30.16,SSW,213,2.0,8.0,58,0.00,,,0.00,VWS V14.01,2013-01-19 16:45:00,
2013-01-19 11:46:00,42.3,28.2,30.16,West,276,10.0,10.0,57,0.00,,,0.00,VWS V14.01,2013-01-19 16:46:00,
2013-01-19 11:47:00,42.3,28.2,30.16,West,276,10.0,10.0,57,0.00,,,0.00,VWS V14.01,2013-01-19 16:47:00,
2013-01-19 11:48:00,42.3,28.2,30.16,West,276,10.0,10.0,57,0.00,,,0.00,VWS V14.01,2013-01-19 16:48:00,
2013-01-19 11:49:00,42.3,28.2,30.16,SSW,209,4.0,10.0,57,0.00,,,0.00,VWS V14.01,2013-01-19 16:49:00,
2013-01-19 11:50:00,42.4,27.8,30.16,WSW,237,5.0,10.0,56,0.00,,,0.00,VWS V14.01,2013-01-19 16:50:00,
2013-01-19 11:51:00,42.4,27.8,30.16,SSW,213,7.0,8.0,56,0.00,,,0.00,VWS V14.01,2013-01-19 16:51:00,
2013-01-19 11:52:00,42.4,27.8,30.16,SSW,213,7.0,8.0,56,0.00,,,0.00,VWS V14.01,2013-01-19 16:52:00,
2013-01-19 11:53:00,42.4,27.8,30.16,SSW,213,7.0,8.0,56,0.00,,,0.00,VWS V14.01,2013-01-19 16:53:00,
2013-01-19 11:54:00,42.4,28.3,30.16,West,271,9.0,12.0,57,0.00,,,0.00,VWS V14.01,2013-01-19 16:54:00,
2013-01-19 11:55:00,42.4,27.8,30.16,WSW,257,1.0,12.0,56,0.00,,,0.00,VWS V14.01,2013-01-19 16:55:00,
2013-01-19 11:56:00,42.4,28.3,30.16,West,271,4.0,12.0,57,0.00,,,0.00,VWS V14.01,2013-01-19 16:56:00,
2013-01-19 11:58:00,42.4,28.3,30.16,West,271,4.0,12.0,57,0.00,,,0.00,VWS V14.01,2013-01-19 16:58:00,
2013-01-19 11:59:00,42.6,28.0,30.14,WSW,252,5.0,12.0,56,0.00,,,0.00,VWS V14.01,2013-01-19 16:59:00,
2013-01-19 12:00:00,42.6,28.0,30.14,West,275,6.0,12.0,56,0.00,,,0.00,VWS V14.01,2013-01-19 17:00:00,
2013-01-19 12:01:00,42.6,28.0,30.14,SSW,209,7.0,7.0,56,0.00,,,0.00,VWS V14.01,2013-01-19 17:01:00,
2013-01-19 12:02:00,42.6,28.0,30.14,SSW,209,7.0,7.0,56,0.00,,,0.00,VWS V14.01,2013-01-19 17:02:00,
2013-01-19 12:03:00,42.8,28.2,30.14,West,280,3.0,7.0,56,0.00,,,0.00,VWS V14.01,2013-01-19 17:03:00,
2013-01-19 12:04:00,42.8,28.2,30.14,West,280,0.0,7.0,56,0.00,,,0.00,VWS V14.01,2013-01-19 17:04:00,
2013-01-19 12:05:00,42.9,28.3,30.14,SW,235,4.0,7.0,56,0.00,,,0.00,VWS V14.01,2013-01-19 17:05:00,
2013-01-19 12:06:00,43.1,28.5,30.14,SW,227,3.0,7.0,56,0.00,,,0.00,VWS V14.01,2013-01-19 17:06:00,
2013-01-19 12:07:00,43.1,28.5,30.14,SW,230,3.0,7.0,56,0.00,,,0.00,VWS V14.01,2013-01-19 17:07:00,
2013-01-19 12:08:00,43.1,28.5,30.14,SW,230,3.0,7.0,56,0.00,,,0.00,VWS V14.01,2013-01-19 17:08:00,
2013-01-19 12:09:00,43.6,29.0,30.14,West,269,1.0,7.0,56,0.00,,,0.00,VWS V14.01,2013-01-19 17:09:00,
2013-01-19 12:10:00,43.6,29.0,30.14,WSW,250,6.0,7.0,56,0.00,,,0.00,VWS V14.01,2013-01-19 17:10:00,
2013-01-19 12:11:00,43.7,29.0,30.14,SW,223,2.0,6.0,56,0.00,,,0.00,VWS V14.01,2013-01-19 17:11:00,
2013-01-19 12:12:00,43.7,29.0,30.14,SW,223,2.0,6.0,56,0.00,,,0.00,VWS V14.01,2013-01-19 17:12:00,
2013-01-19 12:13:00,43.7,29.0,30.14,SW,223,2.0,6.0,56,0.00,,,0.00,VWS V14.01,2013-01-19 17:13:00,
2013-01-19 12:14:00,44.1,29.0,30.13,South,180,3.0,7.0,55,0.00,,,0.00,VWS V14.01,2013-01-19 17:14:00,
2013-01-19 12:15:00,44.1,28.5,30.13,SSW,195,3.0,7.0,54,0.00,,,0.00,VWS V14.01,2013-01-19 17:15:00,
2013-01-19 12:16:00,44.2,28.6,30.13,West,262,5.0,7.0,54,0.00,,,0.00,VWS V14.01,2013-01-19 17:16:00,
2013-01-19 12:17:00,44.2,28.6,30.13,West,262,5.0,7.0,54,0.00,,,0.00,VWS V14.01,2013-01-19 17:17:00,
2013-01-19 12:18:00,44.2,28.6,30.13,West,262,5.0,7.0,54,0.00,,,0.00,VWS V14.01,2013-01-19 17:18:00,
2013-01-19 12:19:00,44.4,28.4,30.13,WSW,247,3.0,7.0,53,0.00,,,0.00,VWS V14.01,2013-01-19 17:19:00,
2013-01-19 12:20:00,44.5,28.5,30.13,WSW,240,3.0,7.0,53,0.00,,,0.00,VWS V14.01,2013-01-19 17:20:00,
2013-01-19 12:21:00,44.6,29.0,30.13,SW,234,1.0,3.0,54,0.00,,,0.00,VWS V14.01,2013-01-19 17:21:00,
2013-01-19 12:22:00,44.6,29.0,30.13,SW,236,2.0,3.0,54,0.00,,,0.00,VWS V14.01,2013-01-19 17:22:00,
2013-01-19 12:23:00,44.6,29.0,30.13,SW,236,2.0,3.0,54,0.00,,,0.00,VWS V14.01,2013-01-19 17:23:00,
2013-01-19 12:24:00,44.7,28.6,30.13,South,186,3.0,3.0,53,0.00,,,0.00,VWS V14.01,2013-01-19 17:24:00,
2013-01-19 12:25:00,44.7,29.1,30.13,West,267,4.0,9.0,54,0.00,,,0.00,VWS V14.01,2013-01-19 17:25:00,
2013-01-19 12:26:00,44.7,28.6,30.13,WNW,284,4.0,10.0,53,0.00,,,0.00,VWS V14.01,2013-01-19 17:26:00,
2013-01-19 12:27:00,44.7,28.6,30.13,WNW,284,4.0,10.0,53,0.00,,,0.00,VWS V14.01,2013-01-19 17:27:00,
2013-01-19 12:28:00,44.7,28.6,30.13,WNW,284,4.0,10.0,53,0.00,,,0.00,VWS V14.01,2013-01-19 17:28:00,
2013-01-19 12:29:00,44.7,28.2,30.13,South,172,2.0,10.0,52,0.00,,,0.00,VWS V14.01,2013-01-19 17:29:00,
2013-01-19 12:30:00,44.7,28.2,30.12,West,262,6.0,10.0,52,0.00,,,0.00,VWS V14.01,2013-01-19 17:30:00,
2013-01-19 12:31:00,44.7,28.2,30.12,WSW,238,6.0,9.0,52,0.00,,,0.00,VWS V14.01,2013-01-19 17:31:00,
2013-01-19 12:32:00,44.7,28.2,30.12,WSW,238,6.0,9.0,52,0.00,,,0.00,VWS V14.01,2013-01-19 17:32:00,
2013-01-19 12:33:00,44.7,28.2,30.12,WSW,238,6.0,9.0,52,0.00,,,0.00,VWS V14.01,2013-01-19 17:33:00,
2013-01-19 12:34:00,44.7,28.2,30.12,West,260,4.0,9.0,52,0.00,,,0.00,VWS V14.01,2013-01-19 17:34:00,
2013-01-19 12:35:00,44.6,28.1,30.12,SW,227,5.0,11.0,52,0.00,,,0.00,VWS V14.01,2013-01-19 17:35:00,
2013-01-19 12:36:00,44.6,28.1,30.12,SSW,207,2.0,11.0,52,0.00,,,0.00,VWS V14.01,2013-01-19 17:36:00,
2013-01-19 12:37:00,44.6,28.1,30.12,SSW,207,2.0,11.0,52,0.00,,,0.00,VWS V14.01,2013-01-19 17:37:00,
2013-01-19 12:38:00,44.6,28.1,30.12,SSW,207,2.0,11.0,52,0.00,,,0.00,VWS V14.01,2013-01-19 17:38:00,
2013-01-19 12:39:00,44.5,28.5,30.12,WSW,245,7.0,11.0,53,0.00,,,0.00,VWS V14.01,2013-01-19 17:39:00,
2013-01-19 12:40:00,44.4,28.4,30.12,SSW,209,5.0,11.0,53,0.00,,,0.00,VWS V14.01,2013-01-19 17:40:00,
2013-01-19 12:41:00,44.4,28.4,30.12,South,190,4.0,5.0,53,0.00,,,0.00,VWS V14.01,2013-01-19 17:41:00,
2013-01-19 12:42:00,44.4,28.4,30.12,South,190,4.0,5.0,53,0.00,,,0.00,VWS V14.01,2013-01-19 17:42:00,
2013-01-19 12:43:00,44.4,28.4,30.12,South,190,4.0,5.0,53,0.00,,,0.00,VWS V14.01,2013-01-19 17:43:00,
2013-01-19 12:44:00,44.3,28.7,30.12,SSW,211,3.0,5.0,54,0.00,,,0.00,VWS V14.01,2013-01-19 17:44:00,
2013-01-19 12:45:00,44.3,28.7,30.12,West,275,10.0,10.0,54,0.00,,,0.00,VWS V14.01,2013-01-19 17:45:00,
2013-01-19 12:46:00,44.2,28.6,30.12,SW,230,5.0,10.0,54,0.00,,,0.00,VWS V14.01,2013-01-19 17:46:00,
2013-01-19 12:47:00,44.2,28.6,30.12,SW,230,5.0,10.0,54,0.00,,,0.00,VWS V14.01,2013-01-19 17:47:00,
2013-01-19 12:48:00,44.2,28.6,30.12,SW,230,5.0,10.0,54,0.00,,,0.00,VWS V14.01,2013-01-19 17:48:00,
2013-01-19 12:49:00,44.1,28.5,30.12,West,266,6.0,10.0,54,0.00,,,0.00,VWS V14.01,2013-01-19 17:49:00,
2013-01-19 12:50:00,44.1,28.5,30.12,WNW,287,2.0,10.0,54,0.00,,,0.00,VWS V14.01,2013-01-19 17:50:00,
2013-01-19 12:51:00,44.1,28.5,30.12,WSW,249,2.0,5.0,54,0.00,,,0.00,VWS V14.01,2013-01-19 17:51:00,
2013-01-19 12:52:00,44.1,28.5,30.12,WSW,249,2.0,5.0,54,0.00,,,0.00,VWS V14.01,2013-01-19 17:52:00,
2013-01-19 12:53:00,44.1,28.5,30.12,WSW,249,2.0,5.0,54,0.00,,,0.00,VWS V14.01,2013-01-19 17:53:00,
2013-01-19 12:54:00,44.1,29.0,30.12,SW,226,1.0,5.0,55,0.00,,,0.00,VWS V14.01,2013-01-19 17:54:00,
2013-01-19 12:55:00,44.1,29.0,30.12,SW,233,1.0,5.0,55,0.00,,,0.00,VWS V14.01,2013-01-19 17:55:00,
2013-01-19 12:56:00,44.1,29.0,30.12,SW,233,0.0,5.0,55,0.00,,,0.00,VWS V14.01,2013-01-19 17:56:00,
2013-01-19 12:57:00,44.1,29.0,30.12,SW,233,0.0,5.0,55,0.00,,,0.00,VWS V14.01,2013-01-19 17:57:00,
2013-01-19 12:58:00,44.1,29.0,30.12,SW,233,0.0,5.0,55,0.00,,,0.00,VWS V14.01,2013-01-19 17:58:00,
2013-01-19 12:59:00,44.1,29.0,30.11,West,273,4.0,5.0,55,0.00,,,0.00,VWS V14.01,2013-01-19 17:59:00,
2013-01-19 13:00:00,44.1,29.0,30.11,SW,225,2.0,2.0,55,0.00,,,0.00,VWS V14.01,2013-01-19 18:00:00,
2013-01-19 13:01:00,44.1,28.5,30.11,SSW,210,4.0,4.0,54,0.00,,,0.00,VWS V14.01,2013-01-19 18:01:00,
2013-01-19 13:02:00,44.1,28.5,30.11,SSW,210,4.0,4.0,54,0.00,,,0.00,VWS V14.01,2013-01-19 18:02:00,
2013-01-19 13:03:00,44.1,28.5,30.11,SSW,210,4.0,4.0,54,0.00,,,0.00,VWS V14.01,2013-01-19 18:03:00,
2013-01-19 13:04:00,44.0,28.9,30.11,WSW,249,3.0,6.0,55,0.00,,,0.00,VWS V14.01,2013-01-19 18:04:00,
2013-01-19 13:05:00,44.0,28.4,30.11,West,267,3.0,6.0,54,0.00,,,0.00,VWS V14.01,2013-01-19 18:05:00,
2013-01-19 13:06:00,44.0,28.9,30.11,SW,227,3.0,6.0,55,0.00,,,0.00,VWS V14.01,2013-01-19 18:06:00,
2013-01-19 13:07:00,44.0,28.9,30.11,SW,227,3.0,6.0,55,0.00,,,0.00,VWS V14.01,2013-01-19 18:07:00,
2013-01-19 13:08:00,44.0,28.9,30.11,SW,227,3.0,6.0,55,0.00,,,0.00,VWS V14.01,2013-01-19 18:08:00,
2013-01-19 13:09:00,44.0,28.9,30.11,WSW,253,8.0,8.0,55,0.00,,,0.00,VWS V14.01,2013-01-19 18:09:00,
2013-01-19 13:10:00,43.9,28.4,30.11,West,263,11.0,16.0,54,0.00,,,0.00,VWS V14.01,2013-01-19 18:10:00,
2013-01-19 13:11:00,43.9,27.9,30.11,West,267,8.0,12.0,53,0.00,,,0.00,VWS V14.01,2013-01-19 18:11:00,
2013-01-19 13:12:00,43.9,27.9,30.11,West,268,8.0,12.0,53,0.00,,,0.00,VWS V14.01,2013-01-19 18:12:00,
2013-01-19 13:13:00,43.9,27.9,30.11,West,268,8.0,12.0,53,0.00,,,0.00,VWS V14.01,2013-01-19 18:13:00,
2013-01-19 13:14:00,43.7,28.2,30.11,WSW,239,0.0,12.0,54,0.00,,,0.00,VWS V14.01,2013-01-19 18:14:00,
2013-01-19 13:15:00,43.7,28.2,30.11,West,274,6.0,12.0,54,0.00,,,0.00,VWS V14.01,2013-01-19 18:15:00,
2013-01-19 13:16:00,43.7,28.2,30.11,West,262,4.0,12.0,54,0.00,,,0.00,VWS V14.01,2013-01-19 18:16:00,
2013-01-19 13:17:00,43.7,28.2,30.11,West,262,4.0,12.0,54,0.00,,,0.00,VWS V14.01,2013-01-19 18:17:00,
2013-01-19 13:18:00,43.7,28.2,30.11,West,262,4.0,12.0,54,0.00,,,0.00,VWS V14.01,2013-01-19 18:18:00,
2013-01-19 13:19:00,43.6,28.1,30.11,SW,229,2.0,12.0,54,0.00,,,0.00,VWS V14.01,2013-01-19 18:19:00,
2013-01-19 13:20:00,43.6,28.1,30.11,WSW,250,8.0,12.0,54,0.00,,,0.00,VWS V14.01,2013-01-19 18:20:00,
2013-01-19 13:21:00,43.6,28.1,30.11,SW,218,3.0,10.0,54,0.00,,,0.00,VWS V14.01,2013-01-19 18:21:00,
2013-01-19 13:22:00,43.6,28.1,30.11,SW,218,3.0,10.0,54,0.00,,,0.00,VWS V14.01,2013-01-19 18:22:00,
2013-01-19 13:23:00,43.6,28.1,30.11,SW,218,3.0,10.0,54,0.00,,,0.00,VWS V14.01,2013-01-19 18:23:00,
2013-01-19 13:24:00,43.6,28.1,30.11,WSW,252,4.0,10.0,54,0.00,,,0.00,VWS V14.01,2013-01-19 18:24:00,
2013-01-19 13:25:00,43.5,28.0,30.11,West,271,13.0,15.0,54,0.00,,,0.00,VWS V14.01,2013-01-19 18:25:00,
2013-01-19 13:26:00,43.5,28.0,30.11,WSW,240,3.0,15.0,54,0.00,,,0.00,VWS V14.01,2013-01-19 18:26:00,
2013-01-19 13:27:00,43.5,28.0,30.11,WSW,240,3.0,15.0,54,0.00,,,0.00,VWS V14.01,2013-01-19 18:27:00,
2013-01-19 13:28:00,43.5,28.0,30.11,WSW,240,3.0,15.0,54,0.00,,,0.00,VWS V14.01,2013-01-19 18:28:00,
2013-01-19 13:29:00,43.5,28.4,30.10,WSW,258,4.0,15.0,55,0.00,,,0.00,VWS V14.01,2013-01-19 18:29:00,
2013-01-19 13:30:00,43.5,28.4,30.10,SSW,213,2.0,15.0,55,0.00,,,0.00,VWS V14.01,2013-01-19 18:30:00,
2013-01-19 13:31:00,43.5,28.4,30.10,SSW,193,4.0,6.0,55,0.00,,,0.00,VWS V14.01,2013-01-19 18:31:00,
2013-01-19 13:32:00,43.5,28.4,30.10,SSW,193,4.0,6.0,55,0.00,,,0.00,VWS V14.01,2013-01-19 18:32:00,
2013-01-19 13:33:00,43.5,28.4,30.10,SSW,193,4.0,6.0,55,0.00,,,0.00,VWS V14.01,2013-01-19 18:33:00,
2013-01-19 13:34:00,43.5,28.0,30.10,WSW,249,4.0,7.0,54,0.00,,,0.00,VWS V14.01,2013-01-19 18:34:00,
2013-01-19 13:35:00,43.5,28.4,30.10,SW,227,4.0,7.0,55,0.00,,,0.00,VWS V14.01,2013-01-19 18:35:00,
2013-01-19 13:36:00,43.5,28.0,30.10,West,267,6.0,8.0,54,0.00,,,0.00,VWS V14.01,2013-01-19 18:36:00,
2013-01-19 13:37:00,43.5,28.0,30.10,West,267,6.0,8.0,54,0.00,,,0.00,VWS V14.01,2013-01-19 18:37:00,
2013-01-19 13:38:00,43.5,28.0,30.10,West,267,6.0,8.0,54,0.00,,,0.00,VWS V14.01,2013-01-19 18:38:00,
2013-01-19 13:39:00,43.6,28.5,30.10,West,269,5.0,8.0,55,0.00,,,0.00,VWS V14.01,2013-01-19 18:39:00,
2013-01-19 13:40:00,43.6,28.5,30.10,WNW,289,6.0,8.0,55,0.00,,,0.00,VWS V14.01,2013-01-19 18:40:00,
2013-01-19 13:41:00,43.6,28.5,30.10,West,267,6.0,8.0,55,0.00,,,0.00,VWS V14.01,2013-01-19 18:41:00,
2013-01-19 13:43:00,43.6,28.5,30.10,West,267,6.0,8.0,55,0.00,,,0.00,VWS V14.01,2013-01-19 18:43:00,
2013-01-19 13:44:00,43.6,28.5,30.10,West,279,0.0,8.0,55,0.00,,,0.00,VWS V14.01,2013-01-19 18:44:00,
2013-01-19 13:45:00,43.6,28.1,30.10,WNW,282,0.0,8.0,54,0.00,,,0.00,VWS V14.01,2013-01-19 18:45:00,
2013-01-19 13:46:00,43.6,28.1,30.10,SW,225,2.0,8.0,54,0.00,,,0.00,VWS V14.01,2013-01-19 18:46:00,
2013-01-19 13:47:00,43.6,28.1,30.10,SW,225,2.0,8.0,54,0.00,,,0.00,VWS V14.01,2013-01-19 18:47:00,
2013-01-19 13:48:00,43.6,28.1,30.10,SW,225,2.0,8.0,54,0.00,,,0.00,VWS V14.01,2013-01-19 18:48:00,
2013-01-19 13:49:00,43.7,28.2,30.10,SW,214,3.0,8.0,54,0.00,,,0.00,VWS V14.01,2013-01-19 18:49:00,
2013-01-19 13:50:00,43.7,28.2,30.10,WSW,250,4.0,8.0,54,0.00,,,0.00,VWS V14.01,2013-01-19 18:50:00,
2013-01-19 13:51:00,43.7,28.2,30.10,WSW,250,6.0,7.0,54,0.00,,,0.00,VWS V14.01,2013-01-19 18:51:00,
2013-01-19 13:52:00,43.7,28.2,30.10,WSW,248,6.0,7.0,54,0.00,,,0.00,VWS V14.01,2013-01-19 18:52:00,
2013-01-19 13:53:00,43.7,28.2,30.10,WSW,248,6.0,7.0,54,0.00,,,0.00,VWS V14.01,2013-01-19 18:53:00,
2013-01-19 13:54:00,43.8,28.2,30.10,West,259,3.0,7.0,54,0.00,,,0.00,VWS V14.01,2013-01-19 18:54:00,
2013-01-19 13:55:00,43.8,28.2,30.10,SW,227,2.0,7.0,54,0.00,,,0.00,VWS V14.01,2013-01-19 18:55:00,
2013-01-19 13:57:00,43.8,28.2,30.10,West,260,7.0,7.0,54,0.00,,,0.00,VWS V14.01,2013-01-19 18:57:00,
2013-01-19 13:58:00,43.8,28.2,30.10,West,260,7.0,7.0,54,0.00,,,0.00,VWS V14.01,2013-01-19 18:58:00,
2013-01-19 13:59:00,43.9,28.4,30.09,WSW,248,0.0,7.0,54,0.00,,,0.00,VWS V14.01,2013-01-19 18:59:00,
2013-01-19 14:00:00,43.9,28.4,30.09,SSW,202,3.0,7.0,54,0.00,,,0.00,VWS V14.01,2013-01-19 19:00:00,
2013-01-19 14:01:00,43.9,28.4,30.09,SW,218,1.0,3.0,54,0.00,,,0.00,VWS V14.01,2013-01-19 19:01:00,
2013-01-19 14:02:00,43.9,28.4,30.09,SW,218,1.0,3.0,54,0.00,,,0.00,VWS V14.01,2013-01-19 19:02:00,
2013-01-19 14:03:00,43.9,28.4,30.09,SW,218,1.0,3.0,54,0.00,,,0.00,VWS V14.01,2013-01-19 19:03:00,
2013-01-19 14:04:00,44.0,28.4,30.09,WSW,248,3.0,7.0,54,0.00,,,0.00,VWS V14.01,2013-01-19 19:04:00,
2013-01-19 14:05:00,44.0,28.4,30.09,SW,234,7.0,7.0,54,0.00,,,0.00,VWS V14.01,2013-01-19 19:05:00,
2013-01-19 14:06:00,44.0,28.4,30.09,SSW,202,4.0,7.0,54,0.00,,,0.00,VWS V14.01,2013-01-19 19:06:00,
2013-01-19 14:07:00,44.0,28.4,30.09,SSW,202,4.0,7.0,54,0.00,,,0.00,VWS V14.01,2013-01-19 19:07:00,
2013-01-19 14:08:00,44.0,28.4,30.09,SSW,202,4.0,7.0,54,0.00,,,0.00,VWS V14.01,2013-01-19 19:08:00,
2013-01-19 14:09:00,44.1,28.1,30.09,WSW,244,12.0,12.0,53,0.00,,,0.00,VWS V14.01,2013-01-19 19:09:00,
2013-01-19 14:10:00,44.1,28.1,30.09,SW,223,4.0,12.0,53,0.00,,,0.00,VWS V14.01,2013-01-19 19:10:00,
2013-01-19 14:11:00,44.2,28.2,30.09,SW,227,1.0,5.0,53,0.00,,,0.00,VWS V14.01,2013-01-19 19:11:00,
2013-01-19 14:12:00,44.2,28.2,30.09,SW,227,1.0,5.0,53,0.00,,,0.00,VWS V14.01,2013-01-19 19:12:00,
2013-01-19 14:13:00,44.2,28.2,30.09,SW,227,1.0,5.0,53,0.00,,,0.00,VWS V14.01,2013-01-19 19:13:00,
2013-01-19 14:14:00,44.2,28.2,30.08,West,273,5.0,6.0,53,0.00,,,0.00,VWS V14.01,2013-01-19 19:14:00,
2013-01-19 14:15:00,44.2,28.2,30.08,West,281,3.0,6.0,53,0.00,,,0.00,VWS V14.01,2013-01-19 19:15:00,
2013-01-19 14:16:00,44.3,28.3,30.08,WNW,286,4.0,6.0,53,0.00,,,0.00,VWS V14.01,2013-01-19 19:16:00,
2013-01-19 14:17:00,44.3,28.3,30.08,WNW,286,4.0,6.0,53,0.00,,,0.00,VWS V14.01,2013-01-19 19:17:00,
2013-01-19 14:18:00,44.3,28.3,30.08,WNW,286,4.0,6.0,53,0.00,,,0.00,VWS V14.01,2013-01-19 19:18:00,
2013-01-19 14:19:00,44.4,28.4,30.08,SW,232,3.0,6.0,53,0.00,,,0.00,VWS V14.01,2013-01-19 19:19:00,
2013-01-19 14:20:00,44.4,28.4,30.08,West,266,0.0,6.0,53,0.00,,,0.00,VWS V14.01,2013-01-19 19:20:00,
2013-01-19 14:22:00,44.4,28.4,30.08,SW,223,0.0,4.0,53,0.00,,,0.00,VWS V14.01,2013-01-19 19:22:00,
2013-01-19 14:23:00,44.4,28.4,30.08,SW,223,0.0,4.0,53,0.00,,,0.00,VWS V14.01,2013-01-19 19:23:00,
2013-01-19 14:24:00,44.4,27.9,30.08,SW,236,1.0,8.0,52,0.00,,,0.00,VWS V14.01,2013-01-19 19:24:00,
2013-01-19 14:25:00,44.5,28.0,30.08,WNW,294,0.0,8.0,52,0.00,,,0.00,VWS V14.01,2013-01-19 19:25:00,
2013-01-19 14:26:00,44.5,28.0,30.08,SW,236,1.0,8.0,52,0.00,,,0.00,VWS V14.01,2013-01-19 19:26:00,
2013-01-19 14:27:00,44.5,28.0,30.08,WSW,239,3.0,8.0,52,0.00,,,0.00,VWS V14.01,2013-01-19 19:27:00,
2013-01-19 14:28:00,44.5,28.0,30.08,WSW,239,3.0,8.0,52,0.00,,,0.00,VWS V14.01,2013-01-19 19:28:00,
2013-01-19 14:29:00,44.5,28.0,30.08,WSW,257,2.0,8.0,52,0.00,,,0.00,VWS V14.01,2013-01-19 19:29:00,
2013-01-19 14:30:00,44.5,28.0,30.08,West,263,4.0,8.0,52,0.00,,,0.00,VWS V14.01,2013-01-19 19:30:00,
2013-01-19 14:31:00,44.6,28.1,30.08,West,261,2.0,7.0,52,0.00,,,0.00,VWS V14.01,2013-01-19 19:31:00,
2013-01-19 14:32:00,44.6,28.1,30.08,West,261,2.0,7.0,52,0.00,,,0.00,VWS V14.01,2013-01-19 19:32:00,
2013-01-19 14:33:00,44.6,28.1,30.08,West,261,2.0,7.0,52,0.00,,,0.00,VWS V14.01,2013-01-19 19:33:00,
2013-01-19 14:34:00,44.6,28.1,30.08,WSW,246,0.0,7.0,52,0.00,,,0.00,VWS V14.01,2013-01-19 19:34:00,
2013-01-19 14:35:00,44.6,28.1,30.08,WSW,243,4.0,7.0,52,0.00,,,0.00,VWS V14.01,2013-01-19 19:35:00,
2013-01-19 14:36:00,44.6,28.1,30.08,West,276,1.0,7.0,52,0.00,,,0.00,VWS V14.01,2013-01-19 19:36:00,
2013-01-19 14:37:00,44.6,28.1,30.08,West,276,1.0,7.0,52,0.00,,,0.00,VWS V14.01,2013-01-19 19:37:00,
2013-01-19 14:38:00,44.6,28.1,30.08,West,276,1.0,7.0,52,0.00,,,0.00,VWS V14.01,2013-01-19 19:38:00,
2013-01-19 14:39:00,44.7,28.2,30.08,WSW,243,5.0,7.0,52,0.00,,,0.00,VWS V14.01,2013-01-19 19:39:00,
2013-01-19 14:40:00,44.7,28.2,30.08,WSW,252,3.0,7.0,52,0.00,,,0.00,VWS V14.01,2013-01-19 19:40:00,
2013-01-19 14:41:00,44.7,28.2,30.08,WSW,251,1.0,3.0,52,0.00,,,0.00,VWS V14.01,2013-01-19 19:41:00,
2013-01-19 14:42:00,44.7,28.2,30.08,WSW,251,1.0,3.0,52,0.00,,,0.00,VWS V14.01,2013-01-19 19:42:00,
2013-01-19 14:43:00,44.7,28.2,30.08,WSW,251,1.0,3.0,52,0.00,,,0.00,VWS V14.01,2013-01-19 19:43:00,
2013-01-19 14:44:00,44.7,28.2,30.08,SSW,208,11.0,11.0,52,0.00,,,0.00,VWS V14.01,2013-01-19 19:44:00,
2013-01-19 14:45:00,44.7,28.2,30.08,West,275,4.0,11.0,52,0.00,,,0.00,VWS V14.01,2013-01-19 19:45:00,
2013-01-19 14:46:00,44.7,27.7,30.08,WNW,287,3.0,11.0,51,0.00,,,0.00,VWS V14.01,2013-01-19 19:46:00,
2013-01-19 14:47:00,44.7,27.7,30.08,WNW,287,1.0,11.0,51,0.00,,,0.00,VWS V14.01,2013-01-19 19:47:00,
2013-01-19 14:48:00,44.7,27.7,30.08,WNW,287,1.0,11.0,51,0.00,,,0.00,VWS V14.01,2013-01-19 19:48:00,
2013-01-19 14:49:00,44.8,27.8,30.08,WSW,239,6.0,11.0,51,0.00,,,0.00,VWS V14.01,2013-01-19 19:49:00,
2013-01-19 14:50:00,44.8,27.8,30.08,WSW,248,5.0,11.0,51,0.00,,,0.00,VWS V14.01,2013-01-19 19:50:00,
2013-01-19 14:51:00,44.9,27.9,30.08,SW,227,7.0,9.0,51,0.00,,,0.00,VWS V14.01,2013-01-19 19:51:00,
2013-01-19 14:52:00,44.9,27.9,30.08,SW,227,7.0,9.0,51,0.00,,,0.00,VWS V14.01,2013-01-19 19:52:00,
2013-01-19 14:53:00,44.9,27.9,30.08,SW,227,7.0,9.0,51,0.00,,,0.00,VWS V14.01,2013-01-19 19:53:00,
2013-01-19 14:54:00,44.9,27.4,30.08,West,265,2.0,9.0,50,0.00,,,0.00,VWS V14.01,2013-01-19 19:54:00,
2013-01-19 14:55:00,44.9,27.4,30.08,SW,224,4.0,9.0,50,0.00,,,0.00,VWS V14.01,2013-01-19 19:55:00,
2013-01-19 14:56:00,44.9,27.4,30.08,WSW,254,4.0,9.0,50,0.00,,,0.00,VWS V14.01,2013-01-19 19:56:00,
2013-01-19 14:57:00,44.9,27.4,30.08,WSW,254,4.0,9.0,50,0.00,,,0.00,VWS V14.01,2013-01-19 19:57:00,
2013-01-19 14:58:00,44.9,27.4,30.08,WSW,254,4.0,9.0,50,0.00,,,0.00,VWS V14.01,2013-01-19 19:58:00,
2013-01-19 14:59:00,44.9,27.9,30.07,WNW,293,2.0,9.0,51,0.00,,,0.00,VWS V14.01,2013-01-19 19:59:00,
2013-01-19 15:00:00,44.9,27.9,30.07,WNW,282,2.0,4.0,51,0.00,,,0.00,VWS V14.01,2013-01-19 20:00:00,
2013-01-19 15:01:00,44.9,27.4,30.07,WSW,256,3.0,4.0,50,0.00,,,0.00,VWS V14.01,2013-01-19 20:01:00,
2013-01-19 15:02:00,44.9,27.4,30.07,WSW,256,3.0,4.0,50,0.00,,,0.00,VWS V14.01,2013-01-19 20:02:00,
2013-01-19 15:03:00,44.9,27.4,30.07,WSW,256,3.0,4.0,50,0.00,,,0.00,VWS V14.01,2013-01-19 20:03:00,
2013-01-19 15:04:00,44.9,27.4,30.07,WNW,288,3.0,5.0,50,0.00,,,0.00,VWS V14.01,2013-01-19 20:04:00,
2013-01-19 15:05:00,44.9,27.4,30.07,WSW,244,1.0,5.0,50,0.00,,,0.00,VWS V14.01,2013-01-19 20:05:00,
2013-01-19 15:06:00,44.9,27.4,30.07,WNW,290,5.0,5.0,50,0.00,,,0.00,VWS V14.01,2013-01-19 20:06:00,
2013-01-19 15:07:00,44.9,27.4,30.07,WNW,290,5.0,5.0,50,0.00,,,0.00,VWS V14.01,2013-01-19 20:07:00,
2013-01-19 15:08:00,44.9,27.4,30.07,WNW,290,5.0,5.0,50,0.00,,,0.00,VWS V14.01,2013-01-19 20:08:00,
2013-01-19 15:09:00,44.8,27.3,30.07,West,271,4.0,5.0,50,0.00,,,0.00,VWS V14.01,2013-01-19 20:09:00,
2013-01-19 15:10:00,44.8,27.3,30.07,West,259,3.0,10.0,50,0.00,,,0.00,VWS V14.01,2013-01-19 20:10:00,
2013-01-19 15:11:00,44.8,27.3,30.07,SW,227,2.0,6.0,50,0.00,,,0.00,VWS V14.01,2013-01-19 20:11:00,
2013-01-19 15:12:00,44.8,27.3,30.07,SW,227,2.0,6.0,50,0.00,,,0.00,VWS V14.01,2013-01-19 20:12:00,
2013-01-19 15:13:00,44.8,27.3,30.07,West,276,5.0,6.0,50,0.00,,,0.00,VWS V14.01,2013-01-19 20:13:00,
2013-01-19 15:14:00,44.8,27.3,30.07,SW,227,5.0,6.0,50,0.00,,,0.00,VWS V14.01,2013-01-19 20:14:00,
2013-01-19 15:16:00,44.8,27.3,30.07,SW,236,0.0,6.0,50,0.00,,,0.00,VWS V14.01,2013-01-19 20:16:00,
2013-01-19 15:17:00,44.8,27.3,30.07,SW,236,0.0,6.0,50,0.00,,,0.00,VWS V14.01,2013-01-19 20:17:00,
2013-01-19 15:18:00,44.8,27.3,30.07,SW,236,0.0,6.0,50,0.00,,,0.00,VWS V14.01,2013-01-19 20:18:00,
2013-01-19 15:19:00,44.8,27.3,30.07,West,275,2.0,6.0,50,0.00,,,0.00,VWS V14.01,2013-01-19 20:19:00,
2013-01-19 15:20:00,44.8,27.3,30.07,West,271,5.0,10.0,50,0.00,,,0.00,VWS V14.01,2013-01-19 20:20:00,
2013-01-19 15:21:00,44.8,27.3,30.07,WSW,249,3.0,6.0,50,0.00,,,0.00,VWS V14.01,2013-01-19 20:21:00,
2013-01-19 15:22:00,44.8,27.3,30.07,WSW,250,3.0,6.0,50,0.00,,,0.00,VWS V14.01,2013-01-19 20:22:00,
2013-01-19 15:23:00,44.8,27.3,30.07,WSW,250,3.0,6.0,50,0.00,,,0.00,VWS V14.01,2013-01-19 20:23:00,
2013-01-19 15:24:00,44.8,27.3,30.07,WNW,288,0.0,6.0,50,0.00,,,0.00,VWS V14.01,2013-01-19 20:24:00,
2013-01-19 15:25:00,44.8,27.3,30.07,WNW,288,0.0,6.0,50,0.00,,,0.00,VWS V14.01,2013-01-19 20:25:00,
2013-01-19 15:26:00,44.8,27.8,30.07,West,264,2.0,6.0,51,0.00,,,0.00,VWS V14.01,2013-01-19 20:26:00,
2013-01-19 15:27:00,44.8,27.8,30.07,West,264,2.0,6.0,51,0.00,,,0.00,VWS V14.01,2013-01-19 20:27:00,
2013-01-19 15:28:00,44.8,27.8,30.07,West,264,2.0,6.0,51,0.00,,,0.00,VWS V14.01,2013-01-19 20:28:00,
2013-01-19 15:29:00,44.7,27.2,30.06,West,271,2.0,6.0,50,0.00,,,0.00,VWS V14.01,2013-01-19 20:29:00,
2013-01-19 15:30:00,44.7,27.2,30.06,West,271,1.0,6.0,50,0.00,,,0.00,VWS V14.01,2013-01-19 20:30:00,
2013-01-19 15:31:00,44.7,27.2,30.06,West,269,2.0,3.0,50,0.00,,,0.00,VWS V14.01,2013-01-19 20:31:00,
2013-01-19 15:32:00,44.7,27.2,30.06,West,269,2.0,3.0,50,0.00,,,0.00,VWS V14.01,2013-01-19 20:32:00,
2013-01-19 15:33:00,44.7,27.2,30.06,West,269,2.0,3.0,50,0.00,,,0.00,VWS V14.01,2013-01-19 20:33:00,
2013-01-19 15:34:00,44.7,27.7,30.06,WNW,288,0.0,3.0,51,0.00,,,0.00,VWS V14.01,2013-01-19 20:34:00,
2013-01-19 15:35:00,44.7,27.7,30.06,WNW,287,3.0,3.0,51,0.00,,,0.00,VWS V14.01,2013-01-19 20:35:00,
2013-01-19 15:36:00,44.7,27.7,30.06,West,278,0.0,3.0,51,0.00,,,0.00,VWS V14.01,2013-01-19 20:36:00,
2013-01-19 15:37:00,44.7,27.7,30.06,West,278,0.0,3.0,51,0.00,,,0.00,VWS V14.01,2013-01-19 20:37:00,
2013-01-19 15:38:00,44.7,27.7,30.06,West,278,0.0,3.0,51,0.00,,,0.00,VWS V14.01,2013-01-19 20:38:00,
2013-01-19 15:39:00,44.6,27.1,30.06,SW,226,0.0,3.0,50,0.00,,,0.00,VWS V14.01,2013-01-19 20:39:00,
2013-01-19 15:40:00,44.6,27.1,30.06,West,264,4.0,4.0,50,0.00,,,0.00,VWS V14.01,2013-01-19 20:40:00,
2013-01-19 15:41:00,44.6,27.1,30.06,West,263,1.0,4.0,50,0.00,,,0.00,VWS V14.01,2013-01-19 20:41:00,
2013-01-19 15:42:00,44.6,27.1,30.06,West,263,1.0,4.0,50,0.00,,,0.00,VWS V14.01,2013-01-19 20:42:00,
2013-01-19 15:43:00,44.6,27.1,30.06,West,263,1.0,4.0,50,0.00,,,0.00,VWS V14.01,2013-01-19 20:43:00,
2013-01-19 15:44:00,44.6,27.1,30.06,West,265,0.0,4.0,50,0.00,,,0.00,VWS V14.01,2013-01-19 20:44:00,
2013-01-19 15:45:00,44.6,27.1,30.06,West,265,1.0,4.0,50,0.00,,,0.00,VWS V14.01,2013-01-19 20:45:00,
2013-01-19 15:46:00,44.6,27.6,30.06,West,265,2.0,4.0,51,0.00,,,0.00,VWS V14.01,2013-01-19 20:46:00,
2013-01-19 15:47:00,44.6,27.6,30.06,West,261,7.0,7.0,51,0.00,,,0.00,VWS V14.01,2013-01-19 20:47:00,
2013-01-19 15:48:00,44.6,27.6,30.06,West,261,7.0,7.0,51,0.00,,,0.00,VWS V14.01,2013-01-19 20:48:00,
2013-01-19 15:49:00,44.7,27.2,30.06,WSW,249,3.0,7.0,50,0.00,,,0.00,VWS V14.01,2013-01-19 20:49:00,
2013-01-19 15:50:00,44.7,26.7,30.06,WSW,249,2.0,7.0,49,0.00,,,0.00,VWS V14.01,2013-01-19 20:50:00,
2013-01-19 15:51:00,44.7,26.7,30.06,WNW,283,5.0,5.0,49,0.00,,,0.00,VWS V14.01,2013-01-19 20:51:00,
2013-01-19 15:52:00,44.7,26.7,30.06,WNW,283,5.0,5.0,49,0.00,,,0.00,VWS V14.01,2013-01-19 20:52:00,
2013-01-19 15:53:00,44.7,26.7,30.06,WNW,283,5.0,5.0,49,0.00,,,0.00,VWS V14.01,2013-01-19 20:53:00,
2013-01-19 15:54:00,44.7,27.2,30.06,West,279,4.0,5.0,50,0.00,,,0.00,VWS V14.01,2013-01-19 20:54:00,
2013-01-19 15:55:00,44.7,27.2,30.06,West,279,1.0,5.0,50,0.00,,,0.00,VWS V14.01,2013-01-19 20:55:00,
2013-01-19 15:56:00,44.7,27.2,30.06,West,279,0.0,5.0,50,0.00,,,0.00,VWS V14.01,2013-01-19 20:56:00,
2013-01-19 15:57:00,44.7,27.2,30.06,West,279,0.0,5.0,50,0.00,,,0.00,VWS V14.01,2013-01-19 20:57:00,
2013-01-19 15:58:00,44.7,27.2,30.06,West,279,0.0,5.0,50,0.00,,,0.00,VWS V14.01,2013-01-19 20:58:00,
2013-01-19 15:59:00,44.7,27.2,30.06,SW,216,3.0,5.0,50,0.00,,,0.00,VWS V14.01,2013-01-19 20:59:00,
2013-01-19 16:00:00,44.7,27.2,30.06,SW,233,3.0,5.0,50,0.00,,,0.00,VWS V14.01,2013-01-19 21:00:00,
2013-01-19 16:01:00,44.7,27.2,30.06,SSW,205,3.0,6.0,50,0.00,,,0.00,VWS V14.01,2013-01-19 21:01:00,
2013-01-19 16:02:00,44.7,27.2,30.06,SSW,205,3.0,6.0,50,0.00,,,0.00,VWS V14.01,2013-01-19 21:02:00,
2013-01-19 16:03:00,44.7,27.2,30.06,SSW,205,3.0,6.0,50,0.00,,,0.00,VWS V14.01,2013-01-19 21:03:00,
2013-01-19 16:04:00,44.6,27.1,30.06,West,276,1.0,6.0,50,0.00,,,0.00,VWS V14.01,2013-01-19 21:04:00,
2013-01-19 16:05:00,44.6,27.1,30.06,West,266,1.0,6.0,50,0.00,,,0.00,VWS V14.01,2013-01-19 21:05:00,
2013-01-19 16:06:00,44.6,27.1,30.06,West,281,1.0,6.0,50,0.00,,,0.00,VWS V14.01,2013-01-19 21:06:00,
2013-01-19 16:07:00,44.6,27.1,30.06,West,281,1.0,6.0,50,0.00,,,0.00,VWS V14.01,2013-01-19 21:07:00,
2013-01-19 16:08:00,44.6,27.1,30.06,West,281,1.0,6.0,50,0.00,,,0.00,VWS V14.01,2013-01-19 21:08:00,
2013-01-19 16:10:00,44.7,26.7,30.06,WSW,254,0.0,6.0,49,0.00,,,0.00,VWS V14.01,2013-01-19 21:10:00,
2013-01-19 16:12:00,44.7,27.2,30.06,WSW,253,0.0,0.0,50,0.00,,,0.00,VWS V14.01,2013-01-19 21:12:00,
2013-01-19 16:13:00,44.7,27.2,30.06,WSW,253,0.0,0.0,50,0.00,,,0.00,VWS V14.01,2013-01-19 21:13:00,
2013-01-19 16:14:00,44.7,27.2,30.05,West,260,1.0,4.0,50,0.00,,,0.00,VWS V14.01,2013-01-19 21:14:00,
2013-01-19 16:15:00,44.7,27.2,30.05,West,260,0.0,4.0,50,0.00,,,0.00,VWS V14.01,2013-01-19 21:15:00,
2013-01-19 16:16:00,44.7,27.2,30.05,West,266,5.0,5.0,50,0.00,,,0.00,VWS V14.01,2013-01-19 21:16:00,
2013-01-19 16:17:00,44.7,27.2,30.05,West,277,3.0,5.0,50,0.00,,,0.00,VWS V14.01,2013-01-19 21:17:00,
2013-01-19 16:18:00,44.7,27.2,30.05,West,279,0.0,5.0,50,0.00,,,0.00,VWS V14.01,2013-01-19 21:18:00,
2013-01-19 16:19:00,44.7,27.2,30.05,West,271,3.0,5.0,50,0.00,,,0.00,VWS V14.01,2013-01-19 21:19:00,
2013-01-19 16:20:00,44.7,27.2,30.05,SW,223,1.0,3.0,50,0.00,,,0.00,VWS V14.01,2013-01-19 21:20:00,
2013-01-19 16:21:00,44.7,27.2,30.05,WSW,257,4.0,5.0,50,0.00,,,0.00,VWS V14.01,2013-01-19 21:21:00,
2013-01-19 16:23:00,44.7,27.2,30.05,WSW,257,4.0,5.0,50,0.00,,,0.00,VWS V14.01,2013-01-19 21:23:00,
2013-01-19 16:24:00,44.7,27.2,30.05,West,269,3.0,5.0,50,0.00,,,0.00,VWS V14.01,2013-01-19 21:24:00,
2013-01-19 16:25:00,44.7,27.2,30.05,WNW,286,4.0,7.0,50,0.00,,,0.00,VWS V14.01,2013-01-19 21:25:00,
2013-01-19 16:26:00,44.7,26.7,30.05,WNW,286,1.0,7.0,49,0.00,,,0.00,VWS V14.01,2013-01-19 21:26:00,
2013-01-19 16:27:00,44.7,26.7,30.05,WNW,286,1.0,7.0,49,0.00,,,0.00,VWS V14.01,2013-01-19 21:27:00,
2013-01-19 16:28:00,44.7,26.7,30.05,WNW,286,1.0,7.0,49,0.00,,,0.00,VWS V14.01,2013-01-19 21:28:00,
2013-01-19 16:29:00,44.6,27.1,30.05,West,267,1.0,7.0,50,0.00,,,0.00,VWS V14.01,2013-01-19 21:29:00,
2013-01-19 16:30:00,44.6,27.1,30.04,West,259,5.0,7.0,50,0.00,,,0.00,VWS V14.01,2013-01-19 21:30:00,
2013-01-19 16:31:00,44.6,27.1,30.04,West,264,2.0,7.0,50,0.00,,,0.00,VWS V14.01,2013-01-19 21:31:00,
2013-01-19 16:32:00,44.6,27.1,30.04,West,264,2.0,7.0,50,0.00,,,0.00,VWS V14.01,2013-01-19 21:32:00,
2013-01-19 16:33:00,44.6,27.1,30.04,West,264,2.0,7.0,50,0.00,,,0.00,VWS V14.01,2013-01-19 21:33:00,
2013-01-19 16:34:00,44.6,27.6,30.04,WSW,243,1.0,7.0,51,0.00,,,0.00,VWS V14.01,2013-01-19 21:34:00,
2013-01-19 16:35:00,44.6,27.6,30.04,WSW,243,0.0,7.0,51,0.00,,,0.00,VWS V14.01,2013-01-19 21:35:00,
2013-01-19 16:36:00,44.6,27.1,30.04,WSW,243,1.0,7.0,50,0.00,,,0.00,VWS V14.01,2013-01-19 21:36:00,
2013-01-19 16:37:00,44.6,27.1,30.04,WSW,243,1.0,7.0,50,0.00,,,0.00,VWS V14.01,2013-01-19 21:37:00,
2013-01-19 16:38:00,44.6,27.1,30.04,WSW,243,1.0,7.0,50,0.00,,,0.00,VWS V14.01,2013-01-19 21:38:00,
2013-01-19 16:39:00,44.5,27.5,30.04,WSW,246,1.0,7.0,51,0.00,,,0.00,VWS V14.01,2013-01-19 21:39:00,
2013-01-19 16:40:00,44.5,27.5,30.04,WSW,241,3.0,7.0,51,0.00,,,0.00,VWS V14.01,2013-01-19 21:40:00,
2013-01-19 16:41:00,44.4,27.4,30.04,West,271,3.0,3.0,51,0.00,,,0.00,VWS V14.01,2013-01-19 21:41:00,
2013-01-19 16:42:00,44.4,27.4,30.04,West,271,3.0,3.0,51,0.00,,,0.00,VWS V14.01,2013-01-19 21:42:00,
2013-01-19 16:43:00,44.4,27.4,30.04,West,271,3.0,3.0,51,0.00,,,0.00,VWS V14.01,2013-01-19 21:43:00,
2013-01-19 16:44:00,44.3,27.3,30.04,WSW,257,0.0,3.0,51,0.00,,,0.00,VWS V14.01,2013-01-19 21:44:00,
2013-01-19 16:45:00,44.3,27.8,30.04,WSW,257,0.0,3.0,52,0.00,,,0.00,VWS V14.01,2013-01-19 21:45:00,
2013-01-19 16:46:00,44.3,27.8,30.04,WSW,257,0.0,3.0,52,0.00,,,0.00,VWS V14.01,2013-01-19 21:46:00,
2013-01-19 16:47:00,44.3,27.8,30.04,WSW,257,0.0,3.0,52,0.00,,,0.00,VWS V14.01,2013-01-19 21:47:00,
2013-01-19 16:48:00,44.3,27.8,30.04,WSW,257,0.0,3.0,52,0.00,,,0.00,VWS V14.01,2013-01-19 21:48:00,
2013-01-19 16:49:00,44.2,27.7,30.04,WSW,257,0.0,3.0,52,0.00,,,0.00,VWS V14.01,2013-01-19 21:49:00,
2013-01-19 16:50:00,44.2,28.2,30.04,WSW,257,0.0,3.0,53,0.00,,,0.00,VWS V14.01,2013-01-19 21:50:00,
2013-01-19 16:51:00,44.2,28.2,30.04,WSW,257,0.0,0.0,53,0.00,,,0.00,VWS V14.01,2013-01-19 21:51:00,
2013-01-19 16:52:00,44.2,28.2,30.04,WSW,257,0.0,0.0,53,0.00,,,0.00,VWS V14.01,2013-01-19 21:52:00,
2013-01-19 16:53:00,44.2,28.2,30.04,WSW,257,0.0,0.0,53,0.00,,,0.00,VWS V14.01,2013-01-19 21:53:00,
2013-01-19 16:54:00,44.1,28.1,30.04,WSW,246,0.0,0.0,53,0.00,,,0.00,VWS V14.01,2013-01-19 21:54:00,
2013-01-19 16:55:00,44.0,28.0,30.04,WSW,246,0.0,0.0,53,0.00,,,0.00,VWS V14.01,2013-01-19 21:55:00,
2013-01-19 16:56:00,44.0,28.0,30.04,WSW,246,0.0,0.0,53,0.00,,,0.00,VWS V14.01,2013-01-19 21:56:00,
2013-01-19 16:57:00,44.0,28.0,30.04,WSW,246,0.0,0.0,53,0.00,,,0.00,VWS V14.01,2013-01-19 21:57:00,
2013-01-19 16:58:00,44.0,28.0,30.04,WSW,246,0.0,0.0,53,0.00,,,0.00,VWS V14.01,2013-01-19 21:58:00,
2013-01-19 16:59:00,43.9,28.4,30.04,WSW,246,0.0,0.0,54,0.00,,,0.00,VWS V14.01,2013-01-19 21:59:00,
2013-01-19 17:00:00,43.9,28.4,30.04,WSW,246,0.0,0.0,54,0.00,,,0.00,VWS V14.01,2013-01-19 22:00:00,
2013-01-19 17:01:00,43.8,28.2,30.04,WSW,246,0.0,1.0,54,0.00,,,0.00,VWS V14.01,2013-01-19 22:01:00,
2013-01-19 17:03:00,43.8,28.2,30.04,WSW,246,0.0,1.0,54,0.00,,,0.00,VWS V14.01,2013-01-19 22:03:00,
2013-01-19 17:04:00,43.7,28.2,30.04,WSW,246,1.0,1.0,54,0.00,,,0.00,VWS V14.01,2013-01-19 22:04:00,
2013-01-19 17:05:00,43.7,28.2,30.04,WSW,246,1.0,1.0,54,0.00,,,0.00,VWS V14.01,2013-01-19 22:05:00,
2013-01-19 17:06:00,43.7,28.2,30.04,SSE,161,0.0,3.0,54,0.00,,,0.00,VWS V14.01,2013-01-19 22:06:00,
2013-01-19 17:07:00,43.6,28.1,30.04,SSE,161,0.0,3.0,54,0.00,,,0.00,VWS V14.01,2013-01-19 22:07:00,
2013-01-19 17:09:00,43.5,28.0,30.04,SSE,161,0.0,3.0,54,0.00,,,0.00,VWS V14.01,2013-01-19 22:09:00,
2013-01-19 17:10:00,43.5,28.0,30.04,SSE,161,1.0,3.0,54,0.00,,,0.00,VWS V14.01,2013-01-19 22:10:00,
2013-01-19 17:11:00,43.4,27.9,30.04,SSE,161,0.0,1.0,54,0.00,,,0.00,VWS V14.01,2013-01-19 22:11:00,
2013-01-19 17:13:00,43.4,27.9,30.04,SSE,161,0.0,1.0,54,0.00,,,0.00,VWS V14.01,2013-01-19 22:13:00,
2013-01-19 17:14:00,43.3,27.3,30.04,SSE,161,1.0,1.0,53,0.00,,,0.00,VWS V14.01,2013-01-19 22:14:00,
2013-01-19 17:15:00,43.3,27.8,30.04,SSE,161,0.0,1.0,54,0.00,,,0.00,VWS V14.01,2013-01-19 22:15:00,
2013-01-19 17:16:00,43.3,27.8,30.04,SSE,161,1.0,2.0,54,0.00,,,0.00,VWS V14.01,2013-01-19 22:16:00,
2013-01-19 17:17:00,43.3,27.8,30.04,SSE,161,1.0,2.0,54,0.00,,,0.00,VWS V14.01,2013-01-19 22:17:00,
2013-01-19 17:18:00,43.3,27.8,30.04,SSE,161,1.0,2.0,54,0.00,,,0.00,VWS V14.01,2013-01-19 22:18:00,
2013-01-19 17:19:00,43.2,28.1,30.04,SSE,161,0.0,2.0,55,0.00,,,0.00,VWS V14.01,2013-01-19 22:19:00,
2013-01-19 17:20:00,43.1,28.0,30.04,SSE,161,0.0,2.0,55,0.00,,,0.00,VWS V14.01,2013-01-19 22:20:00,
2013-01-19 17:21:00,43.1,28.0,30.04,SSE,161,0.0,0.0,55,0.00,,,0.00,VWS V14.01,2013-01-19 22:21:00,
2013-01-19 17:22:00,43.1,28.0,30.04,SSE,161,0.0,0.0,55,0.00,,,0.00,VWS V14.01,2013-01-19 22:22:00,
2013-01-19 17:23:00,43.1,28.0,30.04,SSE,161,0.0,0.0,55,0.00,,,0.00,VWS V14.01,2013-01-19 22:23:00,
2013-01-19 17:24:00,43.1,28.0,30.04,SSE,161,0.0,0.0,55,0.00,,,0.00,VWS V14.01,2013-01-19 22:24:00,
2013-01-19 17:25:00,43.0,28.0,30.04,SSE,162,1.0,1.0,55,0.00,,,0.00,VWS V14.01,2013-01-19 22:25:00,
2013-01-19 17:26:00,43.0,28.0,30.04,SSE,162,0.0,1.0,55,0.00,,,0.00,VWS V14.01,2013-01-19 22:26:00,
2013-01-19 17:27:00,43.0,28.0,30.04,SSE,162,0.0,1.0,55,0.00,,,0.00,VWS V14.01,2013-01-19 22:27:00,
2013-01-19 17:28:00,43.0,28.0,30.04,SSE,162,0.0,1.0,55,0.00,,,0.00,VWS V14.01,2013-01-19 22:28:00,
2013-01-19 17:29:00,42.9,28.7,30.04,SSE,162,2.0,2.0,57,0.00,,,0.00,VWS V14.01,2013-01-19 22:29:00,
2013-01-19 17:30:00,42.9,28.7,30.04,SSE,162,0.0,2.0,57,0.00,,,0.00,VWS V14.01,2013-01-19 22:30:00,
2013-01-19 17:31:00,42.9,28.7,30.04,SSE,162,0.0,0.0,57,0.00,,,0.00,VWS V14.01,2013-01-19 22:31:00,
2013-01-19 17:32:00,42.9,28.7,30.04,SSE,162,0.0,0.0,57,0.00,,,0.00,VWS V14.01,2013-01-19 22:32:00,
2013-01-19 17:33:00,42.9,28.7,30.04,SSE,162,0.0,0.0,57,0.00,,,0.00,VWS V14.01,2013-01-19 22:33:00,
2013-01-19 17:34:00,42.8,28.2,30.04,SSW,201,2.0,4.0,56,0.00,,,0.00,VWS V14.01,2013-01-19 22:34:00,
2013-01-19 17:35:00,42.7,28.5,30.04,SSW,201,1.0,4.0,57,0.00,,,0.00,VWS V14.01,2013-01-19 22:35:00,
2013-01-19 17:36:00,42.7,28.5,30.04,SSW,201,0.0,4.0,57,0.00,,,0.00,VWS V14.01,2013-01-19 22:36:00,
2013-01-19 17:37:00,42.7,28.5,30.04,SSW,201,0.0,4.0,57,0.00,,,0.00,VWS V14.01,2013-01-19 22:37:00,
2013-01-19 17:38:00,42.7,28.5,30.04,SSW,201,0.0,4.0,57,0.00,,,0.00,VWS V14.01,2013-01-19 22:38:00,
2013-01-19 17:39:00,42.7,28.5,30.04,South,184,3.0,4.0,57,0.00,,,0.00,VWS V14.01,2013-01-19 22:39:00,
2013-01-19 17:40:00,42.6,28.5,30.04,South,184,0.0,4.0,57,0.00,,,0.00,VWS V14.01,2013-01-19 22:40:00,
2013-01-19 17:41:00,42.6,28.5,30.04,South,184,0.0,1.0,57,0.00,,,0.00,VWS V14.01,2013-01-19 22:41:00,
2013-01-19 17:42:00,42.6,28.5,30.04,South,184,0.0,1.0,57,0.00,,,0.00,VWS V14.01,2013-01-19 22:42:00,
2013-01-19 17:43:00,42.6,28.5,30.04,South,184,0.0,1.0,57,0.00,,,0.00,VWS V14.01,2013-01-19 22:43:00,
2013-01-19 17:44:00,42.6,28.9,30.04,SSW,196,1.0,4.0,58,0.00,,,0.00,VWS V14.01,2013-01-19 22:44:00,
2013-01-19 17:45:00,42.7,29.0,30.04,SSW,196,0.0,4.0,58,0.00,,,0.00,VWS V14.01,2013-01-19 22:45:00,
2013-01-19 17:46:00,42.6,28.9,30.04,SSW,196,0.0,4.0,58,0.00,,,0.00,VWS V14.01,2013-01-19 22:46:00,
2013-01-19 17:47:00,42.7,29.0,30.04,SSW,196,0.0,4.0,58,0.00,,,0.00,VWS V14.01,2013-01-19 22:47:00,
2013-01-19 17:48:00,42.7,29.0,30.04,SSW,196,0.0,4.0,58,0.00,,,0.00,VWS V14.01,2013-01-19 22:48:00,
2013-01-19 17:49:00,42.7,29.0,30.04,South,189,1.0,4.0,58,0.00,,,0.00,VWS V14.01,2013-01-19 22:49:00,
2013-01-19 17:50:00,42.7,29.0,30.04,SSW,199,3.0,4.0,58,0.00,,,0.00,VWS V14.01,2013-01-19 22:50:00,
2013-01-19 17:51:00,42.7,29.0,30.04,SSW,203,7.0,7.0,58,0.00,,,0.00,VWS V14.01,2013-01-19 22:51:00,
2013-01-19 17:52:00,42.7,29.0,30.04,SSW,203,7.0,7.0,58,0.00,,,0.00,VWS V14.01,2013-01-19 22:52:00,
2013-01-19 17:53:00,42.7,29.0,30.04,SSW,203,7.0,7.0,58,0.00,,,0.00,VWS V14.01,2013-01-19 22:53:00,
2013-01-19 17:54:00,42.8,29.1,30.04,South,191,2.0,7.0,58,0.00,,,0.00,VWS V14.01,2013-01-19 22:54:00,
2013-01-19 17:55:00,42.8,29.1,30.04,South,191,3.0,7.0,58,0.00,,,0.00,VWS V14.01,2013-01-19 22:55:00,
2013-01-19 17:56:00,42.8,29.1,30.04,SSW,196,7.0,7.0,58,0.00,,,0.00,VWS V14.01,2013-01-19 22:56:00,
2013-01-19 17:57:00,42.8,29.1,30.04,SSW,196,7.0,7.0,58,0.00,,,0.00,VWS V14.01,2013-01-19 22:57:00,
2013-01-19 17:58:00,42.8,29.1,30.04,SSW,196,7.0,7.0,58,0.00,,,0.00,VWS V14.01,2013-01-19 22:58:00,
2013-01-19 17:59:00,42.9,29.2,30.04,SSW,211,4.0,7.0,58,0.00,,,0.00,VWS V14.01,2013-01-19 22:59:00,
2013-01-19 18:00:00,42.9,29.2,30.04,SSW,192,2.0,7.0,58,0.00,,,0.00,VWS V14.01,2013-01-19 23:00:00,
2013-01-19 18:01:00,43.0,29.2,30.04,SSW,207,6.0,6.0,58,0.00,,,0.00,VWS V14.01,2013-01-19 23:01:00,
2013-01-19 18:02:00,43.0,29.2,30.04,SSW,207,6.0,6.0,58,0.00,,,0.00,VWS V14.01,2013-01-19 23:02:00,
2013-01-19 18:03:00,43.0,29.2,30.04,SSW,207,6.0,6.0,58,0.00,,,0.00,VWS V14.01,2013-01-19 23:03:00,
2013-01-19 18:04:00,43.1,29.3,30.04,SW,227,7.0,7.0,58,0.00,,,0.00,VWS V14.01,2013-01-19 23:04:00,
2013-01-19 18:05:00,43.1,29.3,30.04,SW,219,4.0,7.0,58,0.00,,,0.00,VWS V14.01,2013-01-19 23:05:00,
2013-01-19 18:06:00,43.1,29.3,30.04,SSW,205,6.0,7.0,58,0.00,,,0.00,VWS V14.01,2013-01-19 23:06:00,
2013-01-19 18:07:00,43.1,29.3,30.04,SSW,205,6.0,7.0,58,0.00,,,0.00,VWS V14.01,2013-01-19 23:07:00,
2013-01-19 18:08:00,43.1,29.3,30.04,SSW,205,6.0,7.0,58,0.00,,,0.00,VWS V14.01,2013-01-19 23:08:00,
2013-01-19 18:09:00,43.2,29.0,30.04,SSW,202,1.0,7.0,57,0.00,,,0.00,VWS V14.01,2013-01-19 23:09:00,
2013-01-19 18:10:00,43.2,29.0,30.04,SW,230,3.0,7.0,57,0.00,,,0.00,VWS V14.01,2013-01-19 23:10:00,
2013-01-19 18:11:00,43.2,29.4,30.04,SSE,148,2.0,4.0,58,0.00,,,0.00,VWS V14.01,2013-01-19 23:11:00,
2013-01-19 18:12:00,43.2,29.4,30.04,SSE,148,2.0,4.0,58,0.00,,,0.00,VWS V14.01,2013-01-19 23:12:00,
2013-01-19 18:13:00,43.2,29.4,30.04,SSE,148,2.0,4.0,58,0.00,,,0.00,VWS V14.01,2013-01-19 23:13:00,
2013-01-19 18:14:00,43.2,29.0,30.04,SSW,203,6.0,6.0,57,0.00,,,0.00,VWS V14.01,2013-01-19 23:14:00,
2013-01-19 18:15:00,43.2,29.4,30.04,SSW,204,4.0,6.0,58,0.00,,,0.00,VWS V14.01,2013-01-19 23:15:00,
2013-01-19 18:16:00,43.2,29.4,30.04,WSW,248,5.0,7.0,58,0.00,,,0.00,VWS V14.01,2013-01-19 23:16:00,
2013-01-19 18:17:00,43.2,29.4,30.04,WSW,246,4.0,7.0,58,0.00,,,0.00,VWS V14.01,2013-01-19 23:17:00,
2013-01-19 18:18:00,43.2,29.4,30.04,WSW,246,4.0,7.0,58,0.00,,,0.00,VWS V14.01,2013-01-19 23:18:00,
2013-01-19 18:19:00,43.2,29.0,30.04,SSW,202,1.0,7.0,57,0.00,,,0.00,VWS V14.01,2013-01-19 23:19:00,
2013-01-19 18:20:00,43.2,29.0,30.04,SW,219,2.0,7.0,57,0.00,,,0.00,VWS V14.01,2013-01-19 23:20:00,
2013-01-19 18:21:00,43.2,29.0,30.04,SW,227,1.0,3.0,57,0.00,,,0.00,VWS V14.01,2013-01-19 23:21:00,
2013-01-19 18:22:00,43.2,29.0,30.04,SW,227,1.0,3.0,57,0.00,,,0.00,VWS V14.01,2013-01-19 23:22:00,
2013-01-19 18:23:00,43.2,29.0,30.04,SW,227,1.0,3.0,57,0.00,,,0.00,VWS V14.01,2013-01-19 23:23:00,
2013-01-19 18:24:00,43.2,29.0,30.04,South,189,3.0,3.0,57,0.00,,,0.00,VWS V14.01,2013-01-19 23:24:00,
2013-01-19 18:25:00,43.2,29.0,30.04,SSW,210,4.0,4.0,57,0.00,,,0.00,VWS V14.01,2013-01-19 23:25:00,
2013-01-19 18:26:00,43.2,29.0,30.04,South,191,0.0,4.0,57,0.00,,,0.00,VWS V14.01,2013-01-19 23:26:00,
2013-01-19 18:27:00,43.2,29.0,30.04,SSW,198,4.0,4.0,57,0.00,,,0.00,VWS V14.01,2013-01-19 23:27:00,
2013-01-19 18:28:00,43.2,29.0,30.04,SSW,198,4.0,4.0,57,0.00,,,0.00,VWS V14.01,2013-01-19 23:28:00,
2013-01-19 18:29:00,43.2,29.4,30.04,SW,234,6.0,7.0,58,0.00,,,0.00,VWS V14.01,2013-01-19 23:29:00,
2013-01-19 18:30:00,43.2,29.0,30.03,South,182,4.0,7.0,57,0.00,,,0.00,VWS V14.01,2013-01-19 23:30:00,
2013-01-19 18:31:00,43.2,29.0,30.03,WSW,257,1.0,5.0,57,0.00,,,0.00,VWS V14.01,2013-01-19 23:31:00,
2013-01-19 18:32:00,43.2,29.0,30.03,WSW,257,1.0,5.0,57,0.00,,,0.00,VWS V14.01,2013-01-19 23:32:00,
2013-01-19 18:33:00,43.2,29.0,30.03,WSW,257,1.0,5.0,57,0.00,,,0.00,VWS V14.01,2013-01-19 23:33:00,
2013-01-19 18:34:00,43.2,29.4,30.03,SW,214,5.0,5.0,58,0.00,,,0.00,VWS V14.01,2013-01-19 23:34:00,
2013-01-19 18:35:00,43.1,29.3,30.03,South,190,3.0,5.0,58,0.00,,,0.00,VWS V14.01,2013-01-19 23:35:00,
2013-01-19 18:36:00,43.1,29.3,30.03,South,190,2.0,5.0,58,0.00,,,0.00,VWS V14.01,2013-01-19 23:36:00,
2013-01-19 18:37:00,43.1,29.3,30.03,South,190,0.0,5.0,58,0.00,,,0.00,VWS V14.01,2013-01-19 23:37:00,
2013-01-19 18:39:00,43.1,29.3,30.03,SW,225,6.0,6.0,58,0.00,,,0.00,VWS V14.01,2013-01-19 23:39:00,
2013-01-19 18:40:00,43.1,29.3,30.03,South,182,1.0,6.0,58,0.00,,,0.00,VWS V14.01,2013-01-19 23:40:00,
2013-01-19 18:41:00,43.1,29.3,30.03,South,189,1.0,4.0,58,0.00,,,0.00,VWS V14.01,2013-01-19 23:41:00,
2013-01-19 18:42:00,43.1,29.3,30.03,South,189,1.0,4.0,58,0.00,,,0.00,VWS V14.01,2013-01-19 23:42:00,
2013-01-19 18:43:00,43.1,29.3,30.03,South,189,1.0,4.0,58,0.00,,,0.00,VWS V14.01,2013-01-19 23:43:00,
2013-01-19 18:44:00,43.1,29.3,30.03,SSW,192,2.0,4.0,58,0.00,,,0.00,VWS V14.01,2013-01-19 23:44:00,
2013-01-19 18:45:00,43.0,29.2,30.03,South,188,3.0,4.0,58,0.00,,,0.00,VWS V14.01,2013-01-19 23:45:00,
2013-01-19 18:46:00,43.0,29.2,30.03,South,175,3.0,4.0,58,0.00,,,0.00,VWS V14.01,2013-01-19 23:46:00,
2013-01-19 18:47:00,43.0,29.2,30.03,South,175,3.0,4.0,58,0.00,,,0.00,VWS V14.01,2013-01-19 23:47:00,
2013-01-19 18:48:00,43.0,29.2,30.03,South,175,3.0,4.0,58,0.00,,,0.00,VWS V14.01,2013-01-19 23:48:00,
2013-01-19 18:49:00,42.9,29.2,30.03,SSW,204,6.0,6.0,58,0.00,,,0.00,VWS V14.01,2013-01-19 23:49:00,
2013-01-19 18:50:00,42.9,29.2,30.03,SSW,210,4.0,6.0,58,0.00,,,0.00,VWS V14.01,2013-01-19 23:50:00,
2013-01-19 18:51:00,42.9,29.2,30.03,SSW,206,7.0,7.0,58,0.00,,,0.00,VWS V14.01,2013-01-19 23:51:00,
2013-01-19 18:52:00,42.9,29.2,30.03,SSW,206,7.0,7.0,58,0.00,,,0.00,VWS V14.01,2013-01-19 23:52:00,
2013-01-19 18:53:00,42.9,29.2,30.03,SSW,206,7.0,7.0,58,0.00,,,0.00,VWS V14.01,2013-01-19 23:53:00,
2013-01-19 18:54:00,42.9,29.2,30.03,SSW,204,2.0,7.0,58,0.00,,,0.00,VWS V14.01,2013-01-19 23:54:00,
2013-01-19 18:55:00,42.9,29.2,30.03,SW,216,4.0,7.0,58,0.00,,,0.00,VWS V14.01,2013-01-19 23:55:00,
2013-01-19 18:56:00,42.9,29.2,30.03,SW,216,1.0,7.0,58,0.00,,,0.00,VWS V14.01,2013-01-19 23:56:00,
2013-01-19 18:57:00,42.9,29.2,30.03,SW,216,1.0,7.0,58,0.00,,,0.00,VWS V14.01,2013-01-19 23:57:00,
2013-01-19 18:58:00,42.9,29.2,30.03,SW,216,1.0,7.0,58,0.00,,,0.00,VWS V14.01,2013-01-19 23:58:00,
2013-01-19 18:59:00,42.9,29.6,30.03,SW,216,0.0,7.0,59,0.00,,,0.00,VWS V14.01,2013-01-19 23:59:00,
2013-01-19 19:00:00,42.9,29.6,30.02,SW,216,1.0,7.0,59,0.00,,,0.00,VWS V14.01,2013-01-20 00:00:00,
2013-01-19 19:01:00,42.9,29.6,30.02,NNW,340,0.0,2.0,59,0.00,,,0.00,VWS V14.01,2013-01-20 00:01:00,
2013-01-19 19:02:00,42.9,29.6,30.02,NNW,340,0.0,2.0,59,0.00,,,0.00,VWS V14.01,2013-01-20 00:02:00,
2013-01-19 19:04:00,42.8,29.5,30.02,SSW,200,3.0,8.0,59,0.00,,,0.00,VWS V14.01,2013-01-20 00:04:00,
2013-01-19 19:05:00,42.8,29.5,30.02,SW,216,6.0,8.0,59,0.00,,,0.00,VWS V14.01,2013-01-20 00:05:00,
2013-01-19 19:06:00,42.8,29.5,30.02,SSW,198,1.0,8.0,59,0.00,,,0.00,VWS V14.01,2013-01-20 00:06:00,
2013-01-19 19:07:00,42.8,29.5,30.02,SSW,198,1.0,8.0,59,0.00,,,0.00,VWS V14.01,2013-01-20 00:07:00,
2013-01-19 19:08:00,42.8,29.5,30.02,SSW,198,1.0,8.0,59,0.00,,,0.00,VWS V14.01,2013-01-20 00:08:00,
2013-01-19 19:09:00,42.8,29.5,30.02,WSW,242,0.0,8.0,59,0.00,,,0.00,VWS V14.01,2013-01-20 00:09:00,
2013-01-19 19:10:00,42.8,29.5,30.02,WSW,241,1.0,8.0,59,0.00,,,0.00,VWS V14.01,2013-01-20 00:10:00,
2013-01-19 19:11:00,42.8,29.5,30.02,SSW,206,4.0,5.0,59,0.00,,,0.00,VWS V14.01,2013-01-20 00:11:00,
2013-01-19 19:13:00,42.8,29.5,30.02,SSW,206,4.0,5.0,59,0.00,,,0.00,VWS V14.01,2013-01-20 00:13:00,
2013-01-19 19:14:00,42.7,29.8,30.02,West,260,3.0,5.0,60,0.00,,,0.00,VWS V14.01,2013-01-20 00:14:00,
2013-01-19 19:15:00,42.7,29.4,30.02,SW,221,2.0,5.0,59,0.00,,,0.00,VWS V14.01,2013-01-20 00:15:00,
2013-01-19 19:16:00,42.7,29.4,30.02,WSW,246,3.0,5.0,59,0.00,,,0.00,VWS V14.01,2013-01-20 00:16:00,
2013-01-19 19:17:00,42.7,29.4,30.02,WSW,246,3.0,5.0,59,0.00,,,0.00,VWS V14.01,2013-01-20 00:17:00,
2013-01-19 19:18:00,42.7,29.4,30.02,WSW,246,3.0,5.0,59,0.00,,,0.00,VWS V14.01,2013-01-20 00:18:00,
2013-01-19 19:19:00,42.7,29.8,30.02,SW,219,4.0,5.0,60,0.00,,,0.00,VWS V14.01,2013-01-20 00:19:00,
2013-01-19 19:20:00,42.7,29.8,30.02,SW,220,5.0,7.0,60,0.00,,,0.00,VWS V14.01,2013-01-20 00:20:00,
2013-01-19 19:21:00,42.7,29.4,30.02,WSW,243,0.0,5.0,59,0.00,,,0.00,VWS V14.01,2013-01-20 00:21:00,
2013-01-19 19:22:00,42.7,29.4,30.02,WSW,243,0.0,5.0,59,0.00,,,0.00,VWS V14.01,2013-01-20 00:22:00,
2013-01-19 19:23:00,42.6,29.7,30.02,NW,311,1.0,5.0,60,0.00,,,0.00,VWS V14.01,2013-01-20 00:23:00,
2013-01-19 19:25:00,42.6,29.7,30.02,SSW,198,5.0,5.0,60,0.00,,,0.00,VWS V14.01,2013-01-20 00:25:00,
2013-01-19 19:26:00,42.6,29.7,30.02,SW,234,0.0,5.0,60,0.00,,,0.00,VWS V14.01,2013-01-20 00:26:00,
2013-01-19 19:27:00,42.6,29.7,30.02,SW,234,0.0,5.0,60,0.00,,,0.00,VWS V14.01,2013-01-20 00:27:00,
2013-01-19 19:28:00,42.6,29.7,30.02,SW,234,0.0,5.0,60,0.00,,,0.00,VWS V14.01,2013-01-20 00:28:00,
2013-01-19 19:29:00,42.6,29.7,30.02,SSW,195,0.0,5.0,60,0.00,,,0.00,VWS V14.01,2013-01-20 00:29:00,
2013-01-19 19:30:00,42.6,29.7,30.02,SSW,195,2.0,5.0,60,0.00,,,0.00,VWS V14.01,2013-01-20 00:30:00,
2013-01-19 19:31:00,42.6,29.7,30.02,WSW,253,0.0,3.0,60,0.00,,,0.00,VWS V14.01,2013-01-20 00:31:00,
2013-01-19 19:32:00,42.6,29.7,30.02,WSW,253,0.0,3.0,60,0.00,,,0.00,VWS V14.01,2013-01-20 00:32:00,
2013-01-19 19:33:00,42.6,29.7,30.02,WSW,253,0.0,3.0,60,0.00,,,0.00,VWS V14.01,2013-01-20 00:33:00,
2013-01-19 19:34:00,42.5,29.6,30.02,SSW,207,3.0,4.0,60,0.00,,,0.00,VWS V14.01,2013-01-20 00:34:00,
2013-01-19 19:35:00,42.5,29.6,30.02,SSW,207,0.0,4.0,60,0.00,,,0.00,VWS V14.01,2013-01-20 00:35:00,
2013-01-19 19:36:00,42.5,29.6,30.02,West,273,6.0,6.0,60,0.00,,,0.00,VWS V14.01,2013-01-20 00:36:00,
2013-01-19 19:37:00,42.5,29.6,30.02,SW,229,3.0,6.0,60,0.00,,,0.00,VWS V14.01,2013-01-20 00:37:00,
2013-01-19 19:38:00,42.5,29.6,30.02,SW,215,3.0,6.0,60,0.00,,,0.00,VWS V14.01,2013-01-20 00:38:00,
2013-01-19 19:39:00,42.5,29.6,30.02,SSW,211,5.0,6.0,60,0.00,,,0.00,VWS V14.01,2013-01-20 00:39:00,
2013-01-19 19:40:00,42.4,29.5,30.02,South,187,4.0,7.0,60,0.00,,,0.00,VWS V14.01,2013-01-20 00:40:00,
2013-01-19 19:41:00,42.5,29.6,30.02,WSW,250,3.0,4.0,60,0.00,,,0.00,VWS V14.01,2013-01-20 00:41:00,
2013-01-19 19:42:00,42.5,29.6,30.02,WSW,248,3.0,4.0,60,0.00,,,0.00,VWS V14.01,2013-01-20 00:42:00,
2013-01-19 19:43:00,42.5,29.6,30.02,WSW,248,3.0,4.0,60,0.00,,,0.00,VWS V14.01,2013-01-20 00:43:00,
2013-01-19 19:44:00,42.5,29.6,30.02,West,266,9.0,9.0,60,0.00,,,0.00,VWS V14.01,2013-01-20 00:44:00,
2013-01-19 19:45:00,42.5,29.6,30.01,West,263,0.0,9.0,60,0.00,,,0.00,VWS V14.01,2013-01-20 00:45:00,
2013-01-19 19:46:00,42.5,29.6,30.01,West,262,0.0,9.0,60,0.00,,,0.00,VWS V14.01,2013-01-20 00:46:00,
2013-01-19 19:47:00,42.5,29.6,30.01,West,262,0.0,9.0,60,0.00,,,0.00,VWS V14.01,2013-01-20 00:47:00,
2013-01-19 19:48:00,42.5,29.6,30.01,West,262,0.0,9.0,60,0.00,,,0.00,VWS V14.01,2013-01-20 00:48:00,
2013-01-19 19:49:00,42.4,29.9,30.01,SW,221,3.0,9.0,61,0.00,,,0.00,VWS V14.01,2013-01-20 00:49:00,
2013-01-19 19:50:00,42.4,29.9,30.01,WSW,257,7.0,9.0,61,0.00,,,0.00,VWS V14.01,2013-01-20 00:50:00,
2013-01-19 19:51:00,42.4,29.9,30.01,SW,227,6.0,7.0,61,0.00,,,0.00,VWS V14.01,2013-01-20 00:51:00,
2013-01-19 19:52:00,42.4,29.5,30.01,WSW,246,9.0,9.0,60,0.00,,,0.00,VWS V14.01,2013-01-20 00:52:00,
2013-01-19 19:53:00,42.4,29.5,30.01,WSW,246,9.0,9.0,60,0.00,,,0.00,VWS V14.01,2013-01-20 00:53:00,
2013-01-19 19:54:00,42.4,29.9,30.01,South,188,2.0,9.0,61,0.00,,,0.00,VWS V14.01,2013-01-20 00:54:00,
2013-01-19 19:55:00,42.4,29.5,30.01,SSW,207,0.0,9.0,60,0.00,,,0.00,VWS V14.01,2013-01-20 00:55:00,
2013-01-19 19:56:00,42.4,29.5,30.01,SW,216,4.0,9.0,60,0.00,,,0.00,VWS V14.01,2013-01-20 00:56:00,
2013-01-19 19:57:00,42.4,29.5,30.01,SW,216,4.0,9.0,60,0.00,,,0.00,VWS V14.01,2013-01-20 00:57:00,
2013-01-19 19:58:00,42.4,29.5,30.01,SW,216,4.0,9.0,60,0.00,,,0.00,VWS V14.01,2013-01-20 00:58:00,
2013-01-19 19:59:00,42.4,29.9,30.01,SW,221,1.0,9.0,61,0.00,,,0.00,VWS V14.01,2013-01-20 00:59:00,
2013-01-19 20:00:00,42.4,29.9,30.01,SW,223,6.0,10.0,61,0.00,,,0.00,VWS V14.01,2013-01-20 01:00:00,
2013-01-19 20:01:00,42.4,29.9,30.01,WSW,250,3.0,6.0,61,0.00,,,0.00,VWS V14.01,2013-01-20 01:01:00,
2013-01-19 20:02:00,42.4,29.9,30.01,WSW,250,3.0,6.0,61,0.00,,,0.00,VWS V14.01,2013-01-20 01:02:00,
2013-01-19 20:03:00,42.4,29.9,30.01,WSW,250,3.0,6.0,61,0.00,,,0.00,VWS V14.01,2013-01-20 01:03:00,
2013-01-19 20:04:00,42.3,29.8,30.01,SW,215,3.0,6.0,61,0.00,,,0.00,VWS V14.01,2013-01-20 01:04:00,
2013-01-19 20:05:00,42.4,29.9,30.01,WSW,254,0.0,6.0,61,0.00,,,0.00,VWS V14.01,2013-01-20 01:05:00,
2013-01-19 20:06:00,42.3,29.8,30.01,SSW,211,3.0,6.0,61,0.00,,,0.00,VWS V14.01,2013-01-20 01:06:00,
2013-01-19 20:07:00,42.3,29.8,30.01,SSW,211,3.0,6.0,61,0.00,,,0.00,VWS V14.01,2013-01-20 01:07:00,
2013-01-19 20:08:00,42.3,29.8,30.01,SSW,211,3.0,6.0,61,0.00,,,0.00,VWS V14.01,2013-01-20 01:08:00,
2013-01-19 20:09:00,42.3,29.8,30.01,WSW,239,2.0,6.0,61,0.00,,,0.00,VWS V14.01,2013-01-20 01:09:00,
2013-01-19 20:10:00,42.3,29.8,30.01,SSW,213,0.0,6.0,61,0.00,,,0.00,VWS V14.01,2013-01-20 01:10:00,
2013-01-19 20:11:00,42.3,29.8,30.01,West,272,2.0,4.0,61,0.00,,,0.00,VWS V14.01,2013-01-20 01:11:00,
2013-01-19 20:12:00,42.3,29.8,30.01,West,272,2.0,4.0,61,0.00,,,0.00,VWS V14.01,2013-01-20 01:12:00,
2013-01-19 20:13:00,42.3,29.8,30.01,West,272,2.0,4.0,61,0.00,,,0.00,VWS V14.01,2013-01-20 01:13:00,
2013-01-19 20:14:00,42.3,29.8,30.00,WSW,248,4.0,4.0,61,0.00,,,0.00,VWS V14.01,2013-01-20 01:14:00,
2013-01-19 20:15:00,42.3,29.8,30.00,WSW,248,3.0,4.0,61,0.00,,,0.00,VWS V14.01,2013-01-20 01:15:00,
2013-01-19 20:16:00,42.3,29.8,30.00,SW,220,0.0,4.0,61,0.00,,,0.00,VWS V14.01,2013-01-20 01:16:00,
2013-01-19 20:17:00,42.3,29.8,30.00,SW,220,0.0,4.0,61,0.00,,,0.00,VWS V14.01,2013-01-20 01:17:00,
2013-01-19 20:18:00,42.3,29.8,30.00,SW,220,0.0,4.0,61,0.00,,,0.00,VWS V14.01,2013-01-20 01:18:00,
2013-01-19 20:19:00,42.2,29.7,30.00,South,186,1.0,4.0,61,0.00,,,0.00,VWS V14.01,2013-01-20 01:19:00,
2013-01-19 20:20:00,42.2,29.7,30.00,South,186,1.0,4.0,61,0.00,,,0.00,VWS V14.01,2013-01-20 01:20:00,
2013-01-19 20:21:00,42.2,29.7,30.00,SSW,194,0.0,3.0,61,0.00,,,0.00,VWS V14.01,2013-01-20 01:21:00,
2013-01-19 20:22:00,42.2,29.7,30.00,SSW,194,0.0,3.0,61,0.00,,,0.00,VWS V14.01,2013-01-20 01:22:00,
2013-01-19 20:23:00,42.2,29.7,30.00,SSW,194,0.0,3.0,61,0.00,,,0.00,VWS V14.01,2013-01-20 01:23:00,
2013-01-19 20:24:00,42.1,29.6,30.00,SW,222,1.0,3.0,61,0.00,,,0.00,VWS V14.01,2013-01-20 01:24:00,
2013-01-19 20:25:00,42.1,29.6,30.00,SW,232,4.0,4.0,61,0.00,,,0.00,VWS V14.01,2013-01-20 01:25:00,
2013-01-19 20:26:00,42.1,29.6,30.00,SW,232,0.0,4.0,61,0.00,,,0.00,VWS V14.01,2013-01-20 01:26:00,
2013-01-19 20:27:00,42.1,29.6,30.00,SW,232,0.0,4.0,61,0.00,,,0.00,VWS V14.01,2013-01-20 01:27:00,
2013-01-19 20:28:00,42.1,29.6,30.00,SW,232,0.0,4.0,61,0.00,,,0.00,VWS V14.01,2013-01-20 01:28:00,
2013-01-19 20:29:00,42.0,29.9,29.99,West,259,0.0,4.0,62,0.00,,,0.00,VWS V14.01,2013-01-20 01:29:00,
2013-01-19 20:30:00,42.0,29.9,29.99,West,259,0.0,0.0,62,0.00,,,0.00,VWS V14.01,2013-01-20 01:30:00,
2013-01-19 20:31:00,42.0,29.9,29.99,SSW,198,5.0,5.0,62,0.00,,,0.00,VWS V14.01,2013-01-20 01:31:00,
2013-01-19 20:32:00,42.0,29.9,29.99,SSW,198,5.0,5.0,62,0.00,,,0.00,VWS V14.01,2013-01-20 01:32:00,
2013-01-19 20:33:00,42.0,29.9,29.99,SSW,198,5.0,5.0,62,0.00,,,0.00,VWS V14.01,2013-01-20 01:33:00,
2013-01-19 20:34:00,42.0,29.9,29.99,WSW,253,0.0,5.0,62,0.00,,,0.00,VWS V14.01,2013-01-20 01:34:00,
2013-01-19 20:35:00,42.0,29.9,29.99,WNW,293,2.0,5.0,62,0.00,,,0.00,VWS V14.01,2013-01-20 01:35:00,
2013-01-19 20:37:00,42.0,29.9,29.99,NW,320,2.0,5.0,62,0.00,,,0.00,VWS V14.01,2013-01-20 01:37:00,
2013-01-19 20:38:00,42.0,29.9,29.99,NW,320,2.0,5.0,62,0.00,,,0.00,VWS V14.01,2013-01-20 01:38:00,
2013-01-19 20:39:00,41.9,29.9,29.99,SW,215,0.0,5.0,62,0.00,,,0.00,VWS V14.01,2013-01-20 01:39:00,
2013-01-19 20:40:00,41.9,29.9,29.99,SSW,212,4.0,7.0,62,0.00,,,0.00,VWS V14.01,2013-01-20 01:40:00,
2013-01-19 20:41:00,41.9,29.9,29.99,SSW,198,3.0,4.0,62,0.00,,,0.00,VWS V14.01,2013-01-20 01:41:00,
2013-01-19 20:42:00,41.9,29.9,29.99,SSW,198,3.0,4.0,62,0.00,,,0.00,VWS V14.01,2013-01-20 01:42:00,
2013-01-19 20:43:00,41.9,29.9,29.99,SSW,198,3.0,4.0,62,0.00,,,0.00,VWS V14.01,2013-01-20 01:43:00,
2013-01-19 20:44:00,41.9,29.9,29.99,WSW,252,4.0,5.0,62,0.00,,,0.00,VWS V14.01,2013-01-20 01:44:00,
2013-01-19 20:45:00,41.9,29.9,29.99,WNW,290,3.0,5.0,62,0.00,,,0.00,VWS V14.01,2013-01-20 01:45:00,
2013-01-19 20:46:00,41.9,29.9,29.99,WNW,283,3.0,5.0,62,0.00,,,0.00,VWS V14.01,2013-01-20 01:46:00,
2013-01-19 20:47:00,41.9,29.9,29.99,WNW,283,3.0,5.0,62,0.00,,,0.00,VWS V14.01,2013-01-20 01:47:00,
2013-01-19 20:48:00,41.9,29.9,29.99,WNW,283,3.0,5.0,62,0.00,,,0.00,VWS V14.01,2013-01-20 01:48:00,
2013-01-19 20:49:00,41.9,29.9,29.99,West,266,0.0,5.0,62,0.00,,,0.00,VWS V14.01,2013-01-20 01:49:00,
2013-01-19 20:50:00,41.8,30.1,29.99,SW,224,0.0,5.0,63,0.00,,,0.00,VWS V14.01,2013-01-20 01:50:00,
2013-01-19 20:51:00,41.8,29.8,29.99,SSW,199,1.0,4.0,62,0.00,,,0.00,VWS V14.01,2013-01-20 01:51:00,
2013-01-19 20:52:00,41.8,29.8,29.99,SSW,199,1.0,4.0,62,0.00,,,0.00,VWS V14.01,2013-01-20 01:52:00,
2013-01-19 20:53:00,41.8,29.8,29.99,SSW,199,1.0,4.0,62,0.00,,,0.00,VWS V14.01,2013-01-20 01:53:00,
2013-01-19 20:54:00,41.8,29.8,29.99,SW,227,1.0,4.0,62,0.00,,,0.00,VWS V14.01,2013-01-20 01:54:00,
2013-01-19 20:55:00,41.8,30.1,29.99,SSW,211,0.0,4.0,63,0.00,,,0.00,VWS V14.01,2013-01-20 01:55:00,
2013-01-19 20:56:00,41.8,30.1,29.99,SW,223,1.0,4.0,63,0.00,,,0.00,VWS V14.01,2013-01-20 01:56:00,
2013-01-19 20:57:00,41.8,30.1,29.99,SW,223,1.0,4.0,63,0.00,,,0.00,VWS V14.01,2013-01-20 01:57:00,
2013-01-19 20:58:00,41.8,30.1,29.99,SW,223,1.0,4.0,63,0.00,,,0.00,VWS V14.01,2013-01-20 01:58:00,
2013-01-19 20:59:00,41.7,29.7,29.99,WSW,246,4.0,7.0,62,0.00,,,0.00,VWS V14.01,2013-01-20 01:59:00,
2013-01-19 21:00:00,41.7,29.7,29.99,WSW,244,0.0,7.0,62,0.00,,,0.00,VWS V14.01,2013-01-20 02:00:00,
2013-01-19 21:01:00,41.7,29.7,29.99,SW,223,1.0,4.0,62,0.00,,,0.00,VWS V14.01,2013-01-20 02:01:00,
2013-01-19 21:02:00,41.7,29.7,29.99,SW,223,1.0,4.0,62,0.00,,,0.00,VWS V14.01,2013-01-20 02:02:00,
2013-01-19 21:03:00,41.7,29.7,29.99,SW,223,1.0,4.0,62,0.00,,,0.00,VWS V14.01,2013-01-20 02:03:00,
2013-01-19 21:04:00,41.7,29.7,29.99,WSW,238,0.0,4.0,62,0.00,,,0.00,VWS V14.01,2013-01-20 02:04:00,
2013-01-19 21:05:00,41.7,30.0,29.99,West,276,3.0,4.0,63,0.00,,,0.00,VWS V14.01,2013-01-20 02:05:00,
2013-01-19 21:06:00,41.7,30.0,29.99,West,276,0.0,4.0,63,0.00,,,0.00,VWS V14.01,2013-01-20 02:06:00,
2013-01-19 21:07:00,41.7,30.0,29.99,West,276,0.0,4.0,63,0.00,,,0.00,VWS V14.01,2013-01-20 02:07:00,
2013-01-19 21:08:00,41.7,30.0,29.99,West,276,0.0,4.0,63,0.00,,,0.00,VWS V14.01,2013-01-20 02:08:00,
2013-01-19 21:09:00,41.7,30.0,29.99,WSW,256,2.0,5.0,63,0.00,,,0.00,VWS V14.01,2013-01-20 02:09:00,
2013-01-19 21:10:00,41.7,30.0,29.99,West,262,3.0,5.0,63,0.00,,,0.00,VWS V14.01,2013-01-20 02:10:00,
2013-01-19 21:11:00,41.7,30.0,29.99,WSW,254,4.0,6.0,63,0.00,,,0.00,VWS V14.01,2013-01-20 02:11:00,
2013-01-19 21:12:00,41.7,30.0,29.99,WSW,254,4.0,6.0,63,0.00,,,0.00,VWS V14.01,2013-01-20 02:12:00,
2013-01-19 21:13:00,41.7,30.0,29.99,WSW,254,4.0,6.0,63,0.00,,,0.00,VWS V14.01,2013-01-20 02:13:00,
2013-01-19 21:14:00,41.7,30.0,29.97,West,269,3.0,6.0,63,0.00,,,0.00,VWS V14.01,2013-01-20 02:14:00,
2013-01-19 21:15:00,41.7,30.0,29.97,WSW,245,2.0,6.0,63,0.00,,,0.00,VWS V14.01,2013-01-20 02:15:00,
2013-01-19 21:16:00,41.6,30.0,29.97,WSW,246,0.0,6.0,63,0.00,,,0.00,VWS V14.01,2013-01-20 02:16:00,
2013-01-19 21:18:00,41.7,30.0,29.97,WSW,250,0.0,6.0,63,0.00,,,0.00,VWS V14.01,2013-01-20 02:18:00,
2013-01-19 21:19:00,41.7,30.0,29.97,WSW,250,0.0,6.0,63,0.00,,,0.00,VWS V14.01,2013-01-20 02:19:00,
2013-01-19 21:20:00,41.6,30.0,29.97,SSE,150,2.0,6.0,63,0.00,,,0.00,VWS V14.01,2013-01-20 02:20:00,
2013-01-19 21:21:00,41.6,30.0,29.97,WSW,242,4.0,4.0,63,0.00,,,0.00,VWS V14.01,2013-01-20 02:21:00,
2013-01-19 21:22:00,41.6,30.0,29.97,SW,224,2.0,4.0,63,0.00,,,0.00,VWS V14.01,2013-01-20 02:22:00,
2013-01-19 21:23:00,41.6,30.0,29.97,SW,228,3.0,4.0,63,0.00,,,0.00,VWS V14.01,2013-01-20 02:23:00,
2013-01-19 21:24:00,41.6,30.0,29.97,SW,226,0.0,4.0,63,0.00,,,0.00,VWS V14.01,2013-01-20 02:24:00,
2013-01-19 21:25:00,41.6,30.0,29.97,West,267,4.0,7.0,63,0.00,,,0.00,VWS V14.01,2013-01-20 02:25:00,
2013-01-19 21:26:00,41.6,30.0,29.97,West,266,3.0,8.0,63,0.00,,,0.00,VWS V14.01,2013-01-20 02:26:00,
2013-01-19 21:27:00,41.6,30.0,29.97,West,266,3.0,8.0,63,0.00,,,0.00,VWS V14.01,2013-01-20 02:27:00,
2013-01-19 21:28:00,41.6,30.0,29.97,SE,135,2.0,8.0,63,0.00,,,0.00,VWS V14.01,2013-01-20 02:28:00,
2013-01-19 21:29:00,41.6,30.0,29.97,South,176,0.0,8.0,63,0.00,,,0.00,VWS V14.01,2013-01-20 02:29:00,
2013-01-19 21:30:00,41.6,30.0,29.97,West,265,1.0,8.0,63,0.00,,,0.00,VWS V14.01,2013-01-20 02:30:00,
2013-01-19 21:31:00,41.6,30.0,29.97,WNW,297,0.0,4.0,63,0.00,,,0.00,VWS V14.01,2013-01-20 02:31:00,
2013-01-19 21:32:00,41.6,30.0,29.97,WNW,297,0.0,4.0,63,0.00,,,0.00,VWS V14.01,2013-01-20 02:32:00,
2013-01-19 21:33:00,41.6,30.0,29.97,WNW,296,0.0,4.0,63,0.00,,,0.00,VWS V14.01,2013-01-20 02:33:00,
2013-01-19 21:35:00,41.6,30.0,29.97,WSW,248,0.0,7.0,63,0.00,,,0.00,VWS V14.01,2013-01-20 02:35:00,
2013-01-19 21:36:00,41.6,30.0,29.97,WSW,248,0.0,7.0,63,0.00,,,0.00,VWS V14.01,2013-01-20 02:36:00,
2013-01-19 21:37:00,41.6,30.0,29.97,WSW,248,0.0,7.0,63,0.00,,,0.00,VWS V14.01,2013-01-20 02:37:00,
2013-01-19 21:38:00,41.6,30.0,29.97,WSW,248,0.0,7.0,63,0.00,,,0.00,VWS V14.01,2013-01-20 02:38:00,
2013-01-19 21:39:00,41.5,29.9,29.97,SW,216,1.0,7.0,63,0.00,,,0.00,VWS V14.01,2013-01-20 02:39:00,
2013-01-19 21:40:00,41.5,29.9,29.97,SW,216,0.0,7.0,63,0.00,,,0.00,VWS V14.01,2013-01-20 02:40:00,
2013-01-19 21:41:00,41.5,29.9,29.97,SW,216,0.0,1.0,63,0.00,,,0.00,VWS V14.01,2013-01-20 02:41:00,
2013-01-19 21:42:00,41.5,29.9,29.97,SW,216,0.0,1.0,63,0.00,,,0.00,VWS V14.01,2013-01-20 02:42:00,
2013-01-19 21:43:00,41.5,29.9,29.97,SW,216,0.0,1.0,63,0.00,,,0.00,VWS V14.01,2013-01-20 02:43:00,
2013-01-19 21:44:00,41.5,29.9,29.97,WSW,247,0.0,1.0,63,0.00,,,0.00,VWS V14.01,2013-01-20 02:44:00,
2013-01-19 21:45:00,41.5,29.9,29.97,SW,226,0.0,1.0,63,0.00,,,0.00,VWS V14.01,2013-01-20 02:45:00,
2013-01-19 21:46:00,41.5,29.9,29.97,South,178,0.0,1.0,63,0.00,,,0.00,VWS V14.01,2013-01-20 02:46:00,
2013-01-19 21:47:00,41.5,29.9,29.97,South,178,0.0,1.0,63,0.00,,,0.00,VWS V14.01,2013-01-20 02:47:00,
2013-01-19 21:48:00,41.5,29.9,29.97,South,178,0.0,1.0,63,0.00,,,0.00,VWS V14.01,2013-01-20 02:48:00,
2013-01-19 21:49:00,41.4,29.8,29.97,West,259,0.0,2.0,63,0.00,,,0.00,VWS V14.01,2013-01-20 02:49:00,
2013-01-19 21:50:00,41.4,29.8,29.97,West,259,1.0,2.0,63,0.00,,,0.00,VWS V14.01,2013-01-20 02:50:00,
2013-01-19 21:51:00,41.4,29.8,29.97,SW,234,1.0,3.0,63,0.00,,,0.00,VWS V14.01,2013-01-20 02:51:00,
2013-01-19 21:52:00,41.4,29.8,29.97,SW,234,1.0,3.0,63,0.00,,,0.00,VWS V14.01,2013-01-20 02:52:00,
2013-01-19 21:53:00,41.4,29.8,29.97,SW,234,1.0,3.0,63,0.00,,,0.00,VWS V14.01,2013-01-20 02:53:00,
2013-01-19 21:54:00,41.4,30.1,29.97,WSW,244,0.0,3.0,64,0.00,,,0.00,VWS V14.01,2013-01-20 02:54:00,
2013-01-19 21:55:00,41.3,30.1,29.97,West,275,6.0,6.0,64,0.00,,,0.00,VWS V14.01,2013-01-20 02:55:00,
2013-01-19 21:56:00,41.3,30.1,29.97,WNW,303,3.0,6.0,64,0.00,,,0.00,VWS V14.01,2013-01-20 02:56:00,
2013-01-19 21:57:00,41.3,30.1,29.97,WNW,303,3.0,6.0,64,0.00,,,0.00,VWS V14.01,2013-01-20 02:57:00,
2013-01-19 21:58:00,41.3,30.1,29.97,West,276,0.0,6.0,64,0.00,,,0.00,VWS V14.01,2013-01-20 02:58:00,
2013-01-19 21:59:00,41.3,30.1,29.96,West,273,2.0,6.0,64,0.00,,,0.00,VWS V14.01,2013-01-20 02:59:00,
2013-01-19 22:00:00,41.3,30.1,29.96,WNW,292,2.0,6.0,64,0.00,,,0.00,VWS V14.01,2013-01-20 03:00:00,
2013-01-19 22:01:00,41.3,30.1,29.96,SW,221,5.0,5.0,64,0.00,,,0.00,VWS V14.01,2013-01-20 03:01:00,
2013-01-19 22:02:00,41.2,30.0,29.96,SW,221,2.0,5.0,64,0.00,,,0.00,VWS V14.01,2013-01-20 03:02:00,
2013-01-19 22:03:00,41.2,30.0,29.96,SW,221,2.0,5.0,64,0.00,,,0.00,VWS V14.01,2013-01-20 03:03:00,
2013-01-19 22:04:00,41.2,30.0,29.96,SW,220,3.0,5.0,64,0.00,,,0.00,VWS V14.01,2013-01-20 03:04:00,
2013-01-19 22:05:00,41.2,30.0,29.96,SW,219,1.0,5.0,64,0.00,,,0.00,VWS V14.01,2013-01-20 03:05:00,
2013-01-19 22:06:00,41.2,30.0,29.96,SSW,202,2.0,5.0,64,0.00,,,0.00,VWS V14.01,2013-01-20 03:06:00,
2013-01-19 22:07:00,41.2,30.0,29.96,SSW,202,2.0,5.0,64,0.00,,,0.00,VWS V14.01,2013-01-20 03:07:00,
2013-01-19 22:08:00,41.2,30.0,29.96,SSW,202,2.0,5.0,64,0.00,,,0.00,VWS V14.01,2013-01-20 03:08:00,
2013-01-19 22:09:00,41.1,29.9,29.96,SSW,212,0.0,5.0,64,0.00,,,0.00,VWS V14.01,2013-01-20 03:09:00,
2013-01-19 22:10:00,41.1,29.9,29.96,SW,214,3.0,3.0,64,0.00,,,0.00,VWS V14.01,2013-01-20 03:10:00,
2013-01-19 22:11:00,41.1,29.9,29.96,WSW,240,4.0,7.0,64,0.00,,,0.00,VWS V14.01,2013-01-20 03:11:00,
2013-01-19 22:12:00,41.1,29.9,29.96,WSW,240,4.0,7.0,64,0.00,,,0.00,VWS V14.01,2013-01-20 03:12:00,
2013-01-19 22:13:00,41.1,29.9,29.96,WSW,240,4.0,7.0,64,0.00,,,0.00,VWS V14.01,2013-01-20 03:13:00,
2013-01-19 22:14:00,41.1,29.9,29.95,West,277,0.0,7.0,64,0.00,,,0.00,VWS V14.01,2013-01-20 03:14:00,
2013-01-19 22:15:00,41.1,29.9,29.95,West,278,0.0,7.0,64,0.00,,,0.00,VWS V14.01,2013-01-20 03:15:00,
2013-01-19 22:16:00,41.1,29.9,29.95,West,280,0.0,7.0,64,0.00,,,0.00,VWS V14.01,2013-01-20 03:16:00,
2013-01-19 22:17:00,41.1,29.9,29.95,West,280,0.0,7.0,64,0.00,,,0.00,VWS V14.01,2013-01-20 03:17:00,
2013-01-19 22:18:00,41.1,29.9,29.95,West,280,0.0,7.0,64,0.00,,,0.00,VWS V14.01,2013-01-20 03:18:00,
2013-01-19 22:19:00,41.0,30.1,29.95,WNW,292,4.0,7.0,65,0.00,,,0.00,VWS V14.01,2013-01-20 03:19:00,
2013-01-19 22:20:00,41.0,30.1,29.95,WSW,253,4.0,7.0,65,0.00,,,0.00,VWS V14.01,2013-01-20 03:20:00,
2013-01-19 22:21:00,41.0,30.1,29.95,SW,216,2.0,5.0,65,0.00,,,0.00,VWS V14.01,2013-01-20 03:21:00,
2013-01-19 22:22:00,41.0,30.1,29.95,SW,216,2.0,5.0,65,0.00,,,0.00,VWS V14.01,2013-01-20 03:22:00,
2013-01-19 22:23:00,41.0,30.1,29.95,SW,216,2.0,5.0,65,0.00,,,0.00,VWS V14.01,2013-01-20 03:23:00,
2013-01-19 22:24:00,41.0,30.1,29.95,West,279,0.0,5.0,65,0.00,,,0.00,VWS V14.01,2013-01-20 03:24:00,
2013-01-19 22:25:00,40.9,30.1,29.95,West,273,0.0,5.0,65,0.00,,,0.00,VWS V14.01,2013-01-20 03:25:00,
2013-01-19 22:26:00,40.9,30.1,29.95,South,186,1.0,5.0,65,0.00,,,0.00,VWS V14.01,2013-01-20 03:26:00,
2013-01-19 22:27:00,40.9,30.1,29.95,South,186,1.0,5.0,65,0.00,,,0.00,VWS V14.01,2013-01-20 03:27:00,
2013-01-19 22:28:00,40.9,30.1,29.95,South,186,1.0,5.0,65,0.00,,,0.00,VWS V14.01,2013-01-20 03:28:00,
2013-01-19 22:29:00,40.9,30.1,29.94,West,270,0.0,5.0,65,0.00,,,0.00,VWS V14.01,2013-01-20 03:29:00,
2013-01-19 22:30:00,40.9,30.1,29.94,West,271,2.0,5.0,65,0.00,,,0.00,VWS V14.01,2013-01-20 03:30:00,
2013-01-19 22:31:00,40.9,30.1,29.94,West,262,1.0,4.0,65,0.00,,,0.00,VWS V14.01,2013-01-20 03:31:00,
2013-01-19 22:32:00,40.9,30.1,29.94,West,262,1.0,4.0,65,0.00,,,0.00,VWS V14.01,2013-01-20 03:32:00,
2013-01-19 22:33:00,40.9,30.1,29.94,West,262,1.0,4.0,65,0.00,,,0.00,VWS V14.01,2013-01-20 03:33:00,
2013-01-19 22:34:00,40.9,30.1,29.94,WSW,242,0.0,4.0,65,0.00,,,0.00,VWS V14.01,2013-01-20 03:34:00,
2013-01-19 22:35:00,40.9,30.1,29.94,WSW,238,6.0,6.0,65,0.00,,,0.00,VWS V14.01,2013-01-20 03:35:00,
2013-01-19 22:36:00,40.9,30.1,29.94,WSW,254,5.0,6.0,65,0.00,,,0.00,VWS V14.01,2013-01-20 03:36:00,
2013-01-19 22:37:00,40.9,30.1,29.94,WSW,254,5.0,6.0,65,0.00,,,0.00,VWS V14.01,2013-01-20 03:37:00,
2013-01-19 22:38:00,40.9,30.1,29.94,WSW,254,5.0,6.0,65,0.00,,,0.00,VWS V14.01,2013-01-20 03:38:00,
2013-01-19 22:39:00,40.8,30.3,29.94,WNW,283,4.0,6.0,66,0.00,,,0.00,VWS V14.01,2013-01-20 03:39:00,
2013-01-19 22:40:00,40.8,30.0,29.94,SW,234,1.0,6.0,65,0.00,,,0.00,VWS V14.01,2013-01-20 03:40:00,
2013-01-19 22:41:00,40.8,30.0,29.94,SW,234,0.0,1.0,65,0.00,,,0.00,VWS V14.01,2013-01-20 03:41:00,
2013-01-19 22:42:00,40.8,30.0,29.94,SW,234,0.0,1.0,65,0.00,,,0.00,VWS V14.01,2013-01-20 03:42:00,
2013-01-19 22:43:00,40.8,30.0,29.94,SW,234,0.0,1.0,65,0.00,,,0.00,VWS V14.01,2013-01-20 03:43:00,
2013-01-19 22:44:00,40.8,30.3,29.94,South,190,3.0,3.0,66,0.00,,,0.00,VWS V14.01,2013-01-20 03:44:00,
2013-01-19 22:45:00,40.7,30.2,29.94,SW,218,0.0,3.0,66,0.00,,,0.00,VWS V14.01,2013-01-20 03:45:00,
2013-01-19 22:46:00,40.7,30.2,29.94,West,274,2.0,5.0,66,0.00,,,0.00,VWS V14.01,2013-01-20 03:46:00,
2013-01-19 22:47:00,40.7,30.2,29.94,West,274,2.0,5.0,66,0.00,,,0.00,VWS V14.01,2013-01-20 03:47:00,
2013-01-19 22:48:00,40.7,30.2,29.94,West,274,2.0,5.0,66,0.00,,,0.00,VWS V14.01,2013-01-20 03:48:00,
2013-01-19 22:49:00,40.7,30.2,29.94,West,263,0.0,5.0,66,0.00,,,0.00,VWS V14.01,2013-01-20 03:49:00,
2013-01-19 22:50:00,40.7,30.2,29.94,WNW,293,1.0,5.0,66,0.00,,,0.00,VWS V14.01,2013-01-20 03:50:00,
2013-01-19 22:51:00,40.6,29.8,29.94,WNW,292,0.0,1.0,65,0.00,,,0.00,VWS V14.01,2013-01-20 03:51:00,
2013-01-19 22:52:00,40.6,29.8,29.94,WNW,292,0.0,1.0,65,0.00,,,0.00,VWS V14.01,2013-01-20 03:52:00,
2013-01-19 22:53:00,40.6,29.8,29.94,WNW,292,0.0,1.0,65,0.00,,,0.00,VWS V14.01,2013-01-20 03:53:00,
2013-01-19 22:54:00,40.6,30.1,29.94,NW,307,5.0,5.0,66,0.00,,,0.00,VWS V14.01,2013-01-20 03:54:00,
2013-01-19 22:55:00,40.6,30.1,29.94,WSW,258,2.0,5.0,66,0.00,,,0.00,VWS V14.01,2013-01-20 03:55:00,
2013-01-19 22:56:00,40.6,30.1,29.94,West,273,1.0,5.0,66,0.00,,,0.00,VWS V14.01,2013-01-20 03:56:00,
2013-01-19 22:57:00,40.6,30.1,29.94,West,273,1.0,5.0,66,0.00,,,0.00,VWS V14.01,2013-01-20 03:57:00,
2013-01-19 22:58:00,40.6,30.1,29.94,West,273,1.0,5.0,66,0.00,,,0.00,VWS V14.01,2013-01-20 03:58:00,
2013-01-19 22:59:00,40.6,30.1,29.94,West,269,2.0,5.0,66,0.00,,,0.00,VWS V14.01,2013-01-20 03:59:00,
2013-01-19 23:00:00,40.6,30.1,29.92,West,272,2.0,5.0,66,0.00,,,0.00,VWS V14.01,2013-01-20 04:00:00,
2013-01-19 23:01:00,40.6,30.1,29.92,West,275,5.0,5.0,66,0.00,,,0.00,VWS V14.01,2013-01-20 04:01:00,
2013-01-19 23:03:00,40.6,30.1,29.92,West,275,5.0,5.0,66,0.00,,,0.00,VWS V14.01,2013-01-20 04:03:00,
2013-01-19 23:04:00,40.5,30.0,29.92,West,276,1.0,5.0,66,0.00,,,0.00,VWS V14.01,2013-01-20 04:04:00,
2013-01-19 23:05:00,40.5,30.0,29.92,West,276,0.0,5.0,66,0.00,,,0.00,VWS V14.01,2013-01-20 04:05:00,
2013-01-19 23:06:00,40.5,30.0,29.92,West,279,2.0,5.0,66,0.00,,,0.00,VWS V14.01,2013-01-20 04:06:00,
2013-01-19 23:07:00,40.5,30.0,29.92,West,279,1.0,5.0,66,0.00,,,0.00,VWS V14.01,2013-01-20 04:07:00,
2013-01-19 23:08:00,40.5,30.0,29.92,West,279,1.0,5.0,66,0.00,,,0.00,VWS V14.01,2013-01-20 04:08:00,
2013-01-19 23:09:00,40.4,30.0,29.92,West,279,2.0,5.0,66,0.00,,,0.00,VWS V14.01,2013-01-20 04:09:00,
2013-01-19 23:10:00,40.4,30.0,29.92,West,279,0.0,5.0,66,0.00,,,0.00,VWS V14.01,2013-01-20 04:10:00,
2013-01-19 23:11:00,40.4,30.0,29.92,NW,312,0.0,3.0,66,0.00,,,0.00,VWS V14.01,2013-01-20 04:11:00,
2013-01-19 23:12:00,40.4,30.0,29.92,NW,312,0.0,3.0,66,0.00,,,0.00,VWS V14.01,2013-01-20 04:12:00,
2013-01-19 23:13:00,40.4,30.0,29.92,NW,312,0.0,3.0,66,0.00,,,0.00,VWS V14.01,2013-01-20 04:13:00,
2013-01-19 23:14:00,40.2,30.1,29.92,WNW,294,0.0,3.0,67,0.00,,,0.00,VWS V14.01,2013-01-20 04:14:00,
2013-01-19 23:15:00,40.2,30.1,29.92,South,173,0.0,3.0,67,0.00,,,0.00,VWS V14.01,2013-01-20 04:15:00,
2013-01-19 23:16:00,40.2,30.1,29.92,South,173,0.0,3.0,67,0.00,,,0.00,VWS V14.01,2013-01-20 04:16:00,
2013-01-19 23:17:00,40.2,30.1,29.92,South,173,0.0,3.0,67,0.00,,,0.00,VWS V14.01,2013-01-20 04:17:00,
2013-01-19 23:18:00,40.2,30.1,29.92,South,173,0.0,3.0,67,0.00,,,0.00,VWS V14.01,2013-01-20 04:18:00,
2013-01-19 23:19:00,40.1,30.0,29.92,West,264,0.0,3.0,67,0.00,,,0.00,VWS V14.01,2013-01-20 04:19:00,
2013-01-19 23:20:00,40.1,30.0,29.92,West,264,1.0,3.0,67,0.00,,,0.00,VWS V14.01,2013-01-20 04:20:00,
2013-01-19 23:21:00,40.1,30.0,29.92,West,264,0.0,3.0,67,0.00,,,0.00,VWS V14.01,2013-01-20 04:21:00,
2013-01-19 23:22:00,40.1,30.0,29.92,West,264,0.0,3.0,67,0.00,,,0.00,VWS V14.01,2013-01-20 04:22:00,
2013-01-19 23:23:00,40.1,30.0,29.92,West,264,0.0,3.0,67,0.00,,,0.00,VWS V14.01,2013-01-20 04:23:00,
2013-01-19 23:24:00,40.0,29.9,29.92,West,270,0.0,3.0,67,0.00,,,0.00,VWS V14.01,2013-01-20 04:24:00,
2013-01-19 23:25:00,39.9,29.9,29.92,WNW,294,2.0,4.0,67,0.00,,,0.00,VWS V14.01,2013-01-20 04:25:00,
2013-01-19 23:26:00,39.9,29.9,29.92,WNW,295,0.0,4.0,67,0.00,,,0.00,VWS V14.01,2013-01-20 04:26:00,
2013-01-19 23:27:00,39.9,29.9,29.92,WNW,295,0.0,4.0,67,0.00,,,0.00,VWS V14.01,2013-01-20 04:27:00,
2013-01-19 23:28:00,39.9,29.9,29.92,WNW,295,0.0,4.0,67,0.00,,,0.00,VWS V14.01,2013-01-20 04:28:00,
2013-01-19 23:29:00,39.8,30.1,29.92,West,263,0.0,4.0,68,0.00,,,0.00,VWS V14.01,2013-01-20 04:29:00,
2013-01-19 23:30:00,39.8,30.1,29.91,West,262,0.0,4.0,68,0.00,,,0.00,VWS V14.01,2013-01-20 04:30:00,
2013-01-19 23:31:00,39.8,30.1,29.91,West,263,0.0,3.0,68,0.00,,,0.00,VWS V14.01,2013-01-20 04:31:00,
2013-01-19 23:32:00,39.8,30.1,29.91,West,263,0.0,3.0,68,0.00,,,0.00,VWS V14.01,2013-01-20 04:32:00,
2013-01-19 23:33:00,39.8,30.1,29.91,West,263,0.0,3.0,68,0.00,,,0.00,VWS V14.01,2013-01-20 04:33:00,
2013-01-19 23:34:00,39.7,30.0,29.91,WSW,243,7.0,7.0,68,0.00,,,0.00,VWS V14.01,2013-01-20 04:34:00,
2013-01-19 23:35:00,39.6,29.9,29.91,WSW,257,4.0,7.0,68,0.00,,,0.00,VWS V14.01,2013-01-20 04:35:00,
2013-01-19 23:36:00,39.6,29.9,29.91,West,267,2.0,7.0,68,0.00,,,0.00,VWS V14.01,2013-01-20 04:36:00,
2013-01-19 23:37:00,39.6,29.9,29.91,West,267,2.0,7.0,68,0.00,,,0.00,VWS V14.01,2013-01-20 04:37:00,
2013-01-19 23:38:00,39.6,29.9,29.91,West,267,2.0,7.0,68,0.00,,,0.00,VWS V14.01,2013-01-20 04:38:00,
2013-01-19 23:39:00,39.5,29.8,29.91,SSW,198,0.0,7.0,68,0.00,,,0.00,VWS V14.01,2013-01-20 04:39:00,
2013-01-19 23:40:00,39.5,29.8,29.91,South,182,1.0,7.0,68,0.00,,,0.00,VWS V14.01,2013-01-20 04:40:00,
2013-01-19 23:43:00,39.5,29.8,29.91,SW,229,0.0,2.0,68,0.00,,,0.00,VWS V14.01,2013-01-20 04:43:00,
2013-01-19 23:44:00,39.5,29.8,29.89,WNW,290,0.0,2.0,68,0.00,,,0.00,VWS V14.01,2013-01-20 04:44:00,
2013-01-19 23:45:00,39.4,29.7,29.89,WNW,290,1.0,2.0,68,0.00,,,0.00,VWS V14.01,2013-01-20 04:45:00,
2013-01-19 23:46:00,39.4,29.7,29.89,WNW,284,0.0,2.0,68,0.00,,,0.00,VWS V14.01,2013-01-20 04:46:00,
2013-01-19 23:47:00,39.4,29.7,29.89,WNW,284,0.0,2.0,68,0.00,,,0.00,VWS V14.01,2013-01-20 04:47:00,
2013-01-19 23:48:00,39.4,29.7,29.89,WNW,284,0.0,2.0,68,0.00,,,0.00,VWS V14.01,2013-01-20 04:48:00,
2013-01-19 23:49:00,39.4,30.1,29.89,SSW,207,2.0,2.0,69,0.00,,,0.00,VWS V14.01,2013-01-20 04:49:00,
2013-01-19 23:50:00,39.3,30.0,29.89,SSW,207,1.0,2.0,69,0.00,,,0.00,VWS V14.01,2013-01-20 04:50:00,
2013-01-19 23:51:00,39.3,30.0,29.89,SSW,207,0.0,2.0,69,0.00,,,0.00,VWS V14.01,2013-01-20 04:51:00,
2013-01-19 23:52:00,39.3,30.0,29.89,SSW,207,0.0,2.0,69,0.00,,,0.00,VWS V14.01,2013-01-20 04:52:00,
2013-01-19 23:53:00,39.3,30.0,29.89,SSW,207,0.0,2.0,69,0.00,,,0.00,VWS V14.01,2013-01-20 04:53:00,
2013-01-19 23:54:00,39.2,29.9,29.89,West,277,2.0,3.0,69,0.00,,,0.00,VWS V14.01,2013-01-20 04:54:00,
2013-01-19 23:55:00,39.3,30.0,29.89,WNW,302,1.0,3.0,69,0.00,,,0.00,VWS V14.01,2013-01-20 04:55:00,
2013-01-19 23:56:00,39.2,29.9,29.89,WNW,302,0.0,3.0,69,0.00,,,0.00,VWS V14.01,2013-01-20 04:56:00,
2013-01-19 23:57:00,39.2,29.9,29.89,WNW,302,0.0,3.0,69,0.00,,,0.00,VWS V14.01,2013-01-20 04:57:00,
2013-01-19 23:58:00,39.2,29.9,29.89,WNW,302,0.0,3.0,69,0.00,,,0.00,VWS V14.01,2013-01-20 04:58:00,
2013-01-19 23:59:00,39.2,29.9,29.89,NW,320,0.0,3.0,69,0.00,,,0.00,VWS V14.01,2013-01-20 04:59:00,